GFSCGP_sfc_dewp_000.txt.gz
Dewpoint
30 23 23 23 25 23 22 20 16 15 18 22 19 18 17 18 18 20 24 25 26 28 30 30 32 32 31 32 29 29 30 32 30 30 30 30 31 33 35 33 34 36 35 35
27 25 25 25 24 23 21 21 19 18 20 22 21 19 18 16 18 22 24 24 26 27 29 30 31 33 34 31 30 28 28 30 30 27 29 31 31 30 31 33 36 36 36 36
25 25 25 24 23 22 22 22 20 20 22 20 20 13 15 17 20 23 24 26 27 27 28 29 30 33 35 34 33 30 28 28 30 30 28 29 30 31 29 30 30 34 38 38
23 27 24 23 22 23 21 22 22 22 22 15 21 11 16 17 18 20 24 25 26 26 27 27 29 31 34 36 36 32 29 27 28 32 28 32 26 24 25 30 30 32 36 38
24 24 23 22 23 23 22 25 24 24 22 21 19 17 17 20 16 18 22 24 26 27 28 28 28 30 32 35 37 36 31 29 29 32 34 31 32 29 30 31 34 35 36 36
23 26 25 23 24 24 25 25 25 24 23 22 20 18 16 17 19 21 21 25 27 27 28 29 28 29 30 36 37 37 32 29 31 33 34 35 34 32 30 31 30 29 30 30
21 23 25 27 25 25 27 26 27 26 25 21 21 20 21 22 22 23 25 27 28 29 30 30 29 28 29 31 34 33 31 29 30 33 34 35 35 34 32 29 28 29 27 27
24 21 21 27 26 27 23 25 27 28 21 21 21 19 18 21 23 25 26 26 28 30 31 31 29 30 30 31 32 32 28 29 29 32 33 34 32 28 27 27 27 26 26 26
28 24 28 27 29 28 27 29 26 25 24 23 21 21 23 22 24 25 25 28 29 31 32 31 30 31 31 32 33 34 30 27 28 31 32 30 30 28 24 26 28 26 28 23
30 29 29 28 29 28 28 26 28 29 30 25 19 21 20 23 24 25 27 29 31 32 33 33 32 33 32 33 31 34 32 28 28 29 29 27 27 26 25 27 27 28 28 27
31 32 30 31 29 30 30 30 25 25 27 28 26 22 26 26 27 28 28 29 32 33 34 34 33 33 34 33 30 31 29 27 27 27 28 28 25 24 25 26 26 26 27 26
33 34 31 30 31 29 30 30 28 30 27 29 29 27 29 30 29 29 30 31 32 33 33 33 35 34 32 29 27 27 28 26 26 26 27 26 25 25 26 25 26 27 26 27
35 34 31 27 27 29 28 28 29 32 34 32 31 28 28 28 29 31 31 31 32 33 33 34 36 32 28 27 27 25 26 25 25 25 25 25 26 25 25 26 26 26 26 26
39 35 34 29 28 30 31 31 31 32 33 32 31 30 31 30 31 30 31 32 33 33 32 35 36 31 26 26 25 23 24 26 25 24 22 25 26 26 26 26 26 26 26 23
38 35 33 33 32 31 31 31 31 31 32 32 32 29 30 31 31 31 32 32 32 31 35 36 33 29 24 24 23 22 24 26 26 24 24 23 27 27 26 25 26 25 23 20
36 36 35 34 33 32 32 32 31 31 31 30 31 32 33 33 31 30 31 31 30 33 36 35 31 25 21 21 21 25 26 29 27 25 23 24 26 25 24 24 24 21 19 18
38 37 36 32 31 32 32 34 31 30 31 32 31 32 32 30 30 30 30 31 35 36 35 38 28 22 20 21 28 29 31 28 26 23 23 24 24 23 23 21 18 16 18 18
39 36 36 33 34 28 28 28 27 28 29 29 29 31 30 29 31 36 37 36 37 32 38 37 28 21 23 30 30 32 25 23 24 22 22 22 22 21 21 18 15 16 16 18
39 39 35 32 32 30 28 27 29 29 28 28 28 29 31 34 37 38 36 35 32 34 37 31 29 30 33 35 36 29 22 20 21 21 21 20 21 20 17 14 15 16 17 19
33 39 36 36 31 28 29 29 27 27 28 30 30 35 37 37 36 37 37 38 40 39 38 34 37 39 39 37 31 22 19 18 20 21 20 20 20 17 14 13 14 16 19 21
35 34 32 32 31 33 31 28 30 30 33 36 37 37 38 37 38 39 40 40 39 38 38 36 36 34 34 30 22 21 18 19 20 21 21 19 17 14 13 14 15 16 22 26
34 34 32 34 32 30 31 27 31 35 40 38 39 39 40 40 41 39 39 39 38 38 36 37 35 32 30 30 25 19 17 18 20 20 19 18 16 13 10 14 16 20 23 27
33 36 36 33 34 36 35 35 37 40 39 39 40 40 39 42 41 40 39 39 38 36 37 34 32 32 30 23 19 18 20 19 20 19 19 17 15 12 12 15 20 21 20 22
36 37 36 37 36 35 37 39 40 40 40 39 41 42 44 41 40 38 39 37 37 37 37 32 30 25 21 20 20 19 21 21 18 19 19 17 13 13 14 16 18 20 21 22
37 38 37 38 39 38 38 38 39 39 40 40 40 42 42 41 39 39 36 37 36 37 33 29 26 22 19 21 20 20 20 21 19 20 18 14 14 17 18 18 20 21 23 23
40 38 36 37 38 39 40 38 37 38 39 40 42 41 42 41 39 36 36 36 36 36 31 28 23 19 19 19 20 21 21 20 21 20 18 18 19 19 19 19 21 22 21 22

GFSCGP_sfc_dewp_003.txt.gz
Dewpoint
25 23 20 20 23 21 20 20 19 18 19 21 21 20 17 15 15 16 18 21 22 23 25 29 33 35 34 36 34 32 33 34 32 31 31 32 34 35 35 34 35 37 34 36
26 24 23 23 22 21 20 21 20 20 20 23 21 18 16 16 18 18 20 22 24 25 26 29 32 35 37 35 35 32 32 33 33 30 31 32 33 31 33 34 37 38 38 37
20 25 24 21 20 21 21 23 22 21 23 22 21 16 15 18 19 20 23 25 24 25 25 28 31 34 37 38 37 34 31 32 33 34 29 31 33 33 30 31 33 37 40 39
22 24 22 21 19 23 21 24 24 24 23 18 21 11 15 16 16 19 22 25 26 27 27 27 29 32 36 38 39 37 35 32 32 34 32 35 29 27 29 31 29 29 34 37
25 20 19 20 22 24 24 26 26 26 25 23 19 16 15 17 15 17 21 24 27 28 28 29 30 31 32 37 39 40 37 35 33 33 37 36 36 35 31 32 34 35 36 36
18 21 24 22 25 26 26 28 27 26 25 24 23 18 13 16 17 19 21 24 27 28 30 30 31 31 32 37 40 41 38 35 34 34 34 39 39 37 34 36 35 37 36 36
21 22 23 26 26 28 28 27 28 27 26 23 21 20 20 19 20 20 22 25 27 30 31 32 31 31 32 33 36 38 38 36 35 35 36 39 39 38 37 34 33 31 30 29
24 24 21 28 27 28 28 27 30 27 23 23 22 19 18 19 20 21 24 26 29 30 33 33 33 34 33 34 34 35 35 34 34 34 35 36 36 35 34 31 30 29 28 28
28 24 28 26 30 29 29 30 29 28 28 27 23 21 22 22 21 24 25 27 30 32 33 34 35 35 35 35 36 38 36 35 34 34 35 35 35 34 31 30 30 29 28 25
32 30 30 29 31 30 31 30 30 32 32 25 22 23 22 23 24 24 26 28 31 33 34 34 34 36 37 37 37 40 37 35 34 32 33 33 32 30 29 30 29 28 28 28
33 34 32 32 30 29 31 31 29 27 29 29 26 24 27 28 30 29 29 30 32 32 34 34 34 35 37 38 37 36 35 34 34 30 32 32 30 28 27 26 26 27 28 26
36 34 34 31 31 29 29 31 31 31 28 31 32 29 30 31 30 29 30 31 32 33 34 34 35 37 37 37 34 32 33 32 29 29 30 29 28 26 26 26 26 28 27 27
35 35 32 27 29 30 30 29 30 32 34 32 32 30 28 29 31 31 30 31 32 33 34 34 34 37 37 35 32 30 30 30 27 26 27 27 26 26 27 26 27 27 26 25
39 35 34 31 31 31 32 30 31 32 36 34 33 32 30 30 30 30 31 32 32 33 33 33 36 36 38 34 31 29 29 28 26 25 25 28 28 27 26 27 27 27 26 25
39 36 34 33 31 30 30 30 30 29 31 32 32 29 29 30 30 31 31 32 32 33 34 34 36 38 40 33 29 28 27 26 26 27 28 31 29 28 27 27 27 26 26 24
37 37 36 35 33 32 32 30 30 29 29 28 30 29 30 30 31 30 32 32 35 35 34 36 38 40 39 30 27 26 25 27 30 31 31 28 27 26 26 26 26 25 22 20
39 38 37 32 32 34 33 34 32 31 29 29 29 31 29 28 30 32 35 35 35 36 37 37 40 40 37 30 26 24 28 33 37 30 28 27 25 25 25 23 22 21 21 21
40 38 35 33 36 29 28 29 28 28 27 28 28 28 30 32 35 36 37 37 41 41 37 40 40 40 34 31 29 32 37 33 31 30 26 23 23 23 24 23 19 19 20 20
37 40 34 34 32 30 30 28 30 30 29 29 29 32 34 36 37 39 39 41 41 39 41 39 39 38 35 36 38 40 38 31 27 23 21 21 22 23 21 19 19 19 19 20
34 41 36 36 31 28 29 29 30 30 28 34 34 35 38 39 37 39 41 41 40 40 39 37 38 37 39 39 39 35 29 24 23 22 21 22 22 20 18 19 19 19 19 19
36 35 33 33 32 32 32 31 31 30 32 39 38 37 39 37 39 41 42 40 39 38 37 38 37 37 36 36 32 25 25 24 20 21 22 21 19 18 19 18 18 17 20 25
32 35 33 34 32 31 31 31 35 39 41 39 39 39 40 41 41 42 40 39 37 36 37 37 38 35 33 32 30 25 20 18 20 21 21 20 20 19 16 17 16 18 21 27
31 35 36 34 35 38 38 37 39 39 40 41 42 39 41 42 41 41 39 37 35 37 37 38 35 34 33 27 22 19 21 19 21 21 20 21 21 19 16 16 19 20 19 24
38 38 38 38 36 35 36 39 41 40 40 38 40 39 40 40 41 41 39 36 36 37 38 38 35 30 26 23 20 19 21 22 20 21 21 22 21 17 16 17 17 19 22 23
37 39 37 38 38 37 39 40 38 39 39 37 39 39 40 41 39 41 38 34 37 37 38 35 31 28 23 21 20 20 20 22 21 22 22 22 20 19 18 19 19 20 24 25
39 38 36 36 40 41 39 35 35 36 38 39 37 33 32 34 38 38 35 36 36 37 36 33 27 23 20 19 20 21 22 21 23 23 23 24 20 20 20 19 19 23 25 25

GFSCGP_sfc_dewp_006.txt.gz
Dewpoint
22 25 20 19 22 20 18 19 18 19 19 20 21 21 19 16 16 20 21 24 26 27 27 34 38 41 40 43 41 40 39 42 40 41 41 41 43 43 44 43 43 44 43 43
20 25 21 20 19 19 16 18 21 21 22 23 22 21 19 17 19 20 21 25 27 28 28 32 37 41 42 41 41 40 39 40 40 39 40 41 42 41 41 42 44 43 45 43
18 24 20 19 19 20 18 23 23 22 24 23 21 16 18 17 19 20 24 26 26 28 29 31 37 41 44 43 44 41 39 39 40 40 38 40 41 41 39 39 40 43 44 45
21 21 19 20 19 21 20 24 25 26 25 21 24 15 15 17 18 20 24 30 31 31 31 32 37 38 42 43 46 44 42 39 39 43 37 40 36 33 34 37 37 37 44 44
26 21 17 19 21 23 23 27 28 27 27 25 21 16 16 17 15 18 25 27 32 33 34 34 34 36 41 42 46 45 44 42 41 42 42 39 39 38 39 40 40 40 40 40
16 20 21 21 23 25 27 28 27 27 26 29 23 21 18 16 18 18 21 26 31 33 35 34 36 37 37 43 44 46 45 41 42 42 43 43 40 41 40 40 39 39 39 40
22 21 23 25 25 27 28 28 31 32 32 29 22 21 23 23 21 21 24 28 33 37 36 37 36 36 39 41 43 45 43 41 42 44 44 42 43 42 41 41 40 38 36 35
26 26 23 27 27 28 28 28 35 27 25 26 25 20 18 20 21 22 25 31 31 37 38 36 38 40 40 42 42 42 39 39 40 41 42 43 43 41 41 40 38 36 34 34
30 26 27 28 28 29 28 30 30 31 31 30 27 25 26 24 23 25 27 28 34 35 37 37 38 41 41 42 42 43 42 40 40 42 44 43 42 41 39 38 37 35 35 30
32 30 30 29 31 31 30 31 30 36 31 24 22 25 24 27 29 31 31 32 35 37 37 37 38 39 40 41 42 44 45 40 38 39 41 38 38 38 36 36 34 33 33 32
34 34 32 33 30 29 29 30 32 29 32 30 28 26 31 30 32 33 32 33 34 36 37 37 38 39 40 41 40 40 38 37 37 37 38 38 36 36 34 32 32 31 33 32
37 35 35 32 32 29 28 30 30 34 31 32 32 30 32 33 33 33 33 33 34 36 35 35 36 37 39 40 41 41 38 36 36 36 36 35 34 33 32 32 32 33 32 32
36 36 31 28 30 30 31 30 30 32 36 32 32 31 32 33 33 33 32 34 34 35 34 36 36 38 39 40 41 42 35 35 34 31 33 32 32 32 31 33 33 32 32 31
39 34 33 31 31 32 32 30 31 31 31 30 31 30 30 31 31 31 34 35 34 34 35 35 36 38 39 41 41 38 32 34 32 29 29 32 30 32 33 33 32 32 31 30
37 36 34 33 32 32 32 31 30 29 29 28 29 28 28 29 29 32 34 35 35 35 36 39 39 38 39 40 40 35 32 32 31 29 29 32 36 36 33 32 32 31 31 28
40 37 37 35 34 32 31 32 32 30 29 28 29 28 30 29 32 34 35 36 36 38 39 40 38 38 39 40 39 31 30 30 31 32 38 39 36 33 31 31 31 31 29 27
39 38 34 31 33 33 32 32 31 30 29 29 28 29 30 30 34 36 37 37 39 39 40 39 39 40 40 39 35 32 33 39 39 39 37 35 35 30 30 29 27 28 26 26
37 36 34 32 33 27 28 30 30 30 30 30 28 29 30 33 38 38 39 40 40 41 40 40 40 39 39 36 36 40 40 38 36 36 36 34 29 28 27 28 26 25 24 24
36 38 35 32 32 31 31 30 30 30 30 31 32 36 37 39 40 39 40 43 43 41 40 39 38 39 37 37 40 40 40 39 38 32 27 25 26 26 27 25 23 24 23 22
37 40 39 36 30 27 33 30 32 32 29 38 39 39 41 39 37 39 41 42 41 40 38 36 38 38 38 39 39 37 36 34 27 27 25 24 26 25 23 23 23 22 23 20
37 35 33 34 31 32 33 32 36 32 36 41 41 41 40 39 41 42 41 42 41 39 35 37 37 37 37 37 36 32 26 26 25 24 24 24 24 22 22 23 22 20 21 24
31 34 33 33 32 29 33 35 35 37 41 41 42 42 41 41 40 40 40 41 39 36 36 36 37 36 36 35 36 28 21 19 22 23 24 24 23 22 20 22 20 21 22 24
31 34 34 32 33 36 37 37 40 40 41 42 41 39 40 39 38 39 40 39 39 37 37 36 36 36 36 33 24 21 23 20 23 24 24 24 24 23 20 19 21 22 21 23
36 36 36 35 34 35 37 39 41 41 41 41 41 40 40 37 34 34 37 39 36 36 36 37 36 33 30 27 21 21 23 25 22 24 25 24 24 23 21 20 21 21 22 23
37 37 36 35 37 37 38 40 40 40 40 41 41 40 31 30 29 31 37 35 36 35 36 37 33 32 27 23 22 21 22 25 23 25 25 25 25 23 21 22 22 23 24 24
38 36 36 35 37 40 39 39 40 39 41 39 33 29 29 30 34 36 36 35 34 34 36 34 32 25 23 20 21 22 24 26 26 25 26 26 24 23 23 22 22 24 25 25

GFSCGP_sfc_dewp_009.txt.gz
Dewpoint
25 25 21 19 23 23 19 18 19 22 23 24 22 22 22 21 18 19 21 24 25 26 30 33 34 34 36 37 34 34 35 36 36 35 36 36 39 40 40 39 43 43 42 40
23 25 23 21 21 22 20 22 24 24 26 26 24 22 22 19 19 21 25 24 25 26 28 32 35 35 33 35 36 35 34 36 36 36 36 36 37 38 39 40 41 42 42 41
23 25 22 21 23 22 21 25 25 25 27 27 24 22 18 21 20 24 25 25 25 25 26 28 30 34 36 36 36 37 36 35 37 36 35 36 38 37 35 37 39 40 41 42
26 23 20 21 23 22 20 27 27 27 27 24 26 20 18 19 19 23 24 26 27 28 29 30 29 29 35 37 39 38 38 37 37 38 35 34 33 33 34 35 36 38 42 42
26 21 19 23 22 23 24 29 28 29 28 26 24 19 16 20 20 22 26 28 29 30 30 30 31 33 33 37 40 41 40 40 39 38 38 36 35 38 37 38 37 38 41 42
20 22 23 24 25 27 29 31 30 32 28 25 26 23 21 20 19 22 27 29 30 30 31 33 34 34 34 37 38 41 40 40 41 40 40 40 37 36 37 37 38 38 40 38
28 23 25 29 27 30 29 30 27 25 25 25 25 24 23 25 24 25 27 27 28 29 33 32 32 34 36 40 36 39 40 40 41 41 41 41 40 38 36 38 38 35 36 35
29 27 28 29 29 28 29 29 27 22 24 25 27 24 23 26 24 26 27 26 31 31 33 34 36 36 37 37 37 38 39 40 40 41 42 42 42 41 38 39 39 36 34 35
32 29 32 29 31 30 30 31 31 28 28 26 28 27 24 28 30 31 31 31 31 32 35 35 36 38 38 39 39 41 41 41 41 40 39 40 42 40 38 35 34 35 34 32
34 31 34 34 34 32 30 33 29 30 24 24 25 26 25 30 30 31 33 32 34 35 36 36 36 38 38 39 40 41 40 39 38 36 37 36 37 34 35 35 33 33 33 34
36 35 33 35 34 32 30 30 32 33 31 29 27 28 31 31 31 33 32 33 35 35 35 35 36 37 39 40 41 41 41 41 35 35 36 35 34 32 32 32 32 32 33 34
37 34 29 32 33 33 28 32 32 31 32 30 30 30 32 33 34 32 33 34 35 34 36 36 37 38 39 40 41 41 41 41 34 34 34 34 32 30 30 30 31 32 32 33
36 32 27 28 30 34 33 32 33 33 29 28 25 28 32 32 32 33 34 35 35 36 36 39 40 39 39 40 41 41 40 35 33 32 31 31 30 29 30 31 31 31 32 33
39 35 31 28 30 33 32 32 32 32 25 28 29 29 29 29 31 33 35 36 36 37 39 40 40 39 38 38 39 40 37 34 31 29 30 30 29 29 31 31 31 31 31 31
38 31 35 35 35 34 32 31 31 31 30 29 29 28 29 30 33 36 37 38 37 39 40 40 40 39 38 39 40 39 31 33 30 29 31 36 35 34 34 33 31 31 30 30
39 32 33 34 35 35 33 32 32 31 31 30 30 28 31 31 38 38 38 38 39 40 40 39 40 39 40 39 38 33 36 39 40 39 38 38 37 36 33 30 30 30 29 29
35 32 29 32 33 33 26 29 31 31 29 30 28 32 38 37 38 39 39 40 40 40 41 40 40 39 39 39 35 36 39 39 39 39 38 38 38 38 37 31 28 27 27 25
31 30 31 33 30 26 29 31 29 30 31 32 36 38 38 40 41 40 40 41 40 40 41 41 39 38 38 36 38 40 40 41 39 38 38 38 38 35 27 27 27 24 23 22
38 33 31 30 29 30 31 32 31 29 29 39 37 38 39 41 40 38 41 42 41 41 41 40 39 38 37 38 38 39 39 40 39 38 37 32 27 26 26 24 22 22 21 21
38 36 32 29 24 21 27 32 38 36 30 40 40 41 41 40 35 36 41 42 42 42 40 39 37 37 37 37 39 38 36 38 37 27 25 25 25 24 22 21 21 21 21 20
29 30 27 24 26 28 32 33 40 28 32 40 41 41 41 40 40 42 42 40 41 40 38 37 36 37 37 36 36 35 30 24 24 25 25 25 24 22 22 22 21 19 20 23
26 25 29 26 30 23 35 33 29 34 38 37 39 41 40 41 42 39 38 40 40 38 37 36 36 36 36 36 35 33 19 21 24 24 24 24 24 23 22 19 19 20 21 20
30 31 28 30 28 34 34 34 36 37 38 40 40 41 41 39 39 33 31 37 38 36 36 36 36 36 35 35 23 23 24 24 25 25 25 24 24 24 21 20 20 21 21 18
36 37 33 32 33 33 35 36 37 38 40 42 42 42 39 38 34 33 36 36 36 35 35 35 36 34 33 31 23 22 25 26 23 24 25 25 24 23 21 21 22 20 19 18
37 37 35 34 35 35 36 37 38 41 44 42 39 38 35 36 36 35 33 34 35 33 34 36 35 34 32 24 23 22 25 26 26 26 26 26 25 22 22 23 22 22 22 19
38 36 35 33 36 37 37 38 40 40 38 36 36 33 36 36 35 34 34 34 33 33 35 36 33 27 23 23 25 27 27 27 26 26 25 24 22 21 21 21 21 23 24 26

GFSCGP_sfc_dewp_012.txt.gz
Dewpoint
27 23 20 19 21 22 21 20 21 23 24 26 24 24 25 21 20 22 24 25 27 30 33 34 34 36 35 35 35 36 34 34 38 36 36 36 38 39 40 42 46 46 44 43
27 23 23 21 24 22 21 24 24 25 26 28 26 25 21 19 19 24 25 25 26 28 32 33 33 33 34 34 33 33 33 35 36 35 35 35 35 37 38 40 41 45 44 42
24 24 23 22 23 22 21 25 25 25 28 28 26 23 18 20 24 24 25 25 25 27 29 32 33 32 33 34 34 35 34 34 36 36 35 36 37 37 37 37 39 41 43 43
25 23 19 24 23 23 21 25 27 27 27 23 27 23 21 19 21 24 25 25 25 27 29 28 29 31 35 35 36 37 37 36 36 37 35 34 33 33 34 35 36 39 41 41
25 20 18 23 22 25 23 27 29 29 28 26 25 21 18 19 19 22 26 28 29 29 30 30 31 33 32 35 37 39 39 39 39 39 38 37 34 35 36 37 35 36 39 41
21 22 22 23 26 30 30 30 31 31 28 25 25 23 20 22 23 27 29 28 30 30 31 32 33 34 36 36 37 39 39 39 40 41 40 39 38 37 37 37 38 38 39 39
30 25 25 29 28 30 30 30 26 23 24 23 27 25 22 25 26 26 27 29 30 30 32 32 32 33 35 36 37 38 39 39 41 41 41 41 41 40 39 37 37 39 38 36
31 28 30 29 30 28 29 30 26 22 24 25 28 24 24 29 31 31 27 29 30 30 32 34 36 36 37 38 39 39 40 41 40 41 41 41 42 43 42 41 39 38 36 36
31 29 33 32 31 30 30 29 31 27 28 26 27 28 27 27 31 33 33 33 33 34 36 35 37 38 38 39 40 40 40 40 40 41 41 39 39 41 41 37 36 36 35 35
34 31 35 35 35 33 31 32 28 29 20 25 27 26 26 29 32 33 33 34 35 36 36 36 37 38 39 40 40 42 41 40 41 41 37 36 36 36 35 34 33 34 36 38
35 33 32 33 33 32 30 31 31 32 30 26 25 28 31 31 33 34 33 34 34 35 36 37 38 39 39 40 41 41 41 41 41 38 35 35 32 33 32 32 33 33 36 38
36 33 29 31 33 34 33 32 33 27 29 29 30 28 31 33 32 34 34 34 36 36 38 39 39 40 40 39 40 40 41 41 38 34 34 34 32 31 30 31 32 33 34 35
35 30 26 24 27 34 33 32 33 33 29 28 23 25 30 31 32 35 35 37 37 38 40 40 40 39 40 39 39 40 41 36 33 32 33 31 30 29 29 31 32 32 32 32
38 33 28 25 26 33 32 32 31 31 25 29 29 29 30 31 35 37 38 38 38 39 40 40 40 40 41 40 40 40 37 34 33 30 30 30 30 29 31 32 32 31 31 31
36 30 33 33 34 34 34 33 34 32 30 29 29 29 30 36 37 38 38 39 39 39 40 39 40 40 41 40 40 38 35 38 38 37 38 37 36 34 33 32 32 33 31 30
38 30 31 32 35 35 34 34 33 33 32 31 31 29 38 38 39 39 39 39 39 40 40 39 40 41 41 39 39 36 37 39 39 38 38 38 39 38 38 37 36 33 32 29
34 30 29 28 33 32 29 30 31 30 31 30 28 32 38 38 39 39 39 39 39 41 40 39 41 41 40 38 36 37 39 40 39 39 39 39 40 38 37 37 34 31 27 24
31 29 29 29 31 25 30 32 31 30 31 32 37 38 39 39 39 40 41 40 41 40 39 39 41 40 38 37 37 38 39 39 38 38 38 38 37 37 34 29 25 23 22 21
37 33 29 25 28 29 31 31 31 31 32 38 38 38 38 39 40 36 39 41 41 39 41 41 41 38 37 36 37 38 37 37 39 39 36 29 27 25 24 22 21 21 21 21
36 33 27 29 27 23 26 30 38 38 28 39 38 38 36 38 36 37 41 37 37 40 42 41 37 37 36 36 37 36 32 29 28 25 25 25 25 23 22 22 21 21 19 20
28 30 23 20 24 25 30 32 36 21 25 37 37 37 38 39 40 41 39 34 37 39 37 37 36 36 36 36 36 34 22 23 25 26 26 25 24 23 23 21 20 19 20 22
25 25 28 26 26 24 34 34 30 32 36 36 37 40 40 40 39 38 36 35 38 36 36 36 35 36 36 35 35 24 20 22 25 25 25 25 25 23 20 20 20 20 21 19
30 30 27 28 27 32 35 35 36 37 37 38 41 42 39 38 38 36 35 36 36 36 35 35 35 37 36 34 29 22 23 24 25 25 25 25 25 23 21 20 21 21 20 18
34 36 31 32 32 33 35 36 37 38 40 42 41 39 39 37 36 36 34 32 33 34 33 33 36 36 34 33 23 23 26 25 25 25 25 26 25 23 22 22 22 20 18 17
38 39 36 35 36 36 36 37 40 42 39 39 38 39 36 36 35 34 33 33 33 33 34 36 35 33 26 24 24 26 26 26 25 25 26 25 24 22 22 22 22 22 21 19
39 36 35 34 36 37 37 39 41 38 37 37 33 33 36 34 32 33 33 34 35 35 34 33 28 26 25 25 26 27 27 26 25 25 24 23 22 21 20 20 21 24 24 23

GFSCGP_sfc_dewp_015.txt.gz
Dewpoint
27 22 18 19 21 21 20 23 23 23 24 27 26 26 27 25 21 22 23 22 28 30 33 33 33 35 36 39 38 37 33 40 39 38 37 37 38 39 40 41 45 47 47 46
26 21 22 23 23 21 23 24 22 25 26 28 27 25 19 19 20 24 27 27 28 31 32 34 35 34 34 35 35 36 34 33 36 36 35 35 36 37 39 40 41 45 46 46
24 24 21 23 23 21 21 24 23 24 27 28 26 23 19 21 24 24 25 26 27 30 31 32 32 33 33 33 33 34 34 34 36 36 35 35 36 36 37 37 38 40 45 46
24 21 20 24 22 23 21 24 26 26 27 23 26 21 20 19 21 24 25 25 26 27 29 30 32 33 33 33 34 35 36 36 36 37 36 34 33 33 35 36 36 37 41 43
25 18 21 21 22 25 25 29 28 29 28 27 24 20 22 23 19 25 28 27 28 29 29 30 30 30 32 34 35 37 39 40 40 40 39 38 37 37 37 38 37 37 38 42
27 23 23 24 26 29 30 30 30 30 28 23 25 23 22 23 24 27 28 28 30 29 29 31 33 33 34 36 37 38 39 39 40 41 41 41 40 40 39 39 39 39 39 39
31 29 29 29 28 30 30 30 24 21 24 23 27 23 24 26 27 27 26 28 29 30 30 32 33 33 36 37 39 39 40 40 41 41 41 41 41 41 41 41 41 39 38 36
29 25 31 31 29 28 29 30 25 18 23 25 27 23 24 27 31 30 31 31 33 33 32 36 36 37 38 39 40 40 40 41 41 41 41 42 41 40 41 42 41 40 36 35
31 28 33 34 34 31 30 29 31 27 28 25 27 28 28 29 32 34 33 34 35 35 35 36 37 38 39 39 39 40 41 41 41 41 42 40 37 37 39 37 37 36 36 37
34 31 34 34 34 33 30 32 28 29 18 23 27 27 27 29 32 31 33 34 35 36 37 38 38 39 39 39 40 41 41 40 41 41 39 34 35 36 36 34 34 35 36 38
34 33 31 31 30 30 31 31 31 31 29 26 23 27 32 30 32 32 34 35 35 36 37 39 39 40 40 40 40 40 40 40 41 39 34 35 36 33 32 32 34 35 37 38
36 32 28 30 32 34 32 32 32 29 28 28 27 27 31 31 33 35 36 37 37 36 39 40 40 41 40 40 40 40 40 41 37 33 33 34 34 31 31 32 32 34 35 36
34 30 25 22 26 30 32 32 33 32 29 28 24 24 31 32 35 37 37 38 38 38 39 40 41 40 41 41 41 40 41 36 35 32 32 32 31 29 29 31 33 33 33 32
38 32 27 24 23 31 31 32 33 30 25 27 28 28 30 32 37 38 38 39 39 39 39 40 40 40 40 41 41 40 39 36 36 32 31 30 30 29 30 32 32 32 32 31
35 30 32 32 32 33 33 33 34 33 32 30 30 30 31 35 37 38 39 39 39 39 39 40 40 39 41 41 40 39 36 37 39 38 36 36 36 35 36 37 37 36 36 35
37 29 32 30 34 35 33 34 34 34 33 32 31 29 34 38 39 39 40 39 39 39 40 41 40 39 41 41 39 37 37 38 40 39 38 39 40 40 39 39 36 36 35 30
33 30 30 24 32 31 24 29 32 31 30 30 28 30 38 38 39 38 38 39 39 39 39 36 38 39 41 41 38 37 37 39 39 38 38 40 40 38 37 37 36 33 27 23
32 30 29 28 30 23 27 31 30 30 30 31 34 37 38 39 38 38 40 39 39 36 33 34 36 41 41 38 37 37 38 38 38 38 37 37 37 37 33 27 24 22 22 21
35 32 29 29 28 27 29 29 30 29 29 36 37 37 36 36 37 36 40 39 37 36 34 37 40 37 37 36 37 37 36 32 36 34 27 26 27 25 23 21 21 21 20 20
35 31 26 28 26 23 26 28 36 37 29 37 38 36 36 36 34 37 39 36 36 36 38 37 36 36 36 36 36 35 29 25 25 25 25 25 24 23 22 22 20 20 20 20
28 30 26 26 27 26 29 30 33 24 26 36 38 37 36 36 40 40 38 37 36 37 36 36 35 35 36 36 37 37 27 24 24 26 25 25 25 24 22 21 20 20 21 22
25 24 24 26 25 22 32 34 30 33 34 36 36 37 38 39 38 37 37 36 36 35 35 34 34 34 36 36 34 33 25 23 25 25 25 25 25 22 21 21 21 21 21 19
29 29 27 28 28 32 33 35 36 37 37 36 38 40 41 38 35 37 35 35 32 33 34 34 33 37 37 34 31 23 23 24 25 25 24 25 25 23 21 21 21 21 19 18
36 37 33 32 32 32 36 37 37 38 39 40 40 38 35 34 35 36 34 32 32 32 32 35 33 32 29 26 24 25 27 27 25 25 26 26 24 23 22 22 22 21 19 18
37 38 36 35 37 37 37 39 40 42 41 38 37 37 36 35 35 34 32 32 32 33 35 34 34 29 30 30 27 26 26 26 25 25 25 24 24 23 21 21 21 23 22 18
39 36 35 34 37 38 38 42 43 37 37 36 35 33 33 35 34 31 32 32 33 34 33 32 30 29 27 25 26 27 27 26 25 24 23 22 21 21 20 19 20 23 22 23

GFSCGP_sfc_dewp_018.txt.gz
Dewpoint
28 22 18 19 21 21 19 21 22 23 25 27 27 26 23 20 23 24 22 22 23 27 32 34 33 34 35 39 42 43 41 43 44 41 39 38 39 39 40 41 42 45 47 47
25 20 21 23 23 21 22 22 19 24 26 28 27 25 21 23 24 25 27 28 29 30 32 34 34 36 37 38 40 40 37 35 41 38 36 36 36 37 39 40 40 42 46 47
23 22 24 23 22 23 22 21 21 23 26 27 25 21 21 20 24 25 25 26 29 30 31 33 33 34 34 35 36 36 36 35 35 36 36 35 35 36 36 36 37 38 41 43
23 20 23 24 22 24 23 23 25 25 26 23 26 19 22 23 22 25 25 25 26 28 30 32 32 32 32 33 34 34 36 37 37 37 36 36 34 34 36 37 37 36 39 41
23 18 22 25 24 25 25 30 30 28 27 27 24 19 20 24 22 25 26 27 28 28 28 28 29 30 33 35 36 38 39 40 41 40 40 40 39 40 41 40 40 40 40 39
29 25 25 25 26 30 30 31 28 29 27 23 25 22 22 23 24 26 28 28 29 29 30 31 33 34 35 38 39 40 40 40 41 41 41 41 40 41 40 39 41 41 41 40
31 29 32 29 29 31 30 28 21 21 23 22 27 23 25 27 27 29 32 33 34 34 31 35 36 37 39 39 40 40 40 40 41 42 42 42 41 39 38 38 39 40 40 36
29 22 31 32 29 28 29 29 23 14 22 25 27 22 25 30 32 33 34 35 35 35 36 37 38 38 39 39 39 40 41 41 41 41 42 41 38 37 37 38 39 39 37 36
30 27 33 34 34 31 30 28 31 26 27 25 26 28 28 30 33 33 34 34 35 36 37 37 38 39 39 39 40 40 40 41 41 41 41 39 36 36 35 36 36 36 36 38
34 30 33 33 33 32 30 31 27 28 18 21 25 26 25 30 31 33 34 35 36 36 37 38 39 40 40 40 40 41 40 40 40 41 38 34 35 35 35 35 35 35 36 38
33 32 28 29 29 29 31 30 31 30 29 22 23 26 31 30 32 33 35 37 37 36 37 39 39 40 41 41 41 41 40 40 41 38 34 34 34 35 33 33 34 35 37 38
35 31 27 27 31 34 33 31 30 25 25 27 25 25 31 32 34 36 37 38 39 38 38 39 40 41 41 41 41 41 41 41 39 35 34 33 34 33 31 32 33 35 35 36
34 29 23 18 28 29 32 32 32 30 28 28 26 23 29 31 34 37 38 38 39 39 39 39 40 41 41 41 41 41 41 40 36 37 35 34 33 30 29 31 33 33 33 34
38 31 25 21 21 27 30 32 32 31 28 27 27 27 29 31 33 38 38 39 39 39 39 39 40 41 41 40 41 41 40 37 37 38 38 35 33 32 34 35 37 37 37 36
35 30 31 31 31 32 33 33 33 32 31 30 29 29 31 33 36 38 39 39 40 39 39 40 40 37 37 39 41 41 39 37 38 39 38 36 36 39 39 38 37 37 37 35
36 28 31 30 32 33 31 33 34 34 33 33 33 33 33 37 39 38 39 39 39 39 40 35 33 30 32 38 41 39 37 37 39 38 37 38 40 39 37 37 37 36 36 35
33 30 27 22 30 29 21 25 30 31 32 29 27 28 36 36 36 36 38 38 38 38 35 33 32 35 40 40 38 37 37 37 38 37 38 39 39 37 38 38 36 34 26 23
32 28 29 24 25 19 26 30 30 30 30 30 30 34 37 37 36 38 37 36 37 35 35 34 38 37 36 36 35 36 37 35 34 36 34 34 33 34 30 25 23 22 22 21
35 31 28 29 26 27 29 28 29 29 27 32 33 36 36 35 36 34 38 36 35 35 35 37 35 35 34 35 35 35 33 30 30 30 27 26 26 24 23 23 22 21 20 20
34 29 26 28 26 22 26 27 37 35 27 34 37 36 35 36 34 36 38 37 35 36 37 36 35 35 34 35 35 37 35 25 26 25 25 25 24 24 23 21 21 20 20 21
27 30 30 29 28 29 30 30 32 24 27 35 38 37 36 36 38 38 37 37 37 35 35 35 34 33 34 35 37 36 35 26 25 25 25 25 25 23 21 21 21 21 21 22
25 23 23 25 25 21 30 32 28 32 35 35 36 37 39 39 37 35 35 37 35 32 32 33 33 32 35 35 32 28 27 23 25 25 25 25 25 24 21 21 21 21 20 19
28 30 28 29 27 32 32 35 35 37 37 37 38 39 38 35 34 32 34 35 33 32 32 33 32 33 31 25 25 26 26 26 25 25 25 26 25 23 22 21 21 21 20 18
33 35 32 32 32 33 37 38 38 38 38 41 41 38 36 34 33 33 34 34 31 31 31 34 33 31 30 29 30 27 26 26 24 24 25 25 24 23 22 21 21 21 19 17
37 37 35 35 37 38 38 39 41 42 39 38 38 37 35 34 33 33 34 31 30 31 33 34 32 31 30 29 27 25 26 25 25 24 24 23 24 23 23 21 21 22 21 18
39 37 35 34 36 38 40 41 39 36 35 32 34 34 34 34 33 34 32 31 31 31 33 32 31 30 28 25 25 26 26 25 25 25 24 22 21 20 19 18 20 22 21 22

GFSCGP_sfc_dewp_021.txt.gz
Dewpoint
29 24 21 20 22 21 20 21 22 23 25 27 27 26 22 25 27 29 29 29 27 29 33 35 37 37 40 44 46 48 48 50 49 48 47 46 44 43 43 43 45 46 46 49
26 23 21 24 23 21 22 21 19 24 26 28 27 23 22 25 25 27 29 30 32 32 33 35 36 38 40 40 44 45 45 42 41 43 42 42 41 40 40 42 44 44 45 47
26 20 25 24 25 26 25 21 22 23 26 28 25 22 24 22 25 26 27 29 30 32 33 34 36 39 40 40 41 38 39 40 41 42 40 41 42 42 41 41 41 42 44 45
24 21 25 27 24 25 24 24 27 27 27 23 27 18 24 24 25 27 29 31 30 31 31 32 34 36 39 41 43 43 43 43 43 44 43 44 41 40 41 42 41 42 45 45
23 24 27 28 25 27 27 30 30 29 28 27 26 20 23 25 25 28 31 32 34 35 34 33 35 38 41 43 44 44 43 43 43 44 44 43 41 41 41 42 42 42 43 44
28 28 27 26 28 31 31 30 28 30 28 25 26 23 25 25 28 31 33 35 36 36 35 38 39 41 41 44 44 44 43 42 43 44 45 44 42 41 40 41 39 40 40 42
30 29 32 31 30 32 32 28 24 26 27 25 27 23 27 30 31 33 34 36 37 38 39 39 39 39 41 42 43 42 43 41 43 44 44 44 41 41 40 40 39 39 39 40
28 23 31 34 30 28 31 30 28 18 23 25 28 24 27 32 33 35 35 36 37 38 39 39 40 41 41 42 43 43 42 41 42 43 44 43 41 39 39 39 39 39 38 39
31 26 33 35 34 31 30 31 31 28 28 28 26 28 31 33 33 34 35 37 37 38 39 39 41 42 42 42 43 44 43 41 42 43 44 40 40 40 39 39 39 38 39 39
34 30 32 33 33 33 31 32 29 31 25 21 24 27 25 30 31 33 36 37 38 38 39 39 40 42 43 43 43 44 44 42 42 42 42 37 39 39 39 38 37 37 39 41
33 33 28 29 32 31 32 31 32 31 31 28 26 24 32 31 32 33 37 38 39 39 39 39 40 41 43 43 43 43 43 43 42 42 38 40 39 39 36 34 36 37 39 41
35 32 29 26 32 34 33 31 30 28 25 30 30 25 30 34 34 36 38 39 40 40 40 41 41 42 42 41 39 40 43 43 42 39 40 39 39 36 33 34 35 37 36 37
35 32 24 16 28 29 32 33 32 31 31 29 28 24 29 33 34 37 38 39 39 41 40 41 41 40 37 36 38 40 43 43 40 39 39 39 37 33 34 37 38 39 39 38
39 32 25 21 19 27 29 32 32 32 32 28 29 27 29 30 32 37 38 37 39 40 40 41 39 37 35 35 39 41 41 41 39 39 39 39 36 37 38 38 37 37 37 36
37 33 32 32 32 32 32 32 32 32 32 31 29 29 30 32 34 37 37 39 39 38 40 39 35 32 35 39 38 36 37 38 38 39 39 38 38 39 38 37 38 37 36 36
37 33 34 32 33 32 31 31 32 33 33 33 33 33 35 35 39 37 37 37 38 39 38 35 33 37 36 32 33 35 36 38 39 37 38 39 40 40 39 39 38 37 38 36
36 34 31 27 30 29 27 26 30 31 33 32 28 29 35 37 36 35 36 38 38 37 35 34 36 34 32 34 35 36 37 37 35 36 37 37 36 35 35 32 26 25 25 25
34 33 32 31 28 24 27 30 31 30 30 31 30 31 33 37 36 36 38 38 36 35 34 36 34 32 33 34 35 37 37 34 33 32 33 29 28 26 26 25 25 25 23 23
36 34 31 29 27 28 29 28 29 30 28 31 32 36 36 36 37 37 38 37 36 35 36 35 33 34 34 33 36 36 37 33 28 28 26 25 25 25 25 23 23 23 22 22
34 32 34 31 28 25 30 28 37 34 28 33 37 36 36 37 35 38 36 37 34 36 35 32 33 34 33 33 35 35 35 34 28 27 27 26 26 25 23 23 23 22 22 21
30 32 31 30 28 30 32 32 32 28 30 37 39 37 37 37 38 36 38 36 35 37 32 32 33 33 33 33 32 30 29 32 25 28 26 25 25 25 24 22 22 21 21 23
28 28 27 28 28 25 31 33 32 34 37 37 38 38 39 37 37 36 32 33 34 35 31 31 33 33 33 27 26 25 25 26 27 25 25 25 25 23 21 21 20 20 22 24
30 32 31 30 32 34 33 35 37 37 38 39 39 37 35 35 32 32 32 32 33 35 31 31 33 34 32 30 28 29 29 28 26 25 25 24 24 22 22 21 21 21 21 22
33 34 34 33 35 35 37 39 41 42 40 39 38 37 37 29 32 33 32 32 33 34 30 31 33 34 32 32 30 30 27 26 25 24 24 24 24 24 24 23 21 22 23 22
36 37 37 36 37 38 38 42 40 37 36 33 31 30 31 33 32 33 32 32 33 32 31 32 34 34 32 32 29 26 26 27 25 25 24 24 24 24 25 22 23 23 24 23
40 38 36 35 38 40 39 39 38 35 32 30 31 33 33 30 29 32 30 31 31 31 32 32 34 33 32 29 26 26 26 26 26 24 24 25 25 25 23 22 22 23 23 23

GFSCGP_sfc_dewp_027.txt.gz
Dewpoint
24 21 19 18 18 16 12 11 12 15 20 20 21 19 22 24 25 26 26 28 30 35 40 41 43 44 43 47 46 51 52 54 51 50 47 45 44 44 43 42 46 48 48 48
18 21 22 19 18 16 17 18 18 20 21 23 22 19 22 24 26 28 28 30 32 34 36 39 42 44 45 45 46 46 46 46 44 42 44 46 46 44 45 46 46 46 47 47
20 22 21 21 21 20 22 21 24 22 23 23 23 20 22 24 26 28 29 30 31 32 34 38 41 45 46 46 45 44 44 45 46 46 43 44 43 44 42 43 44 45 46 45
21 23 22 22 22 25 22 25 26 25 23 19 24 16 22 23 25 30 33 35 35 34 35 38 41 43 46 46 46 45 44 44 44 47 45 47 44 43 44 45 44 44 45 42
22 22 24 24 26 27 27 30 28 27 26 22 22 15 23 23 25 30 34 35 37 38 39 39 40 42 44 47 47 46 44 43 44 46 47 46 45 44 42 42 42 41 39 39
23 26 28 28 28 28 30 30 28 29 27 25 20 21 22 22 26 31 34 36 38 38 39 39 40 41 42 46 47 46 44 42 43 44 44 44 44 42 39 39 38 37 38 37
25 26 29 32 28 30 29 28 28 27 27 26 26 22 28 30 31 32 34 36 37 38 39 39 39 40 42 43 45 45 43 42 42 43 43 43 42 41 40 40 39 40 38 36
23 27 28 29 29 28 28 28 31 22 23 22 24 17 27 31 32 33 34 35 36 37 39 38 38 40 41 43 44 45 43 41 40 41 42 42 43 40 41 42 41 39 37 36
26 25 30 30 31 31 30 31 30 29 33 28 18 26 31 31 32 33 33 34 36 36 37 37 39 40 41 41 42 44 43 40 40 41 43 43 43 42 42 42 41 38 38 36
30 28 29 27 31 33 29 31 31 33 29 20 13 17 19 31 31 33 33 34 36 37 37 38 38 39 40 40 40 42 39 38 40 41 42 40 40 40 40 40 38 37 38 41
27 28 27 24 26 24 27 30 29 28 29 27 22 18 27 27 29 30 32 34 35 37 38 37 37 39 39 39 39 38 39 39 37 35 35 36 37 37 38 36 36 37 39 38
32 30 28 19 27 30 29 28 28 30 25 29 30 24 27 26 30 32 31 34 37 37 36 36 37 38 38 37 35 36 36 31 30 30 31 33 35 35 35 37 37 38 37 38
34 32 25 22 28 32 28 27 28 28 32 27 31 26 26 29 31 33 33 34 35 35 35 35 37 37 37 35 35 32 28 28 30 31 33 34 34 37 37 38 38 37 37 37
39 30 25 24 22 22 23 23 22 25 30 30 27 24 24 25 27 29 30 33 35 35 34 35 37 37 36 34 31 27 27 30 32 32 32 32 35 38 38 40 39 40 38 36
36 32 27 27 24 22 22 23 24 23 25 28 27 25 26 28 30 30 32 34 34 34 35 36 37 36 33 31 29 28 28 30 32 32 31 32 36 36 38 38 37 36 35 28
35 34 35 32 26 22 23 23 24 24 25 25 26 26 29 30 29 30 33 33 34 35 37 38 34 32 32 28 28 27 28 30 32 31 30 31 32 31 32 32 31 29 28 28
36 38 33 34 32 32 34 30 23 24 26 26 28 29 29 29 32 34 36 37 38 40 37 32 31 32 32 29 29 26 26 28 29 30 28 29 30 30 30 29 28 27 27 24
41 37 38 35 34 30 24 25 26 26 26 27 27 28 30 32 36 37 39 38 38 37 33 32 34 33 29 29 29 27 25 25 27 27 27 28 30 30 28 25 24 24 23 24
38 40 37 34 29 26 26 28 29 29 29 30 30 33 33 34 37 36 38 38 36 33 33 34 33 30 30 29 28 26 25 23 23 24 25 26 29 25 24 23 23 23 23 23
36 40 40 35 31 28 27 27 32 31 29 34 35 36 36 37 38 38 37 35 33 34 33 28 27 27 28 28 28 27 25 23 22 22 23 25 25 24 23 23 22 23 22 21
35 37 35 34 33 31 29 31 33 30 34 39 38 40 40 39 39 39 35 34 34 29 25 22 22 25 26 28 27 26 25 23 22 23 25 26 25 23 22 22 22 21 21 24
33 35 34 35 32 29 31 31 34 38 40 41 40 39 39 39 36 34 34 29 26 23 21 22 23 23 23 24 24 23 25 23 24 27 27 26 24 22 19 22 22 21 22 25
31 33 34 34 34 36 35 37 41 41 41 41 38 38 37 36 32 27 26 24 20 18 15 17 19 20 21 22 22 22 27 30 32 28 27 26 25 22 20 22 21 21 21 24
33 33 39 37 33 32 37 40 41 40 40 39 38 36 32 27 28 25 18 15 14 14 15 16 18 19 21 21 19 21 25 31 31 27 28 27 25 23 23 21 21 22 24 25
36 35 35 36 35 37 41 41 40 38 37 35 29 27 27 26 22 19 16 14 14 16 14 16 19 21 20 21 21 22 22 29 28 29 31 27 24 23 26 24 23 23 24 25
37 35 38 37 41 42 40 40 38 35 30 26 26 26 24 21 18 18 18 18 18 18 18 19 19 21 21 22 23 25 31 28 30 32 30 26 26 26 26 25 24 27 25 23

GFSCGP_sfc_dewp_030.txt.gz
Dewpoint
24 21 20 17 18 13 11 10 9 12 18 16 15 18 21 23 24 27 28 30 35 40 42 44 47 49 49 53 53 54 54 57 55 55 53 51 51 50 50 49 51 51 51 50
17 19 21 17 16 14 12 15 16 18 19 19 20 18 22 24 27 28 30 34 35 38 40 43 46 49 48 49 49 49 48 49 48 48 49 50 50 50 49 50 48 50 51 50
23 22 19 17 18 18 18 19 24 21 21 21 20 20 21 24 26 28 31 32 33 36 39 43 45 48 49 49 49 46 47 48 50 51 48 49 50 50 48 48 48 49 50 49
22 20 18 19 21 24 20 27 25 22 22 18 22 16 21 23 26 29 33 36 34 35 38 41 44 46 49 50 51 48 48 47 47 50 49 51 49 46 47 47 47 46 46 46
21 20 22 23 27 25 25 28 26 26 25 23 19 21 20 24 25 31 34 36 38 39 40 40 43 45 46 51 51 50 48 46 48 48 49 48 47 47 46 45 45 45 45 45
23 25 27 28 27 27 27 29 28 28 27 28 23 19 21 22 26 32 34 36 38 39 40 40 42 43 46 51 51 50 47 45 47 46 47 47 47 46 44 44 44 44 43 43
24 25 29 28 27 29 28 27 31 32 31 30 26 23 28 29 31 32 35 36 39 40 41 41 40 41 44 46 48 48 47 45 45 47 47 47 46 46 45 45 44 43 41 40
23 27 27 28 28 27 28 26 36 26 30 30 25 19 28 31 32 34 34 36 37 39 41 41 40 43 43 44 45 46 45 43 43 45 46 47 47 46 45 45 44 42 41 40
24 26 28 28 28 27 27 31 28 26 36 34 21 28 30 31 32 33 33 34 36 37 40 39 41 43 43 43 45 45 44 41 42 44 46 45 45 44 44 44 43 41 41 40
27 28 27 24 27 32 27 26 29 36 30 23 16 19 28 30 31 32 32 34 36 37 39 40 40 42 43 43 43 46 42 40 40 39 39 35 39 40 41 42 40 41 40 40
27 29 27 23 26 22 26 26 27 25 30 29 26 21 26 26 30 31 32 32 35 38 38 39 38 40 42 43 42 40 40 37 34 33 35 38 38 39 40 40 40 39 40 39
30 29 32 20 24 27 27 27 27 36 27 34 33 27 26 27 31 31 32 34 36 37 37 38 39 40 41 40 39 38 37 32 32 33 35 36 38 38 38 38 39 40 38 38
34 33 32 25 28 30 23 23 23 27 35 30 31 26 25 28 35 34 34 35 37 38 36 37 38 39 39 38 37 34 32 31 31 32 33 35 36 37 39 39 40 40 40 40
41 29 25 28 21 22 21 19 21 23 33 31 29 26 26 28 32 32 32 35 35 35 36 37 38 38 37 36 35 31 31 32 31 31 33 34 37 36 38 39 39 39 39 39
37 33 28 27 23 21 19 18 18 19 24 26 27 23 26 30 30 30 36 36 35 36 38 39 37 36 34 35 34 31 32 30 32 31 33 33 36 35 36 37 37 35 34 32
36 37 38 34 24 23 21 20 24 22 23 22 25 25 29 29 34 36 36 37 36 40 40 39 34 34 34 34 32 31 30 30 31 30 32 32 33 34 35 35 34 34 32 31
37 41 37 35 33 33 35 33 24 23 25 26 28 28 29 33 35 36 36 37 38 38 37 35 34 34 35 35 31 30 30 30 29 28 28 31 32 33 34 31 30 30 30 28
41 39 39 34 35 28 25 25 25 26 26 28 27 28 33 33 35 37 38 38 38 36 35 34 34 35 35 31 30 31 29 29 29 27 26 27 30 29 31 31 28 29 27 27
38 41 37 35 30 27 26 28 29 30 30 30 33 35 36 38 37 36 39 38 37 36 35 35 34 31 27 27 29 29 28 28 27 27 25 25 28 29 29 28 28 26 26 26
36 42 40 36 29 26 30 27 32 31 30 38 38 39 39 38 36 37 38 38 36 35 32 27 26 24 25 25 25 25 24 25 26 28 29 31 30 28 29 28 26 26 26 24
35 36 34 33 32 31 30 31 32 29 34 41 39 39 39 37 38 38 37 35 33 28 24 21 20 19 19 21 22 22 20 20 29 33 32 31 30 29 28 26 25 24 25 27
33 34 33 34 33 28 32 34 36 40 41 41 40 39 37 37 36 35 30 27 24 19 17 16 16 17 19 19 20 19 18 19 28 31 32 33 33 28 26 26 25 25 24 27
34 37 37 35 35 39 39 41 43 43 41 39 38 36 37 34 28 27 25 21 18 16 14 14 14 16 19 20 20 19 21 24 30 34 35 33 30 29 26 25 25 24 24 26
30 31 40 38 34 33 40 42 41 40 40 39 37 35 30 27 27 25 19 17 17 17 17 16 17 18 20 21 21 21 24 27 30 31 33 33 32 30 26 26 25 26 27 25
39 37 35 35 34 37 41 41 40 39 37 34 30 27 26 25 22 19 19 17 17 18 18 19 20 21 20 21 23 24 26 30 30 33 32 32 31 28 28 27 26 27 27 25
38 35 38 38 41 40 41 40 40 38 32 28 26 25 22 19 18 19 19 18 17 20 21 22 22 23 24 24 25 25 30 31 31 31 32 33 32 30 28 27 27 27 27 25

GFSCGP_sfc_dewp_033.txt.gz
Dewpoint
27 24 22 17 19 17 16 15 14 18 19 17 16 19 22 25 26 34 36 38 40 42 44 46 47 47 47 50 49 47 46 52 51 50 47 47 46 46 47 48 47 47 48 49
26 24 21 20 20 19 16 18 23 20 21 18 18 20 24 26 29 32 34 37 39 42 44 46 48 50 50 49 47 47 45 46 46 46 46 46 47 46 46 49 49 49 48 48
24 23 22 20 25 24 25 25 24 23 23 23 22 21 24 27 30 31 33 36 38 41 43 44 46 47 46 46 44 44 45 45 47 47 48 48 48 47 45 45 46 44 45 44
23 23 23 23 26 25 26 30 28 25 23 21 23 17 23 26 28 32 34 34 37 40 42 44 45 46 46 46 45 45 44 44 46 46 46 45 45 44 45 44 43 43 44 43
26 23 27 28 27 27 30 31 29 29 27 26 25 20 21 26 32 34 35 37 38 39 41 43 44 45 46 46 45 45 45 45 45 45 45 45 44 44 43 43 43 43 43 42
24 28 28 29 29 29 30 30 30 30 29 25 29 25 22 24 31 34 36 37 38 38 39 41 44 45 46 46 46 45 44 43 44 44 45 44 43 43 43 43 43 43 42 41
25 28 30 30 28 31 30 29 28 27 28 26 34 32 36 34 33 35 36 38 38 39 39 39 39 41 43 43 44 43 43 41 42 43 45 45 44 43 42 42 42 40 39 40
28 26 28 30 29 29 29 28 29 24 26 27 27 27 30 33 35 37 38 39 38 38 37 38 39 41 40 41 41 41 41 40 42 44 43 42 43 43 43 42 41 40 39 41
31 27 29 28 28 29 27 30 29 26 32 28 28 29 32 33 36 35 35 36 37 37 37 38 40 39 39 39 41 41 39 40 39 38 36 35 37 38 38 39 40 40 40 39
30 28 28 26 29 34 30 28 27 32 23 23 24 28 32 32 32 34 34 35 37 38 37 38 38 39 40 40 41 39 39 36 33 32 34 34 36 36 39 39 38 38 38 38
31 32 28 26 25 26 28 29 29 29 29 24 23 23 29 31 34 33 34 36 36 36 36 36 37 40 39 39 37 38 32 30 30 31 33 35 35 37 38 38 38 39 39 37
32 31 26 25 27 29 28 29 30 27 26 29 28 24 29 35 36 36 35 35 37 38 37 38 38 39 39 38 36 31 30 29 30 31 33 34 34 37 39 39 39 39 39 39
36 29 27 27 29 32 26 25 25 30 30 26 22 23 28 35 35 37 35 33 36 37 37 38 38 38 37 36 34 30 30 30 30 31 32 32 35 35 37 38 38 38 39 39
40 31 28 25 24 24 23 22 21 24 27 27 27 28 28 36 37 37 37 37 38 39 39 39 38 36 34 35 35 31 30 30 30 31 31 32 35 34 35 36 37 37 38 38
37 31 33 32 27 25 24 23 21 20 22 24 25 26 29 33 36 37 38 37 40 40 39 37 35 34 34 34 35 34 31 30 30 29 30 33 34 34 34 33 34 34 33 31
37 33 32 28 32 30 26 26 28 26 26 26 28 28 34 36 36 37 37 38 38 37 36 35 34 34 34 35 35 31 30 31 31 30 30 32 34 34 34 33 32 32 30 30
39 33 30 27 33 30 25 29 26 27 27 28 26 31 35 36 37 37 38 38 37 36 36 35 34 34 35 35 35 31 30 32 31 31 31 31 33 34 33 32 32 29 28 25
34 33 32 23 27 11 29 29 31 31 31 32 35 37 37 37 37 38 38 37 37 36 36 35 35 34 34 34 32 31 28 31 32 31 30 31 33 32 33 34 30 27 24 23
40 33 26 27 25 27 28 31 31 30 33 38 38 38 38 38 37 38 38 38 37 37 36 35 35 35 31 25 23 23 23 23 23 33 34 34 35 35 35 32 28 24 23 23
40 36 28 21 17 16 28 32 33 33 27 40 39 39 38 36 30 34 38 37 36 36 35 34 23 19 19 20 21 22 20 20 26 28 34 35 36 36 35 34 29 24 24 27
28 31 24 21 18 27 34 34 35 24 28 40 40 39 36 34 35 36 37 36 36 34 20 18 16 16 18 20 21 19 19 21 28 31 33 35 36 34 35 28 23 24 25 27
27 26 28 29 24 22 36 37 29 35 41 39 38 38 37 36 36 36 35 28 23 18 16 16 16 17 17 18 20 20 19 25 30 30 33 36 36 34 28 25 24 24 26 25
30 33 30 30 29 34 38 38 41 41 39 39 38 37 36 35 30 29 27 21 19 18 18 19 18 19 21 21 21 22 24 27 31 33 34 33 33 32 28 24 24 24 24 21
33 37 33 34 35 37 41 41 40 40 39 39 38 36 37 29 29 24 20 18 18 17 18 19 20 21 23 24 24 25 28 32 31 34 33 32 31 30 28 26 25 23 21 19
35 37 34 33 37 40 41 40 39 39 39 36 36 34 29 25 21 21 19 18 19 21 21 23 23 25 25 26 26 27 29 32 31 31 30 31 30 28 26 25 24 25 23 22
39 36 31 30 39 39 39 39 39 37 34 34 29 28 23 21 20 21 19 20 22 23 24 24 25 26 26 27 28 30 32 32 31 29 28 29 29 27 25 23 24 27 26 26

GFSCGP_sfc_dewp_036.txt.gz
Dewpoint
28 23 21 16 19 18 16 18 18 18 19 16 18 21 25 34 38 39 40 42 43 44 46 47 48 49 49 52 50 51 52 53 53 52 51 49 48 46 47 48 49 49 48 47
24 22 21 19 24 24 21 22 21 21 22 17 21 22 26 32 36 39 40 41 43 44 44 45 47 51 49 51 51 47 45 46 46 47 47 48 48 47 45 46 45 44 44 43
25 22 22 26 27 27 29 25 26 23 24 23 21 22 28 31 34 37 40 42 43 43 44 45 46 48 47 46 45 45 44 45 46 46 46 46 47 45 43 43 42 43 43 42
22 23 25 28 26 27 28 30 28 25 23 17 22 18 24 29 32 35 38 41 42 43 44 45 45 45 44 44 44 44 44 45 45 46 45 44 44 42 43 42 43 43 42 41
24 28 29 27 28 27 27 30 29 29 26 25 25 20 22 32 32 34 36 39 41 43 44 44 44 45 45 44 44 44 44 44 44 44 44 45 43 44 44 43 43 42 41 41
25 29 28 29 30 29 31 31 32 31 29 24 27 27 22 29 33 35 37 38 40 41 43 43 44 45 45 45 44 44 42 42 43 44 44 43 43 42 41 42 42 41 40 42
26 29 29 29 29 30 29 30 26 26 27 25 32 32 33 35 35 36 37 38 39 40 41 43 44 44 45 44 43 42 40 40 44 44 43 42 42 41 41 42 40 39 39 41
27 26 27 29 29 28 29 31 27 22 24 24 29 29 30 35 37 38 38 38 38 38 39 40 41 43 41 41 41 41 40 41 43 39 37 37 38 39 40 40 40 40 40 41
29 27 30 29 29 29 27 29 28 27 29 25 27 30 31 35 36 37 39 41 42 39 38 39 41 40 39 40 41 40 40 36 34 34 34 35 35 36 39 39 39 39 39 40
31 27 29 28 28 30 28 28 26 29 21 22 24 28 31 33 35 36 35 37 38 39 39 39 39 40 40 40 39 37 33 31 31 32 33 34 35 39 38 38 38 37 38 38
32 31 27 29 25 25 27 28 28 28 28 24 22 22 32 33 34 34 37 38 39 37 37 39 39 39 38 37 33 30 30 29 29 31 32 33 34 37 38 38 38 38 38 38
33 30 24 26 27 29 28 29 30 26 22 28 26 23 34 35 35 35 35 37 38 38 38 38 37 36 36 36 31 29 29 29 29 30 32 32 33 37 38 38 38 38 36 38
33 28 25 26 30 31 26 27 28 32 28 25 20 22 29 34 36 36 37 38 39 39 39 38 37 35 35 35 35 31 30 29 29 30 31 31 32 36 36 37 38 37 37 37
39 31 26 25 25 25 21 22 22 27 25 25 26 26 30 36 36 37 38 40 40 40 38 37 35 34 34 35 35 35 33 31 29 31 30 31 32 35 34 36 36 36 37 36
36 30 32 31 29 26 24 23 23 21 21 22 24 28 33 35 36 37 38 39 38 37 36 35 34 34 34 35 35 36 34 32 32 30 30 30 32 34 35 35 34 37 35 33
38 31 30 24 33 31 25 25 28 27 25 26 30 32 36 36 38 38 38 38 37 36 36 35 34 34 34 34 35 36 35 33 33 32 31 32 32 34 34 35 35 34 32 34
37 31 26 18 31 26 23 27 26 27 30 29 25 32 36 36 37 37 37 37 36 36 36 35 34 34 34 34 35 30 29 31 31 31 33 33 33 34 34 34 35 36 36 29
33 32 28 20 21 4 24 31 29 34 36 36 36 37 37 37 37 38 37 36 36 36 35 34 34 34 34 33 26 25 23 24 25 31 32 34 34 33 34 35 35 33 32 28
37 30 27 16 23 20 27 30 30 28 32 38 38 38 38 37 38 36 38 38 36 36 35 35 35 34 27 21 21 22 22 22 28 31 33 34 35 35 36 36 35 35 33 25
37 32 24 27 11 9 23 31 32 31 27 39 39 38 37 35 28 31 37 36 35 35 35 32 26 17 18 18 20 21 20 22 29 31 32 34 35 36 35 34 34 32 25 28
29 25 24 19 15 24 29 34 34 25 26 39 39 38 36 32 33 35 36 34 34 30 17 18 18 17 18 20 21 21 20 25 29 30 32 35 36 35 35 33 27 25 28 27
29 25 23 23 16 20 33 35 28 32 40 39 38 38 36 36 35 35 35 27 20 17 18 19 19 19 20 21 23 22 21 24 30 32 34 33 33 33 32 25 25 26 26 25
26 29 28 29 28 32 37 35 40 41 38 38 37 37 37 34 33 29 22 19 18 18 19 20 20 22 24 25 25 25 25 27 31 33 33 32 32 31 30 25 23 24 23 20
32 37 32 32 33 37 40 40 40 40 38 38 39 38 37 32 28 21 18 17 18 20 21 22 23 24 26 27 27 28 29 31 31 32 31 30 31 30 27 25 25 24 20 19
31 36 34 33 39 40 40 39 39 39 39 38 37 35 31 24 21 19 18 19 22 23 23 24 25 27 27 27 26 28 32 34 34 33 30 28 31 31 28 26 24 25 23 21
39 35 32 32 36 37 37 39 39 38 37 35 34 29 22 21 20 20 21 23 24 24 25 25 27 27 27 26 27 29 34 34 32 31 29 29 27 26 25 25 25 27 26 26

GFSCGP_sfc_dewp_039.txt.gz
Dewpoint
28 21 20 16 20 19 20 16 18 18 18 16 19 23 29 38 41 41 42 43 44 45 46 48 48 49 51 53 54 55 55 55 53 52 51 49 48 49 48 43 45 44 44 43
24 22 23 23 27 23 23 19 19 22 24 19 23 26 30 34 39 41 42 43 43 44 45 46 48 50 51 52 52 50 49 47 49 47 47 48 46 44 44 43 43 43 42 41
23 23 25 26 28 28 28 24 24 21 23 22 24 24 31 34 38 41 42 43 43 43 44 46 48 49 49 47 44 44 44 45 45 46 46 46 46 44 42 42 41 42 41 41
21 28 27 26 25 28 27 29 26 25 21 12 23 20 28 31 34 39 41 42 43 44 45 46 46 44 43 44 44 44 45 45 45 45 44 43 42 41 42 42 42 41 41 41
23 28 27 26 27 27 27 29 27 27 25 25 25 20 24 33 33 36 39 41 43 44 44 43 43 43 43 44 43 44 44 44 44 44 44 43 43 43 43 44 43 41 41 43
27 29 28 28 29 29 30 30 32 32 29 24 27 26 23 30 33 35 38 41 42 43 44 44 44 44 44 45 43 41 41 42 44 44 43 43 42 42 41 42 41 41 40 42
28 29 29 30 29 30 29 29 25 25 26 25 30 30 30 33 35 37 38 39 41 42 43 43 44 44 45 44 43 41 41 43 43 42 41 41 41 40 40 41 40 39 38 40
26 25 27 28 28 26 29 30 25 21 23 21 29 28 30 35 37 38 38 39 39 40 41 43 44 44 43 42 41 40 42 41 37 35 35 36 37 37 38 39 39 39 40 40
27 26 29 27 29 28 27 27 28 28 28 24 27 30 32 35 37 37 37 38 39 41 40 39 41 40 40 40 40 40 37 34 33 34 34 34 35 36 38 38 38 38 39 40
31 26 28 26 28 28 25 28 26 27 19 20 24 27 29 33 35 36 37 39 40 39 39 39 40 39 39 39 38 35 31 30 31 31 33 33 34 38 38 38 37 37 37 37
31 28 25 28 25 25 27 27 28 29 27 23 21 23 28 33 34 35 37 39 37 38 38 37 37 37 37 36 30 30 29 29 28 30 32 33 33 37 38 37 37 38 37 37
33 29 24 24 27 30 28 28 27 21 21 27 25 21 34 35 35 36 37 37 37 37 37 37 36 35 35 35 31 29 29 29 29 29 31 32 33 34 37 37 38 38 37 36
31 27 23 23 28 28 27 25 32 29 27 24 18 20 32 35 36 37 37 38 39 39 37 36 35 35 35 35 36 35 33 31 29 29 30 31 31 32 35 36 37 37 36 36
37 32 24 22 25 26 20 21 26 26 25 25 24 24 34 35 36 38 39 39 38 37 36 35 35 34 34 35 35 36 36 34 32 31 31 31 31 31 33 35 36 36 36 37
33 29 30 29 29 25 23 21 21 20 21 20 20 26 31 36 36 38 39 39 37 36 35 35 34 34 34 34 35 35 34 32 32 31 31 32 33 33 34 34 35 35 37 35
37 30 29 26 31 30 23 23 24 26 23 23 30 32 36 37 38 37 37 37 35 35 35 35 34 34 33 34 34 30 28 28 29 28 32 33 33 33 34 34 34 34 35 35
34 29 23 15 29 22 15 22 26 26 28 27 30 31 36 36 37 37 36 35 35 35 35 35 34 34 33 31 28 22 23 25 25 29 32 33 33 33 32 32 35 34 34 34
32 30 24 17 19 7 18 28 28 28 33 34 35 35 36 36 37 37 37 34 34 34 34 34 34 30 28 22 19 22 21 23 25 30 32 34 34 34 34 34 33 31 31 30
35 29 26 17 19 17 22 31 33 28 28 37 36 37 37 37 37 36 37 37 34 34 34 34 31 24 18 18 19 21 22 21 28 29 31 31 33 34 34 35 35 35 34 32
34 29 23 25 9 5 18 31 32 30 25 38 38 37 37 36 30 31 37 36 34 33 29 19 17 17 18 19 21 22 21 21 26 29 30 32 35 35 34 34 35 32 25 27
28 23 22 16 14 22 26 32 32 23 20 39 39 38 36 33 33 33 36 34 30 18 18 18 19 19 20 22 24 24 23 24 25 30 32 34 34 33 33 32 26 27 26 27
30 25 22 23 16 18 31 32 27 30 37 39 38 37 36 35 37 35 33 21 18 17 19 20 21 21 23 25 26 25 25 26 27 31 33 32 32 32 31 30 26 27 27 24
26 27 27 28 27 31 33 34 38 39 38 38 38 37 38 36 34 32 20 19 18 19 20 21 22 23 26 26 27 26 27 29 30 33 32 32 31 30 29 24 24 25 24 21
32 34 30 30 30 33 35 39 40 39 38 38 38 38 37 34 29 21 18 17 20 21 22 23 23 25 26 27 27 27 29 33 33 32 33 31 29 30 30 30 27 25 21 18
32 35 33 32 35 38 39 39 38 38 38 38 38 37 35 27 22 19 19 20 22 23 23 24 25 26 27 28 26 27 30 33 31 31 32 31 29 31 28 26 24 25 23 22
36 34 31 30 34 36 35 39 38 37 37 37 35 28 24 22 20 20 21 23 24 24 24 25 26 26 28 27 27 28 29 29 32 30 30 30 28 28 26 26 26 26 26 27

GFSCGP_sfc_dewp_042.txt.gz
Dewpoint
27 22 19 16 18 17 17 14 15 18 19 17 23 30 35 39 41 42 43 44 45 45 46 48 49 52 55 55 57 59 58 58 57 55 52 48 47 47 44 43 43 43 42 43
25 20 20 27 23 23 20 19 19 22 23 20 28 30 35 37 40 42 43 43 44 44 46 47 48 50 51 53 54 54 52 51 49 47 48 45 44 43 42 42 42 41 40 40
23 23 26 28 28 26 27 22 23 21 22 23 25 25 32 37 40 42 43 43 43 44 45 47 48 49 50 47 44 44 45 45 46 46 46 45 44 43 41 41 41 41 41 41
23 29 26 25 25 27 24 28 25 23 18 17 23 18 29 33 37 40 41 42 43 44 46 46 46 43 43 43 44 44 44 44 44 44 42 41 41 40 42 42 41 40 41 42
24 27 26 25 26 27 28 28 27 26 25 26 25 20 24 34 35 38 40 42 43 43 43 43 43 43 43 44 43 44 44 44 44 44 44 43 42 43 43 43 42 41 41 43
28 29 28 28 29 28 30 31 31 31 28 24 28 27 24 31 33 36 39 41 43 43 43 43 43 43 43 43 42 42 42 43 44 43 43 42 42 41 40 41 41 40 40 41
28 28 28 30 27 29 30 28 25 25 25 24 29 29 28 31 35 37 39 41 42 43 43 43 43 44 44 44 41 40 42 43 42 41 40 40 40 39 37 38 38 39 38 39
26 23 28 28 28 26 29 27 26 22 24 23 29 27 29 35 36 39 40 41 42 42 42 43 44 44 44 42 41 40 43 39 35 35 35 35 35 35 36 37 39 39 39 39
26 25 28 27 31 28 28 26 28 28 27 24 26 29 33 36 37 38 39 40 40 40 40 41 41 40 40 40 40 40 36 33 33 33 34 33 34 35 36 37 38 37 38 39
30 26 27 25 28 29 25 29 26 26 17 16 22 25 28 34 35 37 37 38 39 41 39 39 39 38 39 38 37 33 31 30 30 31 32 33 33 35 37 37 37 37 37 37
30 27 24 27 24 25 27 26 28 28 26 21 19 22 29 34 36 37 37 39 37 38 37 36 36 36 35 31 30 29 29 28 28 28 31 32 33 34 37 37 37 37 37 37
32 28 23 23 26 30 28 27 25 20 20 26 24 22 34 34 35 36 37 37 37 36 36 35 35 35 35 35 35 32 32 32 30 30 30 31 32 32 33 35 37 37 37 37
30 26 23 22 24 27 26 27 30 27 26 24 17 17 33 35 36 37 37 37 38 37 35 35 35 34 34 35 36 36 35 35 32 31 31 31 31 31 31 32 34 36 36 36
36 29 23 21 20 25 20 21 28 25 23 23 23 22 32 34 36 37 38 38 37 36 35 34 34 34 34 34 35 35 32 31 30 29 29 30 31 31 31 33 34 34 35 35
30 27 29 29 29 25 21 20 22 21 22 19 20 25 26 34 36 38 39 38 36 34 34 34 33 33 33 33 33 30 28 28 28 27 29 31 32 31 32 32 33 34 35 34
35 29 28 28 30 28 24 23 22 22 21 23 26 25 35 37 38 39 38 37 35 34 34 34 33 33 32 31 29 24 23 24 26 25 30 32 32 32 32 32 32 34 34 34
32 28 25 21 26 19 16 21 23 26 26 26 26 28 36 36 37 37 37 35 34 33 33 34 33 32 30 27 24 20 22 23 25 26 30 33 33 33 33 33 34 33 31 32
30 27 22 15 17 4 16 24 27 25 28 30 32 33 36 36 37 37 37 34 33 34 33 33 32 27 24 19 19 21 22 23 24 28 30 32 31 32 33 33 33 32 33 33
32 27 24 15 17 15 16 30 30 27 24 35 33 35 36 37 36 35 37 35 32 33 34 33 30 22 18 19 21 22 23 23 23 26 29 29 31 33 33 32 32 33 34 33
31 27 23 19 9 5 16 29 32 29 25 34 36 36 36 36 30 34 37 36 35 34 30 19 17 18 20 21 23 24 24 25 26 27 28 30 33 33 32 32 32 31 27 26
27 24 20 14 11 20 23 31 31 23 23 37 37 37 35 34 34 33 37 35 30 19 17 19 20 20 21 23 25 25 25 25 27 29 29 32 33 32 32 31 28 27 26 28
29 27 26 21 12 17 28 31 27 30 33 37 37 37 36 34 34 36 34 23 19 18 19 20 21 22 24 26 27 25 25 27 31 31 32 32 33 32 30 29 29 27 29 25
26 27 26 26 26 29 31 33 36 36 36 37 37 37 37 36 36 33 23 20 19 19 20 22 22 23 25 27 27 25 26 29 31 31 30 29 32 31 28 26 25 25 26 23
32 32 28 28 28 31 32 36 39 39 37 38 38 37 37 35 32 25 19 18 20 21 22 23 23 24 25 27 27 26 27 30 31 29 29 29 32 29 30 30 29 26 22 19
31 33 31 31 33 36 38 39 37 38 38 38 38 37 35 30 25 21 19 20 22 23 23 24 25 26 26 28 27 27 28 28 27 30 30 29 29 27 28 28 25 27 25 23
34 32 30 29 32 32 32 36 38 37 37 38 35 31 27 26 21 21 21 23 24 24 24 25 26 26 27 28 27 28 27 26 27 28 28 28 27 25 24 23 25 27 27 26

GFSCGP_sfc_dewp_048.txt.gz
Dewpoint
28 22 16 14 15 15 16 13 11 15 20 21 19 27 30 42 45 46 46 47 47 48 51 54 56 57 58 59 60 61 61 60 61 59 56 52 49 47 47 45 47 47 46 46
25 20 22 21 19 17 17 17 18 21 21 25 27 30 33 40 43 45 46 47 48 50 52 54 56 58 58 59 59 60 59 59 59 57 52 49 48 45 44 45 47 47 47 47
20 23 27 23 22 21 22 21 22 18 23 26 26 27 33 38 42 44 45 46 48 49 51 53 55 57 59 59 59 57 58 58 55 51 49 48 48 46 44 45 44 46 46 46
25 26 26 24 24 25 21 25 23 22 20 16 25 13 28 36 38 41 44 46 47 48 48 48 46 48 51 53 53 52 53 52 51 51 47 46 43 42 45 47 46 45 47 46
26 25 25 23 26 26 26 26 25 23 22 22 22 17 26 35 36 40 43 46 48 48 47 42 42 44 44 49 49 49 47 47 48 48 47 47 46 46 46 46 45 45 44 43
27 29 28 28 30 29 32 30 29 28 26 21 21 23 11 26 31 39 43 45 46 46 44 41 42 43 45 50 50 49 47 46 47 48 48 48 46 42 40 39 37 36 36 36
27 27 28 30 29 32 30 26 21 21 21 18 29 25 18 31 33 38 42 44 45 43 42 42 43 43 45 46 48 48 46 45 46 46 45 42 40 37 36 36 35 34 32 33
21 23 25 28 28 25 26 24 22 10 17 21 29 23 27 34 35 37 41 43 41 42 43 43 43 44 45 46 47 46 45 43 42 41 39 39 37 37 36 36 36 35 35 35
24 23 27 29 30 29 30 26 30 28 31 28 21 26 31 35 36 37 40 39 40 42 43 44 44 46 46 47 47 47 43 40 38 38 37 37 38 37 37 38 39 38 40 37
30 25 26 28 29 31 30 30 26 29 23 13 11 17 17 32 34 36 39 38 41 42 43 44 45 47 46 46 46 44 39 35 34 34 36 34 36 36 37 39 38 37 37 36
30 28 28 27 25 24 30 28 28 26 26 15 12 10 30 30 35 36 38 39 41 43 43 43 43 43 43 41 39 37 34 34 35 34 35 37 35 32 32 32 31 31 32 29
32 31 30 25 27 29 28 27 27 24 21 30 27 13 28 35 36 38 38 39 42 42 41 40 39 37 37 36 36 36 38 36 36 36 31 28 29 29 28 28 29 31 30 31
32 30 28 26 26 30 27 28 27 26 30 25 30 15 29 35 36 38 39 40 41 40 38 38 37 37 37 37 36 34 34 30 26 24 25 26 26 27 27 28 29 30 31 32
36 31 28 26 22 26 26 27 26 23 25 18 21 10 23 31 34 37 39 40 39 38 37 37 36 35 34 34 32 31 28 25 24 23 23 23 27 28 29 29 30 32 32 33
35 30 28 27 26 25 24 23 26 23 21 24 16 13 10 22 30 35 39 39 38 37 37 35 34 33 32 30 28 25 23 25 25 22 21 24 29 30 30 30 32 32 34 33
35 33 31 29 29 27 25 24 23 26 24 22 21 20 20 24 28 35 38 38 37 37 35 34 32 31 29 26 23 21 23 25 25 22 23 24 28 29 31 32 32 33 32 32
35 35 32 25 25 25 33 28 24 22 25 25 23 24 29 31 32 36 38 38 37 36 34 32 31 29 27 24 21 22 23 25 24 23 21 22 25 27 30 30 31 32 33 33
35 34 34 33 27 30 17 23 24 25 25 24 24 27 28 31 34 36 38 38 38 36 34 32 32 28 24 22 22 25 23 23 22 22 22 23 25 27 28 31 31 31 32 33
32 33 33 37 22 18 12 17 19 22 17 24 25 25 33 36 37 38 39 39 39 37 34 33 30 25 21 22 23 23 21 20 20 21 23 25 28 28 30 30 31 31 30 30
31 33 36 33 35 32 18 26 33 30 24 29 30 32 36 37 36 26 40 39 38 34 33 29 23 21 23 23 24 21 18 19 21 23 26 27 28 30 30 31 31 30 29 28
37 38 38 33 37 28 23 28 33 24 24 33 34 35 37 36 36 38 40 39 35 33 27 20 20 21 22 24 23 21 20 20 22 26 28 28 28 28 28 29 31 29 27 30
33 36 36 33 35 31 26 32 31 34 35 35 38 38 40 39 39 40 39 36 31 22 20 21 21 20 22 22 22 19 19 21 25 27 28 28 28 26 25 28 29 28 28 30
31 33 34 32 31 32 32 35 37 36 35 37 38 39 40 40 38 37 34 30 21 20 21 21 21 21 22 22 21 22 23 25 27 28 27 28 28 27 26 28 28 27 27 28
33 33 34 32 28 30 33 33 35 35 38 38 40 40 41 39 37 32 23 19 20 21 22 23 21 19 20 22 23 25 27 28 27 26 26 27 29 29 27 27 26 26 26 26
33 34 32 33 32 32 33 37 39 39 40 40 40 40 40 39 32 23 21 22 23 24 26 22 22 22 21 24 25 26 27 28 26 26 26 26 26 28 28 26 26 25 25 26
33 32 35 36 34 34 36 41 42 41 40 40 37 35 34 30 28 25 25 24 28 30 24 22 22 23 23 24 24 25 25 26 26 26 25 27 28 27 27 26 26 28 28 28

GFSCGP_sfc_dewp_051.txt.gz
Dewpoint
29 25 22 19 17 15 11 9 10 10 11 12 13 21 26 35 37 40 42 44 45 46 49 51 53 54 53 56 58 61 60 61 61 60 57 54 53 52 49 46 47 47 47 47
25 25 24 17 13 14 15 14 12 13 14 19 17 21 27 37 39 40 41 43 45 47 51 53 55 57 57 58 59 60 59 59 58 54 54 53 50 46 44 46 48 47 48 47
24 25 24 18 16 16 17 18 19 16 19 17 21 23 29 33 37 40 41 43 45 48 51 53 55 57 58 58 58 59 57 57 54 51 49 49 47 47 44 46 46 47 47 46
31 31 19 19 16 19 18 22 18 17 20 15 22 14 27 32 37 40 43 45 46 48 50 52 53 55 56 56 55 52 52 51 49 49 46 47 41 42 46 46 46 46 47 45
21 22 20 19 22 24 26 24 21 18 17 22 19 11 26 32 33 36 42 44 46 47 48 46 47 48 49 51 51 51 50 48 49 47 47 46 46 47 46 46 45 44 44 42
30 27 24 26 26 25 28 25 24 23 21 20 16 17 17 27 27 34 39 42 45 47 45 41 42 43 47 50 50 49 47 46 48 48 48 48 47 45 43 41 40 38 36 35
24 23 27 27 25 27 24 24 24 23 20 19 22 21 17 29 30 32 39 42 46 47 42 40 41 42 46 48 49 48 46 45 48 49 48 46 44 41 40 39 37 36 33 33
19 23 24 26 26 24 24 22 22 15 17 15 24 12 21 32 32 35 40 43 46 44 41 41 42 43 45 47 48 47 46 45 46 45 43 42 39 39 38 37 36 36 36 36
21 20 26 27 27 25 26 22 26 23 27 26 13 20 32 32 33 36 39 42 44 41 41 41 42 44 46 47 48 48 46 44 43 41 39 39 39 40 39 38 39 37 38 33
22 21 24 27 28 29 27 28 24 24 21 16 9 12 18 28 31 35 38 41 41 40 42 42 43 46 46 47 47 49 46 41 37 37 38 36 39 37 37 37 35 34 33 31
24 24 27 26 24 19 27 24 23 24 24 21 12 12 24 23 30 32 36 39 39 41 42 43 44 46 47 47 47 44 40 37 36 35 37 39 36 33 32 31 30 29 30 29
28 26 24 24 25 26 26 24 25 28 21 24 27 16 24 27 30 32 33 37 39 41 42 43 44 45 45 44 42 39 38 37 37 37 39 30 30 30 29 27 27 30 30 31
32 25 24 24 26 28 25 24 23 25 28 25 29 19 26 29 29 31 32 35 38 41 42 42 42 41 40 40 38 39 37 36 35 31 25 26 26 25 26 26 28 29 30 31
37 26 24 25 22 24 28 24 24 25 29 24 17 15 20 25 25 27 31 36 39 42 41 40 40 39 39 39 38 34 34 32 27 23 22 23 24 27 28 29 29 31 31 32
35 30 26 24 26 24 23 22 23 23 22 25 20 14 8 14 22 26 29 34 39 40 39 39 39 38 37 36 33 32 31 27 25 23 21 22 26 27 28 29 31 31 32 31
35 31 32 30 28 27 25 24 22 21 21 16 16 16 17 19 21 23 29 33 37 38 38 38 37 37 35 33 30 30 26 24 25 21 20 21 23 24 26 29 31 31 30 30
36 34 33 26 26 25 31 28 22 20 21 21 22 21 25 24 24 24 29 34 36 38 38 38 36 35 33 30 28 24 24 24 23 21 19 20 22 23 25 25 26 29 31 30
37 37 37 32 30 28 17 20 19 23 22 20 20 21 22 24 26 29 32 35 37 37 38 37 35 33 30 27 23 25 22 21 21 19 19 20 22 24 25 27 29 30 30 30
33 36 34 36 24 20 18 15 17 18 18 16 20 17 20 32 33 33 34 36 38 39 38 36 34 31 27 23 24 22 21 18 17 17 19 21 24 25 27 28 30 30 29 29
30 33 36 35 35 31 24 24 27 26 21 22 24 26 30 33 34 32 36 38 39 38 37 34 32 26 23 23 23 21 17 16 18 19 21 24 26 27 28 29 30 30 29 27
38 40 38 34 37 32 24 27 30 23 28 30 28 27 31 31 38 39 38 39 39 37 34 30 24 22 23 26 23 20 17 17 18 21 24 25 26 26 27 27 28 28 28 30
35 39 36 39 34 31 26 29 28 35 32 33 33 34 36 38 40 39 39 38 35 32 23 22 22 24 25 24 22 16 14 15 21 24 25 26 27 26 25 27 27 28 28 29
32 34 36 33 33 33 30 30 37 36 35 36 37 36 38 40 39 38 38 35 28 22 20 24 27 29 26 22 18 18 21 22 24 26 26 26 27 28 27 27 27 27 26 29
32 33 34 32 25 27 29 31 33 34 36 36 38 39 39 38 39 37 34 25 22 24 27 32 31 26 20 20 22 22 24 25 25 26 26 26 26 27 27 27 26 26 28 28
33 34 30 31 28 27 33 38 40 40 41 40 40 40 40 40 38 30 25 24 28 32 35 31 24 22 19 21 23 22 23 25 25 26 26 27 27 28 28 28 28 28 28 28
33 30 36 36 37 36 39 41 42 40 40 40 38 37 37 34 28 28 30 33 34 34 32 27 24 24 22 20 20 21 22 23 25 27 27 29 28 29 28 27 28 30 30 29

GFSCGP_sfc_dewp_054.txt.gz
Dewpoint
29 26 25 24 25 19 18 17 17 19 17 16 15 20 26 29 34 40 39 40 41 42 47 50 52 55 53 57 61 62 60 59 60 59 58 55 55 54 52 51 51 51 50 50
27 29 26 25 23 20 14 16 11 11 10 15 13 18 21 27 29 37 39 41 43 44 48 51 54 57 57 60 61 61 60 59 59 59 58 56 54 52 50 51 51 51 50 49
32 36 35 28 16 13 19 25 26 16 12 14 18 14 23 27 31 35 39 42 44 47 49 52 55 58 60 61 61 59 59 59 59 57 54 54 53 51 49 50 50 50 49 48
32 31 31 26 17 18 26 27 25 21 22 13 25 21 30 27 32 35 39 41 43 46 50 52 56 57 59 58 60 59 59 58 56 53 52 51 47 47 49 50 50 49 50 46
28 29 27 20 19 25 29 26 28 17 16 25 25 24 29 29 29 35 39 42 45 47 50 51 55 56 57 59 59 57 54 52 52 51 51 51 50 51 50 49 48 47 47 46
23 31 30 26 23 23 30 30 25 22 23 26 26 27 25 27 29 34 38 42 45 48 49 49 51 52 52 56 56 56 51 49 51 51 52 50 51 48 47 46 44 44 42 41
25 22 23 26 22 24 25 25 25 31 31 24 15 23 27 34 37 37 39 42 46 47 47 45 45 46 48 50 52 51 48 48 50 51 51 51 48 45 43 43 43 41 40 40
22 23 22 24 22 34 32 20 31 25 29 24 27 16 24 30 31 36 39 41 45 47 45 43 43 46 48 50 50 49 47 47 49 50 48 47 44 45 43 43 40 42 41 41
28 23 32 24 21 31 25 23 26 22 24 30 19 13 32 30 31 34 39 42 45 47 43 41 43 46 48 49 50 51 48 47 48 47 46 44 44 42 41 41 42 42 41 34
34 32 33 26 26 25 24 22 26 25 25 22 12 14 25 29 29 33 38 42 45 45 43 42 43 46 47 48 49 52 50 45 42 42 43 41 40 40 43 40 39 38 36 35
30 36 27 26 24 16 25 25 21 18 27 29 27 19 30 27 30 32 36 41 44 43 42 42 43 46 48 50 49 50 48 41 40 40 41 41 42 40 36 35 35 33 34 34
26 27 27 24 23 23 23 25 23 33 23 30 32 23 25 30 32 32 32 39 42 41 42 43 44 47 48 48 48 47 44 41 39 40 41 43 41 35 34 34 32 34 33 35
30 29 28 22 24 26 24 21 21 25 33 29 35 25 26 25 29 30 31 37 39 41 41 43 45 46 46 47 46 43 41 39 39 37 39 35 32 31 31 32 33 33 33 34
41 29 24 25 20 25 26 24 21 23 36 31 28 21 21 25 25 26 31 34 38 40 40 43 44 44 44 44 41 41 39 39 36 35 28 29 28 30 33 34 33 34 34 34
34 27 22 20 20 22 25 23 21 20 23 27 27 19 16 19 26 26 28 32 34 38 41 42 42 42 41 41 41 38 37 35 32 28 27 28 31 31 32 33 35 35 35 34
35 33 32 31 28 26 26 24 23 22 21 18 21 19 20 22 23 24 26 28 30 38 40 40 40 40 40 39 37 35 34 32 30 28 25 27 28 28 31 33 34 34 34 33
35 38 37 34 28 26 29 28 24 22 21 22 22 25 24 23 24 28 28 26 33 36 39 39 40 40 39 38 35 33 30 30 27 26 23 25 27 27 30 29 29 32 34 34
38 39 41 38 32 28 22 20 18 19 18 17 17 20 20 25 28 29 31 34 35 37 38 40 40 39 37 34 30 30 25 25 25 24 22 23 26 26 28 30 31 33 34 33
36 40 39 35 30 23 21 18 17 18 19 22 22 22 24 32 31 31 33 35 38 39 40 40 38 36 32 28 27 25 23 24 21 22 22 23 27 26 28 28 32 32 31 31
29 39 40 39 35 29 27 24 23 23 28 23 23 28 29 30 36 36 36 37 37 39 39 37 35 32 28 26 26 25 25 22 21 22 24 25 27 28 28 30 31 31 31 29
39 41 38 36 36 35 28 27 28 27 33 31 30 29 33 32 41 40 39 38 39 38 36 34 28 25 25 27 27 27 24 19 20 24 26 25 27 27 29 30 30 29 30 31
37 39 36 40 34 32 28 26 28 37 38 35 34 38 42 43 42 41 39 39 36 27 25 24 24 25 27 28 28 22 18 19 23 25 26 26 28 27 27 29 30 30 29 29
34 36 39 38 37 38 30 35 39 37 36 36 39 38 38 42 39 39 38 32 25 24 22 25 29 30 30 27 24 23 25 23 26 26 26 27 27 28 27 27 28 29 28 28
32 34 39 36 28 30 31 33 37 37 39 39 40 39 40 39 41 39 30 25 23 25 32 33 33 31 27 24 23 24 25 26 24 26 27 28 28 28 28 27 27 28 29 29
35 35 32 32 30 29 38 40 41 41 42 40 40 40 40 40 37 30 25 27 32 35 35 32 29 28 26 24 25 26 23 26 24 26 27 29 29 30 28 28 28 29 29 30
34 32 40 41 39 39 41 41 41 41 40 38 36 33 31 30 28 29 32 34 34 34 34 31 27 27 26 23 20 21 22 23 26 29 29 31 31 31 29 27 28 30 30 30

GFSCGP_sfc_dewp_057.txt.gz
Dewpoint
33 28 26 25 25 24 23 21 21 21 20 25 24 29 34 37 43 40 43 39 38 39 45 45 49 49 55 60 60 59 57 58 58 57 56 56 54 54 52 51 51 50 49 49
28 29 30 29 26 25 24 23 23 20 20 20 20 21 26 40 39 34 38 44 40 47 48 50 51 53 59 60 60 58 57 58 58 57 57 54 53 51 49 49 49 49 48 48
31 32 34 32 32 31 26 26 24 22 23 15 15 20 27 29 42 41 38 44 43 47 49 52 54 59 60 60 59 58 58 58 58 58 58 53 51 49 48 48 47 47 48 46
33 33 30 31 31 28 28 29 28 26 25 18 25 25 28 30 30 40 42 43 47 48 51 53 57 58 59 60 60 59 59 58 59 59 53 51 46 45 46 48 48 47 47 45
30 32 32 30 29 30 30 29 30 30 26 26 26 26 27 29 31 33 38 41 44 49 51 54 56 57 58 59 59 58 58 58 56 51 50 47 47 48 49 49 48 48 47 45
30 30 30 33 28 27 31 29 32 34 30 25 25 27 25 27 30 35 38 42 46 49 52 56 56 57 57 57 58 58 54 49 48 49 49 48 47 45 43 42 42 42 40 40
25 27 28 33 31 30 30 29 27 27 27 26 27 27 27 32 38 38 40 42 47 50 50 53 54 53 52 51 51 48 48 47 48 49 47 43 42 40 40 40 41 39 39 40
25 25 29 30 28 29 29 31 28 24 27 26 31 27 29 33 36 37 40 43 47 46 46 47 47 48 48 48 47 46 47 47 49 46 44 42 43 42 41 40 41 40 40 40
28 28 34 32 31 28 33 35 34 29 32 24 25 29 33 33 36 40 40 44 45 44 43 44 46 47 48 48 48 47 46 48 48 44 42 41 40 39 39 40 41 42 37 32
37 31 36 36 33 29 29 34 27 29 17 17 20 21 29 31 33 38 40 43 45 45 42 42 45 47 48 48 49 49 47 45 41 41 41 39 38 38 41 40 39 35 32 32
36 33 33 35 32 29 27 25 25 24 29 22 22 22 32 33 34 36 40 43 45 45 42 42 43 47 47 48 48 47 41 40 39 37 38 38 38 40 37 35 33 30 31 31
35 36 33 33 34 27 24 26 31 26 22 28 26 24 25 29 33 34 37 42 45 44 42 42 43 46 47 48 48 41 39 38 38 38 40 41 42 38 33 31 30 31 30 32
35 29 24 26 25 30 27 24 24 27 33 26 24 25 25 28 31 33 32 40 44 42 42 42 45 47 47 47 44 40 38 38 41 43 39 40 40 30 29 30 31 31 31 31
38 32 28 24 23 26 27 26 25 25 28 26 27 27 26 25 26 28 27 36 41 41 41 43 45 46 46 45 40 39 41 40 38 36 37 33 29 31 31 31 31 32 32 32
34 28 28 24 25 27 25 28 27 26 27 26 26 26 26 23 27 25 29 29 37 39 42 43 43 43 44 41 40 38 38 36 36 32 27 31 30 29 29 30 32 33 34 33
35 31 31 31 32 29 27 27 27 25 25 23 24 23 25 25 24 24 25 30 34 41 42 42 43 42 40 39 36 36 36 35 29 27 27 29 29 27 29 30 31 32 32 32
36 34 32 29 27 26 23 26 25 26 26 25 22 25 26 25 26 25 26 29 32 39 40 40 40 40 39 37 35 33 31 29 27 26 27 27 28 28 29 29 30 31 32 33
38 36 33 28 26 16 26 27 21 23 22 21 22 27 32 30 30 31 31 33 35 38 39 40 39 37 34 31 29 26 25 26 26 25 24 26 27 27 29 30 31 32 32 31
39 36 31 24 25 27 25 24 22 22 23 25 25 30 31 31 34 34 36 38 38 40 39 37 33 28 26 25 25 24 23 22 24 24 23 25 28 29 29 30 30 30 30 29
37 39 30 29 24 18 29 25 27 25 23 31 29 29 31 30 33 37 36 38 39 37 34 31 26 25 25 26 26 25 24 25 25 23 25 27 29 30 30 30 30 30 29 29
30 31 27 25 25 29 36 29 32 20 25 34 33 40 38 38 39 39 35 28 29 27 25 25 26 26 27 28 26 24 23 23 26 26 28 28 29 28 29 30 30 30 29 29
31 30 28 31 31 25 36 28 25 35 36 36 38 41 42 40 40 37 29 25 24 23 27 28 28 28 27 27 24 24 26 26 26 27 28 28 29 28 27 27 28 29 29 27
33 38 34 33 33 39 39 37 37 36 37 39 38 39 40 41 39 27 25 24 27 30 30 30 29 29 28 26 25 26 26 27 27 28 28 28 29 28 27 27 27 27 27 25
35 36 35 34 34 32 40 40 41 41 40 41 41 41 40 39 29 25 24 33 33 33 33 32 31 29 28 27 26 25 28 28 26 26 27 28 28 28 27 27 27 26 24 24
36 35 33 33 38 40 41 41 42 42 42 35 32 33 36 30 29 32 34 35 35 34 33 31 30 30 29 27 26 26 26 28 25 26 27 28 28 28 28 27 27 27 27 28
36 35 32 31 40 40 40 41 41 37 35 32 31 32 33 33 33 34 34 34 34 34 34 33 31 27 26 26 25 24 23 23 26 28 28 28 28 28 27 26 27 30 30 29

GFSCGP_sfc_dewp_060.txt.gz
Dewpoint
32 27 25 25 27 27 26 25 24 25 27 33 29 27 33 38 41 42 47 51 52 51 50 53 53 52 53 57 58 58 57 57 57 56 55 54 53 54 52 51 51 49 49 49
31 28 29 32 32 33 31 29 26 24 24 31 25 26 34 40 40 41 40 39 40 43 43 46 49 54 58 58 58 58 57 57 56 56 56 55 54 53 51 50 49 48 48 48
30 31 33 33 32 31 30 29 25 23 25 25 21 25 29 35 39 40 40 41 41 45 47 49 52 58 59 58 58 57 57 57 56 56 56 53 50 49 48 48 47 47 47 46
32 33 31 32 31 30 28 29 27 25 22 14 24 20 28 29 38 40 41 43 44 47 49 55 58 59 59 58 58 57 57 57 56 58 56 52 48 46 47 47 47 47 46 44
29 31 31 29 29 30 30 32 29 29 27 25 26 20 21 29 31 36 39 43 45 48 50 56 58 58 59 59 58 58 58 58 58 58 55 51 47 46 48 48 47 47 46 45
27 32 30 29 31 31 29 29 33 33 30 24 26 23 22 25 27 32 38 42 46 48 52 56 58 59 59 59 58 58 57 58 57 55 51 49 47 47 47 46 44 43 41 42
27 28 28 33 27 30 29 29 25 24 25 24 28 27 25 28 30 31 36 41 45 49 55 56 56 57 57 57 57 56 54 49 49 48 47 46 43 42 41 41 41 40 40 41
24 22 28 30 29 27 32 28 26 20 22 22 30 25 26 33 33 37 40 45 49 52 54 55 56 55 55 54 54 51 48 48 46 43 42 42 41 41 41 41 42 41 41 39
27 28 37 33 34 29 31 30 35 30 30 24 23 25 32 33 34 37 40 46 48 49 53 53 52 51 49 47 47 47 47 48 44 42 41 41 41 40 41 42 42 43 41 36
30 29 34 35 34 31 27 33 30 32 17 16 19 22 28 31 36 39 40 45 46 46 48 49 50 48 48 47 47 47 47 46 42 41 40 40 39 41 41 42 42 38 35 33
34 29 28 34 30 26 27 27 28 27 27 21 21 21 28 32 36 38 40 44 46 44 45 47 48 48 48 48 47 47 45 42 40 39 39 39 40 41 40 37 36 33 32 32
34 33 29 29 32 34 29 28 29 26 20 27 24 21 26 33 34 39 40 44 46 43 43 44 47 47 48 48 46 44 42 39 37 38 40 41 41 41 39 33 32 33 31 32
34 31 27 28 28 29 30 25 26 31 29 23 22 23 27 29 33 34 39 42 45 46 42 42 45 46 47 47 42 40 39 37 39 42 41 44 44 32 31 32 31 31 30 31
36 31 26 26 25 25 25 27 25 25 25 24 26 25 26 25 27 32 33 39 44 45 42 42 45 46 47 42 39 38 40 43 44 42 42 37 33 32 31 32 31 32 32 32
32 26 28 27 27 28 28 26 27 25 26 25 24 27 25 26 26 27 30 35 42 42 42 45 46 47 41 39 40 42 42 43 40 34 30 32 31 31 30 29 29 30 33 33
34 27 28 27 30 28 26 26 26 26 25 24 25 24 27 25 27 26 28 30 38 40 44 45 46 44 43 43 42 41 38 33 28 27 28 30 30 28 30 29 30 31 31 33
34 33 29 26 26 27 25 26 25 25 26 25 22 23 27 27 26 26 29 27 39 42 43 44 44 43 42 41 40 35 28 27 26 26 28 29 30 28 28 28 30 30 32 32
36 34 30 27 25 19 28 29 27 25 24 24 28 31 30 30 33 35 35 35 39 40 41 41 40 38 36 33 29 26 24 25 26 26 26 26 27 28 29 29 30 30 32 30
39 35 30 24 25 27 26 24 17 20 22 28 30 29 32 34 34 35 38 39 39 38 36 33 30 28 26 24 24 24 23 24 24 24 25 26 30 29 29 29 30 30 30 30
36 36 32 31 21 18 27 26 26 25 22 31 31 31 30 33 32 35 34 35 31 28 26 25 25 25 25 25 24 24 25 26 25 26 31 29 29 29 30 30 29 29 29 29
29 30 27 23 20 24 29 31 30 18 21 34 38 36 36 37 37 33 29 26 26 26 26 27 27 26 26 25 24 23 24 25 28 29 29 28 29 28 29 29 28 28 28 27
28 28 28 28 19 22 34 29 25 29 36 40 40 40 39 37 31 28 26 27 27 27 27 26 25 24 25 26 29 30 31 26 27 27 28 29 29 28 27 27 27 27 26 26
30 30 30 31 30 34 37 34 37 37 38 38 39 41 39 31 27 26 29 29 29 28 27 27 27 28 29 28 28 26 27 26 27 28 27 28 28 28 28 27 27 26 26 24
36 40 36 35 35 38 40 41 40 40 40 39 40 40 39 28 27 31 31 30 30 31 31 30 29 29 29 28 25 25 27 28 27 27 27 27 27 27 28 27 27 26 25 24
36 36 34 37 40 40 40 41 41 34 34 33 32 35 29 29 33 33 33 33 32 32 31 31 31 29 27 26 26 25 26 28 27 27 26 27 28 28 27 28 27 27 27 27
35 34 32 32 39 37 39 40 37 33 33 33 32 33 33 33 33 34 34 34 34 34 32 31 30 27 25 24 23 25 27 27 26 26 27 28 28 28 27 27 28 30 29 29

GFSCGP_sfc_dewp_063.txt.gz
Dewpoint
33 27 24 25 27 28 29 27 25 26 26 32 31 29 34 45 44 49 51 53 51 51 49 52 56 55 53 53 57 58 57 56 56 55 54 53 52 52 50 50 50 50 50 49
29 26 28 31 31 31 30 29 27 28 27 29 29 28 29 40 42 47 50 52 50 49 49 51 54 52 54 56 57 57 57 56 56 55 55 55 53 52 50 50 49 49 48 47
28 29 32 31 32 29 28 29 28 27 24 27 24 26 30 40 41 44 49 50 51 49 48 49 52 52 56 56 57 57 57 56 56 56 54 52 51 49 49 48 47 47 48 46
30 32 31 31 29 29 27 30 30 27 20 19 22 19 27 35 39 40 43 42 44 47 47 47 49 55 56 56 57 57 57 57 57 56 55 53 49 47 48 47 47 47 47 46
25 31 31 29 27 29 28 31 29 29 26 24 25 19 21 29 36 38 38 41 40 44 44 45 49 55 57 57 57 57 57 57 57 57 56 52 48 47 47 47 46 47 45 44
27 31 30 28 31 30 31 31 30 31 28 22 24 22 22 26 29 36 38 39 41 46 49 51 52 57 58 58 57 57 57 57 57 57 55 52 48 47 47 47 46 43 42 42
26 27 28 32 29 30 29 27 22 22 23 21 27 26 26 27 28 31 36 39 42 46 53 56 56 57 58 58 57 57 57 56 56 56 53 51 48 47 47 45 42 40 40 40
22 21 26 29 28 26 31 26 24 18 20 20 28 25 25 30 33 34 34 40 44 47 53 55 57 57 57 57 57 57 56 51 51 50 49 46 44 44 43 41 41 42 41 39
25 24 35 35 33 28 31 29 32 28 28 24 24 23 26 31 35 38 45 45 47 50 54 55 56 56 57 56 56 53 50 47 44 44 43 41 42 42 41 42 43 44 44 42
26 23 33 34 34 32 28 33 28 30 19 16 17 20 21 26 31 38 41 46 49 51 54 55 55 55 55 55 54 49 48 44 42 41 41 40 41 41 42 45 45 44 42 37
31 26 25 33 29 27 29 28 28 28 25 20 20 20 26 30 32 36 38 44 47 49 53 53 53 53 52 50 49 48 47 43 41 41 40 40 41 42 43 42 42 41 37 34
32 28 24 26 30 32 28 27 28 24 20 26 24 21 24 31 33 37 37 42 47 47 50 51 52 50 47 47 47 47 46 42 40 40 38 41 42 41 43 44 42 35 32 33
33 29 24 24 26 32 31 28 30 31 28 24 22 23 26 26 30 33 38 41 46 46 47 49 50 49 47 47 46 43 40 38 38 40 42 44 45 43 39 35 35 31 31 31
35 30 26 24 23 26 27 26 26 27 26 23 25 23 24 26 27 30 33 40 45 46 44 45 47 48 48 46 42 38 39 41 42 43 45 43 40 38 33 32 32 32 32 31
32 28 27 27 26 25 25 25 26 26 26 24 24 25 26 26 26 26 29 34 42 45 42 42 46 47 44 42 40 40 42 45 45 44 40 38 37 32 31 31 29 29 32 31
34 26 25 28 28 28 27 26 26 26 25 27 26 24 27 26 26 26 28 31 37 43 42 45 47 45 42 42 43 42 43 44 40 37 34 33 31 30 30 30 29 31 30 32
32 32 27 23 27 27 24 26 26 26 26 25 23 25 26 26 28 31 30 29 37 42 45 46 45 42 42 42 42 42 39 37 31 32 30 31 31 29 29 30 29 29 30 31
33 31 28 25 25 18 25 30 27 26 24 24 28 29 29 32 36 38 38 38 41 44 44 44 44 42 41 39 33 30 28 30 28 28 27 28 29 30 30 29 29 29 31 31
37 33 28 24 25 26 28 27 24 21 21 28 29 32 33 34 35 36 35 33 35 36 34 33 33 31 29 25 24 24 24 24 25 26 26 28 31 29 29 29 30 29 29 29
35 35 30 25 21 20 29 28 25 24 20 28 30 33 33 32 24 33 30 28 26 26 26 26 25 24 23 23 23 24 25 24 25 29 32 31 29 28 29 29 29 29 28 28
30 30 27 23 21 27 29 29 27 18 22 31 31 31 33 31 32 30 28 27 27 26 25 25 24 23 24 24 24 24 26 26 28 30 30 28 28 28 28 28 29 28 27 26
30 29 26 24 18 24 32 30 22 28 37 38 38 38 36 31 30 29 28 27 26 25 24 23 23 23 26 29 31 31 26 27 29 28 28 28 28 27 27 28 28 27 27 26
27 31 31 30 30 34 35 30 35 38 39 39 39 39 32 30 28 29 28 28 26 25 24 26 28 30 29 27 28 26 27 26 27 27 27 27 28 27 27 27 27 27 26 25
35 37 32 32 35 36 38 40 40 39 39 40 41 35 31 28 30 29 28 28 28 29 29 28 29 28 28 27 26 26 27 28 27 27 27 27 26 26 26 27 27 27 26 26
36 37 36 36 38 39 39 40 36 35 35 35 36 34 29 31 30 30 30 31 31 30 30 30 29 28 26 26 26 28 29 29 28 28 27 27 27 27 28 28 27 28 28 28
36 36 34 33 38 36 38 39 36 35 34 34 32 32 33 32 31 32 32 32 31 31 31 30 26 26 26 27 30 31 31 30 29 27 27 28 28 28 28 28 28 30 30 30

GFSCGP_sfc_dewp_066.txt.gz
Dewpoint
32 26 25 24 26 26 27 27 26 26 26 28 29 29 42 44 48 51 52 53 52 53 53 54 56 56 54 54 57 57 56 55 55 55 53 52 52 52 52 50 50 50 49 48
28 25 27 29 30 29 30 29 26 28 26 28 30 29 30 44 47 48 52 53 52 52 50 52 55 55 53 53 56 57 56 55 55 54 54 53 52 52 50 50 50 50 49 48
27 27 30 31 30 30 28 27 27 26 25 28 27 25 29 37 44 44 49 52 53 51 50 49 53 55 53 54 56 57 56 56 55 55 55 53 53 50 49 49 48 48 48 47
28 31 30 30 29 29 26 29 30 28 23 19 22 18 25 33 40 41 44 49 51 51 50 49 51 54 53 54 56 57 57 56 56 55 54 53 52 49 49 48 47 47 47 46
24 31 30 29 28 29 27 31 31 28 25 26 23 19 20 34 37 39 41 46 48 51 50 49 49 53 54 55 55 56 56 56 56 56 55 55 53 49 48 47 46 46 44 43
26 31 31 30 29 29 31 31 28 28 27 22 23 22 21 27 33 36 40 41 45 44 47 47 48 53 55 55 55 55 56 57 57 56 56 55 52 48 47 46 46 44 43 41
26 27 28 31 27 30 28 25 21 20 22 20 26 25 25 26 26 32 38 40 41 42 46 47 51 55 55 56 56 56 57 56 57 56 57 55 51 47 47 46 44 41 41 40
21 17 26 28 26 24 29 25 23 17 19 19 26 24 23 29 32 34 33 39 40 42 47 50 52 55 56 57 57 57 57 56 56 56 56 53 50 49 47 45 41 41 41 40
23 22 31 34 32 28 30 26 28 26 26 25 23 22 20 27 34 38 42 40 41 43 48 52 54 55 56 56 57 57 57 55 54 54 52 49 49 46 44 42 42 44 42 43
25 21 31 32 33 32 27 32 26 27 20 17 17 19 18 22 27 35 42 43 45 46 48 53 55 55 56 57 57 57 55 53 49 48 48 46 43 42 42 43 44 44 44 43
27 23 23 32 29 26 29 27 27 27 25 19 19 18 25 26 29 32 36 41 46 49 51 53 55 55 56 57 55 54 51 46 44 44 43 43 41 42 44 44 44 44 44 44
30 26 20 24 30 29 29 28 28 25 21 25 23 21 24 25 28 33 36 38 46 49 52 53 54 54 54 53 53 51 49 44 41 40 42 42 41 41 43 43 44 44 41 38
32 25 20 20 24 31 30 29 29 29 27 25 22 23 25 27 27 31 33 38 43 47 50 51 52 52 51 50 50 48 44 40 39 42 42 41 42 44 43 44 43 40 34 32
34 29 23 19 21 25 28 27 29 28 26 24 24 23 23 24 26 28 29 34 41 46 48 50 50 50 48 48 46 43 45 43 43 43 44 44 44 43 40 36 33 32 33 32
31 24 26 26 26 24 23 23 26 25 25 23 24 24 25 26 26 26 27 28 40 45 45 47 48 48 46 44 44 44 44 44 44 44 44 44 40 35 34 33 32 32 32 31
32 25 25 28 27 28 26 27 26 26 26 25 26 25 27 28 25 25 27 27 32 42 45 43 47 46 46 44 44 45 45 45 45 44 41 37 35 31 31 31 31 32 31 32
30 30 26 23 26 26 24 26 26 26 27 26 25 26 25 25 30 35 37 35 35 40 43 44 46 44 44 45 44 44 44 43 40 35 33 30 31 31 30 31 30 29 30 32
32 29 27 25 24 15 24 30 28 27 26 25 25 27 27 30 36 34 34 39 43 44 45 44 43 42 43 42 39 37 34 32 30 30 28 30 31 31 30 29 29 29 30 30
35 31 27 25 24 23 25 28 26 24 23 25 26 31 34 35 36 35 30 29 32 34 34 34 35 34 30 28 28 27 27 25 26 28 28 29 31 29 29 28 29 30 29 29
34 33 29 25 21 19 27 30 25 23 21 28 31 34 34 30 23 27 27 28 27 26 26 26 25 25 24 23 23 23 24 27 28 30 31 31 30 30 29 29 30 29 28 27
31 29 26 22 21 27 31 27 25 19 23 29 32 34 32 26 27 28 28 27 26 25 24 24 24 24 25 25 25 25 27 27 30 31 30 29 29 28 28 28 28 28 27 27
32 30 25 24 21 24 31 29 22 27 34 34 33 34 35 30 30 29 27 26 24 22 22 23 23 26 29 30 29 27 26 28 29 28 28 28 28 27 26 27 27 27 27 26
31 33 32 31 31 35 33 30 30 33 35 37 37 37 32 30 29 28 26 25 24 23 25 29 28 26 27 27 28 27 27 26 28 28 28 28 27 27 26 26 26 26 26 26
33 35 31 31 33 34 36 38 37 38 38 39 39 33 32 29 29 27 26 25 26 28 28 28 27 26 26 27 28 29 30 29 28 28 28 28 27 28 27 28 28 26 25 26
35 36 34 33 38 38 39 39 37 37 39 38 34 32 31 30 28 27 27 28 28 29 29 28 26 26 27 30 29 29 28 27 26 26 26 26 26 26 26 27 27 27 27 27
37 35 34 32 35 35 35 38 37 37 36 35 31 31 31 30 29 29 29 29 30 29 25 26 27 28 29 26 23 24 25 24 23 22 23 24 24 23 23 22 22 25 26 27

GFSCGP_sfc_dewp_069.txt.gz
Dewpoint
32 29 28 27 28 25 26 26 26 27 27 27 28 31 41 46 50 50 50 50 51 53 52 53 55 56 56 57 57 59 59 59 58 58 59 59 59 58 58 57 53 52 51 52
29 28 28 27 28 28 29 27 26 27 27 29 28 28 35 43 47 49 50 51 50 51 53 53 55 57 57 56 57 59 58 58 58 57 57 57 57 56 56 53 52 51 51 51
29 28 30 31 31 29 29 28 28 26 27 28 28 25 29 37 44 48 50 51 52 52 52 53 54 56 57 57 57 58 58 58 58 58 56 55 55 53 52 52 50 50 50 49
29 30 30 31 30 30 27 29 28 28 25 20 23 18 23 30 38 44 47 50 52 53 53 52 53 54 56 56 58 58 58 58 57 57 57 55 54 52 52 50 50 50 51 49
26 31 31 30 30 30 29 31 30 28 25 24 24 19 21 30 32 37 43 46 50 52 53 52 51 53 55 57 57 59 58 57 57 57 57 56 55 55 53 50 50 50 49 48
27 31 31 31 31 30 32 31 28 29 28 24 24 22 21 23 29 34 37 43 46 50 52 52 52 52 54 57 58 59 58 57 57 57 57 56 55 54 51 49 49 48 47 46
26 27 29 31 28 30 29 28 24 24 25 22 27 25 25 28 28 30 33 41 44 48 51 52 50 51 54 56 57 57 57 57 58 58 57 57 56 54 52 50 49 48 46 44
23 20 26 30 28 26 28 27 27 15 19 19 26 23 22 29 30 34 37 37 42 45 48 49 50 52 54 56 57 57 56 57 58 58 57 57 56 54 52 50 49 48 46 44
25 21 29 33 32 30 31 28 28 28 27 27 24 24 23 26 31 35 37 43 39 43 45 46 49 52 54 56 57 57 57 57 57 57 58 57 55 54 52 51 50 48 46 43
28 23 31 33 32 33 30 33 28 29 21 18 19 20 20 23 25 32 37 41 43 43 44 47 49 53 55 56 57 58 58 57 57 57 58 57 55 55 52 50 47 45 44 44
28 28 25 32 30 29 31 29 28 28 26 22 20 20 28 26 28 32 35 39 43 46 46 48 52 53 55 56 57 57 57 57 56 56 56 55 53 52 49 48 46 45 47 45
32 31 26 26 29 30 29 30 30 30 24 27 25 23 26 29 29 30 35 38 41 47 48 51 53 55 55 56 57 57 56 55 54 52 51 49 47 47 48 46 46 46 45 47
33 28 22 20 25 31 30 29 29 30 30 27 30 25 27 27 28 30 32 35 39 46 49 52 54 55 55 56 56 56 53 49 46 46 46 47 46 45 45 45 46 46 44 42
35 30 26 21 21 27 29 30 30 30 30 28 27 26 27 27 27 29 31 32 33 43 47 51 53 53 54 55 54 52 49 46 45 45 45 45 44 45 45 44 43 39 37 35
35 28 28 25 23 26 27 27 29 28 29 28 27 25 26 27 28 29 29 29 30 34 44 49 51 52 51 50 50 49 46 46 46 46 45 45 44 42 40 38 36 37 36 33
34 30 30 27 28 26 26 26 28 28 26 25 26 26 28 29 29 27 30 34 31 32 37 46 50 49 48 47 47 46 46 46 46 45 43 42 40 37 35 34 35 36 32 32
33 32 30 26 27 28 28 29 28 28 28 29 26 28 29 27 27 32 36 37 41 42 43 44 48 48 46 46 45 46 45 45 44 43 39 35 32 31 34 34 31 31 33 34
34 32 31 30 27 25 28 30 28 29 29 29 28 28 28 28 35 34 33 39 43 45 44 45 45 45 45 45 45 44 41 38 35 32 30 31 33 32 32 31 32 33 32 32
35 33 30 31 27 26 25 28 29 29 23 29 28 27 32 36 36 34 30 32 36 39 40 41 41 40 40 39 38 36 33 29 27 27 30 32 33 30 33 34 31 31 32 32
33 34 35 28 28 24 29 28 29 27 25 28 29 33 36 36 33 31 30 30 31 32 33 32 32 32 33 33 33 30 26 26 28 30 31 32 32 31 30 30 30 31 31 30
33 32 31 28 32 30 31 28 29 29 28 28 32 35 37 30 32 31 30 28 28 28 28 29 29 29 28 28 28 28 31 31 32 33 31 29 29 28 29 29 30 30 30 31
33 32 32 30 32 28 33 26 28 34 33 32 35 37 37 32 31 30 28 27 26 26 26 26 26 25 26 28 29 28 28 29 28 28 28 28 29 27 28 29 30 29 30 30
34 35 34 33 34 39 34 35 34 35 36 37 36 37 34 32 30 28 26 25 24 25 26 28 28 29 29 28 27 26 27 27 28 28 28 27 26 24 24 23 23 23 22 24
35 37 36 35 35 35 37 36 38 36 38 39 39 35 33 31 29 27 25 24 27 28 27 26 26 27 28 29 29 28 29 28 25 24 23 23 21 21 21 19 19 22 24 25
36 37 35 35 35 39 39 41 39 39 41 38 35 34 33 31 28 26 25 27 28 27 26 25 27 28 27 26 25 23 23 23 21 20 18 19 20 21 21 20 22 23 23 25
38 36 35 35 37 36 34 40 41 39 40 35 33 32 31 30 27 27 27 29 28 26 26 28 28 25 22 22 22 20 20 17 16 16 17 21 21 21 21 20 21 22 22 22

GFSCGP_sfc_dewp_072.txt.gz
Dewpoint
32 29 27 22 23 23 23 22 22 22 26 26 25 25 31 44 45 43 44 44 49 48 50 51 53 53 53 54 54 57 59 62 62 59 56 57 60 61 62 62 61 59 54 55
30 28 26 26 26 26 24 24 23 24 26 28 25 24 26 40 44 44 44 44 44 50 48 50 51 53 54 54 56 57 58 61 60 55 55 58 60 61 61 59 58 56 55 54
25 26 28 27 27 26 25 25 25 23 27 28 27 23 26 32 41 44 45 45 46 45 50 49 51 52 54 53 55 55 57 58 59 58 55 58 59 59 59 58 55 53 53 52
25 26 28 28 25 27 25 26 26 25 26 19 25 14 20 26 34 40 44 46 46 47 46 49 50 51 54 55 55 55 55 57 59 60 57 57 55 56 57 57 54 50 51 51
24 26 28 26 27 28 26 28 28 28 26 24 23 16 18 25 25 28 38 44 47 49 49 47 49 51 52 55 56 58 58 59 60 61 60 58 57 57 57 55 53 51 51 51
23 29 29 27 29 29 30 30 30 30 27 22 22 20 15 18 22 25 29 35 44 48 49 50 49 50 51 57 58 59 58 58 59 60 60 60 59 57 55 54 53 52 51 51
24 25 27 30 28 30 30 29 25 25 23 21 25 23 20 20 25 28 29 31 37 44 48 50 50 51 51 54 58 58 58 57 59 59 60 60 59 58 55 54 53 51 49 49
22 21 25 27 25 23 27 27 25 17 20 19 24 18 18 26 28 28 34 36 37 40 44 48 50 52 52 54 57 57 57 57 58 59 59 59 59 58 56 55 52 51 50 49
22 19 23 27 28 27 30 27 28 25 29 25 18 20 20 22 23 30 32 37 40 39 41 45 49 52 53 55 56 57 56 56 57 58 59 59 59 58 57 56 56 53 52 49
24 20 24 30 31 32 29 29 27 27 21 18 16 18 17 18 21 28 25 27 39 41 41 43 45 50 53 54 55 57 56 55 57 58 58 57 58 58 57 57 55 53 51 48
24 25 29 32 29 25 30 28 27 26 25 22 19 19 21 20 22 26 27 33 35 42 43 43 45 48 51 54 55 56 55 54 56 58 57 57 58 58 57 55 53 51 48 47
26 26 23 23 28 29 27 26 28 26 23 27 27 21 23 25 27 29 30 31 35 39 44 46 47 49 51 53 55 55 56 56 56 57 57 58 56 54 51 51 49 49 48 48
28 26 23 22 25 30 28 28 28 28 30 24 29 23 26 27 29 29 30 30 34 38 42 47 50 51 52 53 54 54 56 56 56 56 55 51 50 50 50 49 49 48 48 48
34 26 24 21 18 18 23 22 25 25 28 23 22 22 21 25 26 26 27 31 33 34 37 44 49 52 53 54 55 55 56 55 53 52 51 50 49 48 47 47 46 45 43 41
31 24 24 21 18 17 19 17 21 23 23 22 23 19 20 25 26 27 28 30 30 30 32 39 46 51 53 55 56 55 53 51 50 49 47 47 47 46 44 43 43 42 39 39
32 26 27 25 23 23 21 21 21 24 24 23 25 22 23 25 28 30 30 29 30 31 33 36 44 51 52 53 54 51 50 49 48 48 47 46 44 42 41 40 39 39 38 36
33 29 29 24 26 27 30 28 24 25 27 27 24 24 25 25 28 30 31 34 36 39 42 43 46 50 51 52 50 50 48 48 47 45 44 42 39 37 36 34 33 34 35 37
34 33 32 29 32 31 25 28 26 26 26 27 27 27 26 25 30 34 35 38 43 44 45 46 48 49 50 50 50 50 48 46 45 42 38 34 33 34 34 33 33 37 39 36
37 35 34 37 28 24 25 26 28 28 26 26 25 25 23 28 33 34 35 38 42 44 45 46 47 48 48 47 46 44 42 40 38 34 30 31 33 33 35 38 39 35 33 32
35 37 36 32 37 32 26 26 29 28 28 26 26 28 29 34 33 30 37 38 39 40 40 41 43 43 43 43 41 38 36 33 30 29 32 33 34 35 36 34 32 31 30 28
35 36 37 34 38 29 31 30 30 27 29 29 28 29 34 34 33 37 37 37 37 37 37 39 40 40 40 40 37 33 30 28 32 34 32 32 32 31 30 29 30 30 30 31
34 35 37 36 37 34 32 28 28 32 36 33 34 35 38 37 35 37 35 35 35 35 35 36 36 35 35 34 33 31 31 31 31 31 30 29 29 25 27 30 31 29 28 27
34 36 35 34 33 38 34 33 34 36 33 35 35 37 39 36 35 34 34 34 34 34 32 32 32 32 32 31 31 30 30 29 29 29 29 27 25 24 22 24 22 21 20 23
35 38 38 36 32 35 38 35 37 34 35 35 37 38 38 35 34 33 32 31 32 31 31 31 31 29 29 29 28 28 29 30 27 25 25 23 20 19 17 15 17 21 24 24
33 35 35 35 35 37 38 40 38 37 39 40 39 38 37 35 33 32 30 31 31 30 29 29 30 29 28 27 26 26 25 25 22 20 18 18 19 20 20 19 22 23 23 24
36 35 37 37 37 39 34 40 42 40 40 39 38 36 36 34 32 31 30 31 29 28 28 29 28 27 25 23 21 19 18 17 16 15 17 22 21 21 20 19 22 22 21 21

GFSCGP_sfc_dewp_075.txt.gz
Dewpoint
31 27 25 23 24 21 21 20 19 20 23 23 22 22 23 37 39 41 39 45 44 44 50 52 52 52 51 53 52 53 55 59 61 61 56 54 54 61 63 62 62 61 59 59
28 26 25 25 21 20 22 21 21 22 22 25 23 22 24 33 37 41 42 41 44 45 47 50 52 53 50 51 51 52 54 59 60 56 53 52 54 60 62 62 61 60 58 57
26 24 25 25 22 23 24 24 24 24 23 25 23 21 21 27 35 39 42 41 43 44 46 47 50 52 52 51 52 52 55 58 60 55 51 52 59 58 60 60 59 58 57 57
25 23 25 25 23 25 23 24 24 24 23 25 25 18 27 22 29 36 40 42 41 44 45 46 49 51 52 53 55 55 55 58 59 61 54 55 58 56 57 59 58 56 56 55
22 22 24 25 24 25 25 27 25 26 25 23 19 12 18 17 20 27 35 41 42 43 45 46 47 48 51 53 54 55 55 55 57 59 60 55 55 55 59 59 57 56 55 54
21 22 23 24 25 26 27 27 27 28 26 23 19 18 17 16 14 21 25 35 40 43 44 44 47 47 49 56 57 57 55 54 56 61 61 59 57 56 57 57 55 55 54 52
22 22 25 26 27 28 27 28 26 25 23 23 24 19 18 24 19 23 23 27 35 41 45 45 43 46 48 51 55 57 55 55 56 60 61 61 60 59 58 57 55 55 53 52
20 19 23 26 26 26 26 26 26 24 23 21 24 16 16 20 21 21 23 27 30 35 42 45 46 46 47 52 55 56 55 56 56 58 60 60 60 59 58 57 56 56 54 54
20 18 21 24 25 25 25 25 26 26 24 24 20 18 20 19 18 20 23 28 33 37 37 40 45 49 49 51 53 57 56 55 56 57 60 61 60 59 59 58 58 56 55 52
21 20 20 23 24 25 27 28 26 25 22 24 17 18 15 18 18 23 23 25 34 37 38 39 41 46 50 52 52 57 56 54 55 56 59 60 59 59 59 59 58 57 56 55
22 24 22 24 25 23 25 26 26 24 26 25 22 17 25 18 19 21 23 25 27 34 38 40 42 44 48 52 53 55 55 53 53 56 58 59 59 59 59 58 57 57 55 51
25 25 23 22 23 23 23 25 25 26 22 24 24 22 24 23 23 25 25 25 27 31 35 40 42 44 46 50 52 55 56 54 53 56 58 59 59 57 54 52 52 52 50 50
26 24 22 21 22 26 25 25 25 27 27 25 32 26 21 22 25 25 26 25 25 31 33 39 43 45 47 50 52 54 55 54 53 57 58 56 52 52 50 50 50 50 49 49
35 25 24 22 20 22 23 21 22 24 31 27 24 20 19 19 23 26 26 26 26 26 31 37 42 45 48 50 53 53 55 55 56 56 55 53 52 50 49 49 49 48 47 46
31 25 23 20 18 17 16 18 19 19 22 24 22 19 16 18 21 23 25 27 27 26 26 32 37 45 49 52 53 53 56 57 56 54 52 51 50 49 49 48 47 46 44 44
31 28 25 22 21 18 17 15 17 16 16 17 18 18 20 22 21 22 23 25 27 28 29 31 35 42 50 53 55 55 54 53 52 50 48 49 49 48 45 44 44 43 41 40
32 32 27 27 22 22 27 21 19 19 19 21 21 23 23 21 21 24 24 24 30 33 38 39 39 46 52 54 53 51 51 51 50 49 48 47 46 44 42 39 39 38 38 37
34 32 32 33 34 29 25 24 22 22 20 22 22 23 22 23 23 24 32 33 35 40 42 44 47 50 52 52 51 50 49 48 47 45 44 43 42 39 37 36 35 36 37 39
30 35 35 36 31 26 21 25 26 23 22 23 23 23 24 23 29 30 33 36 41 44 46 47 49 50 51 50 50 48 46 46 44 43 41 39 37 35 34 36 37 40 39 36
26 36 38 36 31 28 27 26 27 26 28 25 25 26 26 24 30 24 36 40 42 43 44 46 48 49 49 48 48 46 44 42 40 37 35 34 33 35 36 38 38 35 33 29
37 37 38 36 36 29 25 26 28 28 29 27 26 26 27 26 30 39 39 40 41 41 42 44 44 45 45 44 43 40 39 37 35 33 33 35 35 35 35 33 32 29 28 29
36 35 38 37 38 34 32 31 29 33 35 33 33 31 33 35 40 40 39 39 39 39 40 41 42 42 42 41 40 37 35 34 34 34 33 32 32 29 29 30 29 28 28 30
32 34 36 34 34 37 35 33 37 34 35 35 35 32 35 41 38 38 37 38 38 38 38 39 38 38 37 36 35 34 34 34 33 32 31 31 29 26 25 26 25 24 20 24
24 26 34 33 31 34 35 37 36 36 37 35 37 35 38 39 37 37 37 37 37 37 36 36 36 35 35 34 33 33 32 32 30 30 29 26 24 21 18 14 17 22 25 25
27 29 32 31 30 31 36 39 39 37 38 36 37 36 38 38 36 35 35 35 35 35 35 34 35 34 32 31 30 30 30 30 28 25 22 21 19 21 20 19 23 24 24 25
27 28 34 35 35 36 35 38 40 40 39 39 39 37 37 37 36 35 34 34 34 34 33 33 32 31 29 28 27 26 25 23 21 19 19 24 24 22 20 19 25 22 24 23

GFSCGP_sfc_dewp_078.txt.gz
Dewpoint
30 28 25 24 26 24 21 21 18 20 24 24 24 17 23 34 35 39 40 40 44 48 53 54 54 55 55 55 55 54 54 55 55 58 55 55 55 60 61 61 60 62 62 61
28 27 26 24 24 22 20 19 19 21 21 25 22 19 24 32 34 39 42 40 43 49 49 52 53 54 54 54 55 56 56 57 58 58 56 54 56 59 61 61 62 62 61 61
27 25 27 23 23 22 21 21 23 23 22 25 24 20 21 28 32 40 40 45 43 46 49 50 51 53 53 54 54 55 56 58 58 59 58 55 58 60 60 61 61 60 60 59
23 24 23 24 24 22 22 22 23 22 22 20 31 22 22 25 30 34 41 40 44 44 48 50 51 52 51 52 53 53 53 58 59 60 54 53 53 56 58 60 60 59 59 58
23 22 23 22 23 23 23 25 27 25 24 24 26 24 17 24 26 29 37 42 43 44 46 47 49 52 52 52 52 53 54 57 58 60 60 55 58 58 60 60 59 57 57 57
21 21 22 21 24 24 24 25 27 26 26 24 22 21 22 26 24 23 33 39 42 44 45 46 48 50 51 54 54 55 56 57 58 60 60 60 58 57 57 58 58 57 57 56
20 19 20 21 22 25 25 26 25 28 27 25 24 23 24 28 25 22 24 33 41 43 45 46 46 48 51 53 55 56 56 55 57 60 60 60 59 58 58 58 57 55 55 55
20 18 19 22 25 25 25 26 28 25 30 29 32 22 15 23 22 24 23 27 36 41 45 45 47 47 48 52 55 55 55 54 54 60 60 60 60 58 59 58 58 56 55 54
20 18 19 22 25 25 26 25 27 27 27 31 29 29 27 21 19 19 20 25 32 36 41 45 45 48 49 50 54 56 55 55 55 58 61 61 60 60 59 59 58 57 56 55
24 23 21 20 23 25 25 27 27 26 26 23 17 20 28 27 21 21 23 29 35 40 41 41 44 48 49 51 52 56 56 55 56 57 59 60 60 61 60 59 58 58 57 56
24 26 23 20 21 21 22 24 30 27 26 27 27 22 33 29 26 25 27 29 32 40 40 42 43 45 50 51 53 55 56 56 56 56 58 60 60 60 60 59 58 57 55 52
26 28 24 22 22 22 22 25 27 28 23 30 33 27 26 30 28 27 29 28 32 33 37 40 43 45 47 52 52 54 56 56 56 56 58 60 60 59 59 56 54 52 50 49
28 26 25 22 22 24 23 22 24 27 27 27 31 26 28 24 25 28 30 29 29 33 33 38 42 44 45 49 54 54 56 56 56 55 59 59 58 56 55 53 52 51 50 49
40 28 25 24 24 24 22 20 21 27 31 29 28 25 22 22 24 25 29 34 32 31 29 33 40 44 47 50 52 54 57 57 58 59 58 56 54 53 51 50 49 49 49 48
36 29 27 23 21 19 21 21 21 20 21 23 24 22 22 22 20 29 30 32 30 28 28 29 33 44 47 50 54 55 58 57 57 55 54 51 50 50 49 49 49 48 47 46
34 29 28 27 22 22 20 19 20 20 18 17 20 20 20 20 21 27 25 23 24 29 30 33 33 41 49 52 54 56 56 54 53 51 49 50 50 49 49 47 47 45 44 44
37 32 30 28 26 22 23 23 19 17 19 20 19 23 23 23 23 26 28 29 27 28 34 38 40 40 53 55 54 52 51 51 49 49 49 49 47 46 45 44 44 43 42 41
35 34 33 31 34 24 25 25 23 23 22 23 21 22 22 23 23 24 31 34 33 37 40 43 45 52 53 52 51 51 50 49 48 48 47 46 45 44 42 41 40 39 39 38
38 35 36 33 29 27 24 25 25 26 25 25 24 23 23 23 31 29 32 36 40 43 44 46 49 52 52 50 50 48 47 47 46 45 44 43 42 40 39 38 38 38 40 41
36 37 33 37 30 28 32 28 33 30 26 27 26 29 29 28 35 33 37 40 44 45 46 48 50 51 50 49 47 46 45 44 43 43 43 42 39 37 36 38 40 42 40 38
35 36 33 33 35 32 30 28 32 27 31 33 31 33 36 31 37 39 40 41 42 44 45 48 49 49 50 48 47 45 44 42 42 40 38 36 35 36 38 40 38 35 33 36
36 36 36 36 35 31 34 33 29 35 40 38 36 38 42 42 42 42 41 41 41 41 44 45 46 46 46 45 45 42 40 38 36 35 35 36 37 34 34 35 31 31 34 34
33 34 36 34 35 42 40 37 40 41 42 41 42 39 39 44 41 40 40 40 39 40 42 43 43 43 43 42 41 38 36 35 36 36 35 33 31 31 30 31 31 29 27 29
23 34 37 38 34 36 43 45 41 40 41 40 42 41 41 42 41 40 39 38 38 39 40 40 40 38 38 38 37 36 36 36 33 33 32 31 28 25 23 20 24 28 29 30
29 29 29 31 32 33 33 40 42 42 43 41 40 39 40 43 40 38 37 37 38 38 38 38 38 37 35 36 35 34 34 34 32 31 27 24 25 26 26 23 26 27 25 27
28 27 32 37 37 39 38 40 46 44 39 38 40 40 40 41 39 38 37 38 37 37 36 37 36 34 32 31 31 31 31 29 27 23 25 29 29 27 26 24 24 27 25 24

GFSCGP_sfc_dewp_081.txt.gz
Dewpoint
32 28 27 27 27 27 26 25 27 30 30 30 27 30 41 43 43 46 47 51 51 51 53 54 53 54 54 54 54 54 54 54 53 51 49 48 49 57 57 58 59 59 59 60
30 27 29 29 26 25 25 23 21 22 25 25 24 22 30 38 41 42 43 45 48 52 52 52 53 53 53 53 53 54 54 54 52 52 48 51 53 56 57 59 59 59 60 60
28 29 29 28 26 25 24 22 22 22 25 24 27 25 25 32 40 39 40 45 49 51 52 52 53 54 53 53 53 52 53 53 52 54 53 55 56 57 58 59 59 60 61 60
25 28 27 27 26 24 23 25 24 27 23 21 28 22 25 31 37 40 39 43 48 49 51 52 52 53 53 52 53 51 52 52 54 56 56 56 53 55 57 58 59 60 59 58
22 24 26 25 24 25 25 28 30 30 26 25 25 26 25 27 31 39 42 41 44 48 49 50 52 53 53 51 52 52 54 56 56 57 57 56 54 56 58 59 58 58 58 57
22 24 23 23 24 25 27 27 28 30 27 24 25 27 25 25 30 32 40 44 43 47 49 49 50 51 52 51 52 53 53 55 57 58 58 57 53 56 57 58 58 57 56 56
23 23 22 22 23 25 25 24 26 27 27 26 34 31 26 28 27 31 40 41 44 44 48 49 49 49 50 50 51 52 51 52 57 58 58 58 56 56 57 57 57 56 55 55
22 21 21 22 22 23 24 25 28 24 27 32 38 30 26 29 28 25 26 39 42 44 46 48 49 50 51 50 50 50 50 51 55 58 58 59 58 57 57 58 58 57 56 55
21 20 23 21 25 26 28 26 28 32 36 32 33 31 32 29 25 24 21 23 39 43 44 46 47 49 50 51 52 50 50 52 54 57 58 58 59 57 58 58 58 57 56 55
28 24 23 21 24 27 25 30 29 29 28 28 26 28 27 27 27 26 24 32 36 37 43 45 46 48 50 51 51 54 54 54 54 54 58 58 59 59 59 58 57 56 56 55
23 26 25 25 22 23 26 25 30 29 29 24 22 25 32 29 28 28 26 27 32 37 36 40 46 47 48 51 52 53 54 54 54 54 59 59 60 59 59 58 57 57 56 55
27 30 25 23 25 23 24 25 27 30 27 31 29 26 31 28 28 28 26 28 28 29 38 37 38 44 47 50 50 51 55 55 55 56 58 60 60 59 59 58 57 55 52 50
29 29 25 23 23 25 23 24 25 28 31 29 28 29 29 30 27 25 25 25 27 30 32 37 39 40 49 50 51 52 55 56 56 57 57 58 59 58 57 55 54 53 51 50
36 30 25 23 24 27 26 23 24 26 28 27 28 28 28 27 25 25 26 30 30 32 29 34 40 41 42 51 52 54 56 56 57 57 57 57 56 56 54 52 52 51 50 49
35 30 28 28 24 24 25 24 23 22 27 27 29 28 28 25 24 24 29 29 31 30 30 29 40 42 45 48 54 56 57 57 56 56 55 53 52 52 51 51 50 49 50 49
37 29 32 28 28 25 24 24 23 23 23 21 22 24 24 25 22 24 25 30 30 30 30 32 34 43 48 54 56 56 55 53 53 52 50 50 50 50 49 49 48 48 47 47
36 35 32 28 29 28 25 25 23 25 24 24 21 22 24 23 24 23 25 25 28 29 36 37 42 52 54 54 53 51 50 51 50 50 50 50 49 47 47 46 45 45 45 45
37 36 36 31 30 25 27 26 25 25 25 24 24 25 24 22 23 28 29 29 34 39 40 43 53 52 51 51 50 50 49 49 49 48 48 47 46 45 45 45 45 44 43 42
39 37 31 31 29 31 30 27 26 25 25 27 26 27 25 25 27 32 35 36 38 41 43 50 52 51 50 49 49 48 48 48 48 47 46 45 44 43 43 42 42 40 39 39
38 39 35 32 30 27 32 32 30 31 26 29 31 30 30 29 28 31 37 44 45 46 48 51 50 50 49 48 48 47 46 46 45 45 44 43 43 42 41 40 39 39 40 39
33 32 30 32 31 33 33 32 34 26 27 32 33 33 31 32 35 36 42 44 44 46 49 50 50 49 47 47 46 45 44 44 44 44 43 42 40 38 38 39 41 39 35 34
33 32 31 32 29 29 35 32 29 32 35 35 36 36 38 40 41 41 41 42 43 44 47 49 49 48 47 47 45 44 43 43 43 41 37 35 36 36 38 36 34 34 34 32
34 35 35 34 33 40 42 41 43 43 40 38 37 38 42 42 41 41 41 41 42 44 44 46 45 47 46 45 44 42 37 36 36 36 36 36 34 33 32 32 30 31 32 31
34 36 34 34 33 32 40 44 39 39 39 39 39 39 43 41 41 40 40 39 40 42 42 43 42 41 41 40 37 36 36 37 35 33 32 30 26 25 25 26 29 29 29 29
30 34 34 36 36 36 36 39 37 37 38 41 38 38 38 42 40 39 39 38 39 40 40 38 37 35 35 35 35 35 35 34 31 27 25 26 26 25 24 26 27 26 27 28
31 30 33 33 36 35 35 40 41 37 38 41 41 38 38 42 40 39 38 39 38 38 37 36 34 29 21 21 23 26 28 27 26 25 25 27 27 28 26 25 25 27 27 26

GFSCGP_sfc_dewp_084.txt.gz
Dewpoint
33 29 27 26 28 28 27 27 26 26 29 31 31 31 35 41 47 50 51 50 49 50 53 54 55 55 55 54 54 53 54 55 54 53 52 52 51 52 56 57 57 57 56 59
30 28 29 28 29 28 27 26 25 23 24 28 27 25 32 42 46 49 50 50 49 49 51 53 53 54 54 54 53 53 53 53 51 51 49 48 48 53 55 57 57 58 58 59
23 29 30 29 28 28 27 25 24 21 23 25 26 24 30 38 42 45 47 49 50 50 50 52 52 52 53 52 53 53 52 52 51 50 48 52 53 55 55 56 56 57 58 59
21 23 28 29 27 27 26 26 25 25 25 21 26 22 25 35 40 42 42 45 50 50 51 51 52 52 52 52 53 53 52 52 51 51 49 49 48 50 55 55 56 58 59 59
21 23 26 28 27 28 27 28 26 29 27 25 25 25 25 35 38 39 41 44 48 51 51 51 51 52 52 52 52 53 53 52 51 52 51 50 54 54 56 56 56 57 58 59
19 22 25 26 28 28 27 27 28 30 27 24 31 30 26 27 33 39 39 43 47 49 50 51 52 53 53 52 52 52 51 52 51 52 53 53 53 54 56 56 57 57 58 58
23 18 20 25 23 25 25 24 23 24 25 24 36 32 29 30 29 38 40 40 47 48 49 50 52 52 53 52 51 51 50 51 51 52 53 55 56 55 55 56 57 57 57 56
22 21 22 24 23 23 24 25 26 22 25 28 35 27 29 30 30 30 40 42 42 48 49 49 51 52 52 50 49 49 50 51 53 55 55 56 57 55 56 56 58 57 57 57
24 21 23 23 23 23 25 25 28 31 35 30 32 32 30 29 26 26 35 40 43 43 48 48 49 51 52 52 48 49 50 52 53 55 56 57 58 57 55 57 58 58 58 57
27 23 23 22 23 24 26 29 26 30 27 26 28 30 28 26 25 27 25 40 42 44 46 49 49 49 50 52 52 51 52 52 52 53 57 57 58 58 57 57 58 57 57 56
22 27 25 26 24 21 26 27 30 30 31 27 23 24 29 27 28 26 27 34 39 43 44 46 48 50 50 51 53 53 53 52 52 50 55 57 58 59 58 58 57 57 56 55
24 25 23 23 25 25 25 25 29 30 28 30 28 25 30 28 28 28 25 27 33 40 43 45 46 47 48 51 53 52 53 52 52 54 54 56 58 59 58 57 57 57 56 55
28 25 25 22 24 26 25 25 27 33 33 29 28 27 32 31 31 30 27 26 28 31 38 41 44 46 46 48 51 52 53 54 55 55 56 57 58 58 57 58 57 56 54 52
35 30 22 20 22 27 27 26 25 28 28 26 29 26 28 28 29 29 29 27 29 30 30 36 39 44 46 47 49 51 52 54 55 55 56 56 58 58 58 57 57 56 53 51
36 28 28 27 26 26 25 25 25 24 27 25 26 27 29 30 30 28 26 30 29 30 30 30 38 42 48 49 50 51 52 55 55 55 56 55 55 56 55 54 54 52 51 51
37 29 29 28 28 27 29 28 25 27 25 25 28 27 29 28 30 24 27 29 30 29 29 30 36 41 46 51 52 55 54 54 55 55 53 52 51 52 52 51 50 50 50 49
38 34 28 25 28 28 28 29 28 28 28 26 24 26 26 24 23 23 25 26 30 30 31 35 40 46 53 54 54 54 52 52 52 51 50 50 50 48 48 48 48 47 47 47
39 37 33 28 29 25 31 30 29 28 27 26 23 24 23 22 24 25 27 30 32 37 41 52 52 51 50 50 51 51 51 51 50 50 49 48 48 47 47 46 46 46 46 46
43 38 32 31 28 29 30 30 26 27 25 27 24 24 24 25 30 30 35 35 38 40 44 51 50 50 49 49 49 50 50 50 49 48 48 48 47 46 46 45 44 45 45 44
40 38 34 32 28 24 29 31 33 30 25 29 27 27 29 28 28 29 37 43 44 48 51 50 49 48 48 47 48 48 48 48 47 47 46 45 45 45 44 43 43 42 41 38
31 31 31 31 30 31 35 36 33 28 27 32 30 31 29 28 32 33 43 44 47 50 50 50 49 47 47 47 47 45 45 45 46 45 44 44 44 43 43 43 42 40 36 33
33 29 25 29 27 27 36 36 30 33 37 38 35 35 31 36 39 43 44 44 47 49 49 49 48 46 46 46 45 44 43 44 44 43 42 42 40 38 39 38 37 35 33 31
32 33 31 30 30 36 40 41 41 42 40 40 40 38 39 40 40 41 42 43 45 48 48 49 47 46 46 45 44 43 43 41 39 37 37 37 35 33 34 35 34 34 32 30
34 37 34 34 34 36 38 43 42 38 38 38 39 41 41 39 41 41 41 42 43 44 44 46 45 43 40 38 36 36 37 36 33 29 27 27 28 28 28 28 29 30 30 30
27 35 33 32 34 36 37 37 36 36 39 39 41 41 42 41 40 40 39 41 41 40 38 37 31 27 27 29 33 34 30 28 26 26 25 25 26 27 26 25 26 26 28 29
30 33 34 33 36 36 32 37 39 39 37 39 40 39 41 41 40 40 39 39 38 35 26 24 23 24 23 24 25 26 26 25 24 25 26 28 28 26 26 26 26 28 28 27

GFSCGP_sfc_dewp_087.txt.gz
Dewpoint
31 28 27 28 28 28 27 27 26 26 27 30 28 30 30 37 42 49 51 50 49 50 53 54 55 55 55 55 54 55 55 55 55 55 53 53 54 55 56 56 57 57 58 59
28 28 29 29 28 27 27 27 26 26 26 27 27 27 26 39 43 47 50 49 48 49 52 53 54 54 54 54 53 54 54 55 54 53 49 50 52 54 55 57 56 57 56 58
22 26 28 30 29 27 27 26 26 26 26 26 26 24 25 36 44 48 50 49 49 49 50 51 52 54 54 53 53 53 53 53 52 52 50 49 52 54 53 55 56 56 57 57
22 23 23 30 28 28 26 29 28 27 26 23 26 21 24 30 40 45 46 49 49 49 50 50 50 51 52 53 53 52 53 52 51 50 49 48 47 47 48 52 55 55 57 57
22 21 21 22 28 29 27 30 29 28 26 25 25 24 24 37 38 41 43 46 48 50 50 50 51 52 52 52 52 52 52 52 51 50 50 48 48 48 53 54 55 55 57 58
22 23 22 21 23 28 30 29 28 30 27 24 28 27 26 27 34 38 41 42 45 50 50 51 51 52 52 52 52 52 52 51 51 50 50 49 49 51 53 54 54 55 56 57
21 24 23 26 24 26 28 26 23 22 23 23 32 33 30 30 30 35 39 41 43 47 50 51 50 51 52 52 52 52 52 51 51 50 50 50 50 52 52 52 54 55 55 55
7 14 23 22 21 23 24 25 25 20 23 23 34 29 28 32 32 32 40 40 42 46 49 50 50 51 52 52 51 51 51 51 51 51 50 50 51 51 53 54 55 56 55 55
23 21 23 21 22 21 23 23 25 26 33 29 29 31 31 31 30 28 38 40 41 46 47 48 49 51 52 53 52 51 51 50 50 51 50 50 52 52 53 55 56 56 57 57
23 22 25 23 23 24 23 28 26 29 26 26 27 28 27 29 25 26 34 41 41 45 48 48 48 50 52 53 53 52 51 50 50 50 51 51 52 53 54 55 55 56 57 57
34 24 23 25 23 22 25 22 28 27 29 22 23 25 30 31 30 26 25 38 43 43 46 48 49 49 51 52 52 51 51 50 50 50 52 53 55 56 57 57 56 56 57 56
36 27 21 20 23 25 24 23 26 27 26 29 27 25 28 31 28 28 28 27 36 44 44 46 49 49 49 51 52 50 50 50 51 52 53 53 56 57 57 57 57 57 56 56
38 34 23 22 22 23 23 25 27 32 31 28 26 26 30 31 30 31 29 28 28 38 43 45 46 48 49 50 51 52 52 50 51 53 54 53 54 56 57 57 56 56 56 55
39 38 33 21 21 23 25 24 26 30 28 27 28 28 28 29 30 29 30 29 28 30 38 43 45 46 48 49 50 51 52 53 53 53 53 53 53 56 57 57 56 56 56 56
38 34 34 29 22 22 27 26 26 26 27 26 27 28 28 29 29 29 31 30 28 28 29 37 41 44 46 47 49 51 53 53 53 53 53 53 54 56 56 56 56 57 57 56
38 35 36 28 28 22 21 23 28 29 28 26 26 26 29 29 31 30 27 27 28 28 30 31 36 39 44 47 48 49 51 52 54 54 54 53 53 55 55 54 54 52 51 52
35 35 33 27 28 28 27 28 26 25 29 26 25 28 30 29 28 29 28 28 28 30 30 30 31 38 41 48 51 51 51 52 52 53 52 51 51 50 50 50 50 50 49 50
35 35 33 30 28 25 28 30 30 30 28 30 27 26 26 25 27 26 25 26 29 30 31 44 50 50 50 52 52 52 52 51 51 50 50 50 50 49 49 48 48 48 48 48
37 36 32 30 27 28 30 31 30 30 29 30 28 26 24 25 30 28 33 32 30 36 42 49 49 49 50 50 50 50 50 50 50 49 49 49 48 47 47 46 46 46 46 45
36 37 34 32 28 23 28 31 34 35 30 30 28 32 27 29 28 28 34 39 40 47 49 48 48 49 49 49 50 50 49 49 48 48 47 47 46 46 45 45 45 45 44 42
34 34 32 31 30 30 34 35 38 33 31 35 31 31 31 27 31 31 42 44 48 49 48 48 47 47 48 48 48 47 47 46 46 46 45 44 45 44 44 43 42 38 36 34
32 31 30 31 27 24 33 39 31 34 41 38 35 33 33 32 36 41 43 47 49 49 48 47 46 46 45 45 45 45 44 44 44 44 44 42 41 41 40 38 36 34 33 31
29 31 32 32 29 34 35 39 41 41 39 40 39 38 37 38 40 43 44 48 48 48 48 47 46 45 44 44 44 43 43 42 39 34 32 31 31 32 34 35 34 32 32 31
32 36 35 34 33 34 35 38 43 42 38 38 40 42 41 40 42 42 44 46 46 47 47 46 40 36 36 37 37 37 34 30 30 29 29 29 28 28 28 29 30 30 31 31
30 37 35 32 33 33 33 37 39 40 40 40 39 41 42 42 42 42 44 43 42 37 32 32 30 29 29 29 28 28 28 28 26 26 26 26 24 25 26 26 27 28 30 31
30 29 31 28 32 32 33 34 40 39 39 40 39 39 42 42 41 41 40 37 30 28 27 26 26 26 25 25 25 25 26 26 26 27 27 27 28 29 28 27 27 30 29 29

GFSCGP_sfc_dewp_090.txt.gz
Dewpoint
30 27 27 27 29 27 26 26 26 26 26 26 25 25 26 32 40 44 49 50 49 49 51 54 55 55 56 55 55 55 55 55 55 56 56 56 55 56 56 57 57 58 58 57
30 26 26 29 29 28 27 26 25 26 26 26 25 25 26 33 38 40 46 48 48 49 52 53 54 55 54 54 54 54 55 55 53 55 55 55 55 54 56 57 57 58 59 58
23 25 29 29 28 27 27 26 25 25 25 27 26 25 25 31 41 45 48 49 49 49 50 50 54 54 54 54 53 53 54 55 53 53 53 53 53 54 53 55 56 56 57 58
23 24 23 28 28 28 26 28 27 26 26 24 25 22 24 25 35 43 46 48 48 48 50 50 50 53 53 53 53 53 53 54 53 52 51 52 52 49 47 52 54 55 57 56
23 22 23 21 28 29 27 29 29 29 27 27 25 24 24 34 31 34 42 47 48 48 50 50 50 51 53 53 53 53 53 52 52 51 50 49 49 49 51 52 53 54 55 56
22 24 22 22 23 30 32 30 29 30 28 24 25 25 25 25 31 33 38 44 47 48 49 50 51 51 50 52 53 52 52 52 51 50 49 49 47 48 49 50 52 53 53 55
12 17 25 26 22 28 28 27 23 22 23 24 27 31 28 28 29 33 33 41 44 47 50 50 50 51 50 51 51 52 52 51 51 50 49 49 48 48 48 48 50 52 53 53
5 2 14 24 23 24 26 26 25 20 20 21 33 30 29 32 33 33 33 37 42 45 48 50 50 51 51 51 51 51 51 51 51 51 50 50 49 49 50 50 51 52 53 53
21 10 20 21 22 21 23 24 26 23 29 28 28 30 30 31 29 30 29 40 42 44 47 48 50 50 51 52 52 51 52 52 51 51 51 50 50 50 49 51 53 54 54 55
31 24 23 24 24 23 20 25 22 28 23 23 25 28 25 26 27 28 28 39 40 45 47 47 48 50 51 52 52 52 52 51 51 51 51 50 50 50 51 51 53 54 55 55
36 30 24 24 23 21 24 22 27 26 27 21 21 24 30 28 29 30 26 32 41 43 46 47 47 48 50 52 53 52 52 51 50 50 50 50 50 51 51 52 52 54 55 55
38 36 26 24 23 23 23 22 23 22 22 28 24 21 28 30 30 31 27 27 35 43 44 47 48 48 49 51 52 52 52 51 51 51 50 51 51 52 52 53 53 54 55 55
33 34 28 24 23 25 22 23 25 30 30 23 24 24 29 30 30 30 30 29 30 40 44 44 48 48 49 50 51 52 51 51 51 51 50 51 52 53 53 54 55 56 56 56
36 32 30 28 30 33 29 23 23 27 27 24 25 26 28 28 30 29 30 30 29 28 39 44 45 48 49 49 51 52 51 50 50 50 50 51 52 53 54 55 56 56 56 56
35 29 28 31 33 34 35 28 22 22 25 25 25 27 28 29 29 30 31 30 29 27 30 40 44 46 48 49 50 51 52 52 50 50 50 50 51 53 53 54 55 55 56 57
38 28 33 30 31 34 32 27 25 27 26 27 27 26 30 31 30 30 30 30 30 29 28 29 37 43 46 48 49 50 51 52 53 52 50 51 52 52 52 53 54 56 56 56
33 33 33 27 32 32 26 25 23 23 29 28 25 27 29 28 29 30 30 30 28 29 29 30 31 37 41 45 47 48 49 51 52 52 51 51 52 52 54 53 54 54 53 52
28 34 33 30 30 26 29 28 26 26 26 28 28 28 29 28 28 30 30 30 30 29 30 31 38 47 50 51 51 51 52 52 52 51 51 51 51 50 50 51 51 49 49 49
28 31 30 29 30 31 32 30 29 29 26 31 30 30 30 29 28 26 30 28 28 31 38 48 49 49 50 50 50 51 50 50 50 50 50 50 50 48 48 47 46 46 46 45
31 33 31 31 26 22 31 34 35 34 29 32 32 32 31 29 27 27 31 37 43 48 48 48 49 48 49 50 50 50 50 49 48 48 47 48 47 47 45 46 45 45 43 40
31 32 29 29 29 30 35 38 38 29 30 35 36 33 32 28 31 32 42 47 48 48 47 47 47 47 48 49 49 47 47 45 46 46 45 45 44 44 43 41 40 38 35 33
27 30 30 32 29 26 35 39 37 34 40 39 38 37 37 35 36 39 46 48 48 48 47 47 46 46 47 47 47 45 44 44 42 39 38 38 38 38 37 36 35 34 32 30
27 32 30 33 32 35 34 34 37 42 40 40 39 39 40 36 37 43 48 48 48 47 46 47 45 44 44 44 44 42 37 35 35 34 33 33 33 33 34 33 33 32 31 30
28 33 32 33 32 33 34 36 38 39 40 43 40 42 41 39 43 46 48 47 46 45 41 39 39 37 35 36 34 33 33 33 31 30 30 29 28 29 30 30 31 31 31 30
28 32 31 32 34 34 32 34 35 38 42 41 43 42 43 42 43 46 44 37 34 32 31 30 30 28 27 27 27 28 29 28 26 25 25 26 28 28 28 28 29 28 29 31
30 27 29 28 32 32 32 35 39 38 40 41 41 41 44 43 41 33 30 30 30 28 28 27 27 26 26 26 27 28 28 28 28 28 29 30 30 29 27 27 27 30 30 30

GFSCGP_sfc_dewp_093.txt.gz
Dewpoint
32 27 29 28 30 27 26 25 24 26 27 26 24 24 25 28 34 39 48 51 50 51 51 52 55 56 56 56 56 56 56 57 57 57 57 57 57 58 59 59 59 59 59 58
29 21 28 29 30 30 27 26 25 27 26 27 25 24 25 28 31 36 41 49 50 50 50 52 52 55 55 55 56 56 56 56 56 56 57 57 57 57 58 59 59 59 59 58
21 25 27 28 28 28 28 27 27 25 26 27 26 25 26 27 35 40 43 46 50 50 50 51 53 54 55 54 55 55 55 56 56 56 56 56 56 56 57 57 58 58 58 57
25 25 25 27 25 27 24 28 28 27 25 20 26 20 26 27 27 32 43 48 49 50 50 50 52 53 53 55 55 54 55 55 55 54 54 55 54 54 54 56 56 57 58 59
25 23 24 23 27 29 26 29 29 28 27 26 24 24 25 29 28 28 32 46 48 50 50 50 50 52 54 55 54 54 54 54 54 54 54 53 52 54 53 55 56 56 56 57
21 24 24 23 23 30 31 29 28 30 29 25 27 25 23 25 28 29 34 39 47 49 50 50 50 52 53 54 54 54 54 54 53 53 53 54 53 53 50 52 53 55 55 57
18 21 22 25 21 30 29 27 21 24 25 22 26 26 25 29 29 30 31 34 47 49 49 50 50 50 51 52 54 53 54 53 52 52 52 52 53 53 52 51 52 53 53 54
8 3 18 22 24 23 26 25 22 16 21 21 32 27 27 33 33 34 35 35 43 48 49 49 50 50 50 51 52 53 52 52 52 52 52 52 51 50 51 52 52 53 53 53
25 12 22 16 23 23 26 25 25 23 29 26 25 31 31 32 32 31 30 33 38 45 48 49 50 51 51 52 51 52 51 52 52 53 52 52 52 51 50 52 53 53 53 53
30 29 24 23 21 22 23 28 25 26 18 15 21 27 22 27 27 29 29 32 39 44 47 48 49 51 51 52 52 52 52 51 52 53 53 52 52 52 52 53 53 53 54 55
33 32 29 28 22 21 22 21 24 26 27 19 17 22 34 31 30 30 32 34 36 43 45 47 49 50 51 52 53 53 53 53 53 53 53 53 52 52 53 53 53 53 54 54
36 34 30 27 29 27 23 24 23 22 20 29 25 21 29 34 33 34 34 32 32 42 45 47 48 49 50 51 52 52 53 53 53 53 53 53 54 53 53 54 53 54 54 56
24 31 25 25 25 30 29 29 30 28 27 22 24 23 30 30 32 32 32 33 34 36 43 47 48 48 49 50 52 52 52 52 53 53 53 53 54 53 53 53 54 54 54 54
32 29 21 18 27 29 29 31 29 33 29 24 23 22 27 29 31 31 32 35 34 33 39 44 47 48 49 50 51 52 53 53 53 52 52 52 53 53 53 54 54 55 55 54
34 29 30 27 25 24 27 27 27 29 32 26 23 24 26 27 29 31 33 34 33 32 31 41 44 47 49 50 51 52 53 53 53 52 53 53 53 54 54 55 55 55 56 57
33 32 31 28 28 28 25 27 30 32 33 30 25 24 30 31 32 32 32 32 32 33 31 32 39 45 48 50 51 52 52 53 53 52 52 52 52 52 54 55 56 56 57 57
28 28 31 25 28 29 28 28 31 32 31 28 26 29 30 30 31 32 33 33 32 33 33 34 34 40 46 48 50 51 52 54 53 52 51 51 51 51 53 54 55 55 56 57
28 29 29 26 30 23 25 31 33 32 29 28 28 30 30 30 31 32 32 32 33 33 34 34 36 44 49 50 50 51 52 53 53 53 53 53 53 53 54 54 55 53 51 50
30 28 25 24 25 27 18 33 33 34 34 33 26 27 29 30 30 31 31 31 33 35 36 43 47 49 50 51 51 52 52 52 52 52 52 52 52 51 49 48 47 47 45 42
29 30 27 28 25 20 25 34 40 36 30 38 35 36 34 32 31 29 35 40 47 47 48 49 49 50 50 51 51 51 50 48 47 47 48 48 48 47 46 45 43 40 38 36
27 27 25 25 25 27 32 37 40 30 34 41 41 39 38 33 34 38 47 48 46 46 47 48 48 49 49 49 48 47 46 45 45 45 45 44 44 42 41 40 38 36 34 32
28 28 26 27 27 23 36 39 33 39 42 39 41 40 42 39 40 47 48 47 47 46 47 48 47 47 47 46 45 43 41 40 39 39 39 38 38 37 37 36 34 33 32 30
22 28 31 33 29 39 38 35 38 42 40 40 43 42 42 42 44 47 47 46 46 45 44 44 43 41 41 42 41 38 37 36 35 34 32 32 32 32 33 33 32 31 30 29
26 30 31 31 31 33 35 36 38 38 39 40 44 44 45 46 47 46 46 41 39 39 38 35 32 31 30 32 33 33 32 32 31 31 31 30 30 30 30 29 30 31 31 30
24 31 30 30 29 34 34 35 35 38 40 41 42 45 45 46 41 38 36 34 33 32 32 31 30 29 28 29 29 29 29 31 30 30 29 29 28 28 28 28 28 27 29 30
29 27 27 27 29 33 33 35 37 41 39 38 40 43 44 41 36 32 30 30 30 29 29 29 29 29 29 29 29 29 30 31 30 30 29 30 29 28 27 27 27 28 27 27

GFSCGP_sfc_dewp_096.txt.gz
Dewpoint
14 23 24 22 25 24 20 20 18 18 22 24 22 18 19 24 25 29 32 40 44 47 49 51 54 56 57 58 57 57 58 58 59 59 58 59 58 60 61 61 61 61 59 58
22 15 14 21 23 24 23 21 19 19 20 24 21 18 20 23 25 28 30 36 42 46 49 51 53 55 57 56 57 57 57 58 57 58 58 59 59 59 60 60 60 60 60 58
24 20 20 14 23 24 23 21 20 20 20 23 23 20 16 18 27 30 36 36 39 44 48 50 52 54 56 56 56 56 56 57 57 58 57 57 58 58 58 59 59 59 60 58
24 22 20 20 19 20 20 20 21 20 20 18 22 13 13 20 24 24 26 37 41 43 47 49 51 52 55 55 56 56 56 56 57 57 56 56 55 54 56 58 58 59 59 58
24 24 23 21 22 22 22 23 21 24 22 21 20 18 16 20 24 25 25 28 41 45 47 49 50 52 54 55 56 56 56 56 56 56 56 56 55 54 58 57 57 58 58 58
20 20 22 23 21 24 25 27 27 28 26 23 23 19 14 17 24 23 25 32 40 45 48 49 50 51 53 56 56 56 55 55 55 55 56 55 55 54 55 56 56 56 57 58
10 14 16 22 22 23 25 27 23 24 24 21 20 21 19 24 25 26 26 28 40 45 48 49 49 49 52 54 55 55 55 54 55 56 55 55 55 55 54 54 55 53 53 55
10 7 12 19 19 19 25 26 22 16 19 20 23 21 21 26 26 27 32 33 37 44 48 49 49 49 51 53 54 54 54 54 54 54 54 54 54 54 54 54 53 54 52 52
22 16 21 14 17 18 21 23 24 21 21 22 22 25 29 27 28 29 28 28 34 42 46 48 49 50 50 53 54 54 54 54 54 54 54 53 53 53 53 54 54 52 53 52
21 24 23 21 20 18 18 20 23 24 19 16 15 18 21 23 24 24 28 28 32 39 44 47 48 50 50 52 53 55 54 53 54 54 54 53 53 53 53 53 53 53 53 52
26 25 24 26 20 15 15 19 22 20 22 19 18 17 25 24 25 25 28 29 33 39 43 46 48 50 51 51 52 54 54 52 53 54 55 55 54 54 54 53 53 53 54 53
24 26 23 24 27 29 30 23 19 19 17 23 22 19 25 27 28 29 30 32 32 38 42 44 47 49 50 51 52 53 53 53 53 53 54 54 55 54 54 54 53 54 53 54
24 26 21 22 26 30 28 28 30 30 28 24 25 22 23 25 28 32 31 30 32 34 41 43 46 48 49 50 51 52 53 54 54 53 54 54 55 54 54 54 54 54 54 54
29 23 19 14 20 22 24 26 27 28 29 25 23 22 22 22 24 25 26 30 31 34 38 43 45 46 48 49 51 51 52 53 53 53 53 54 54 54 54 55 55 55 55 54
26 23 20 20 18 16 17 17 19 25 26 27 27 26 23 25 24 26 27 29 31 32 31 37 43 45 47 48 50 51 52 53 53 53 53 53 54 54 55 55 55 55 54 54
31 24 28 25 24 23 20 17 18 19 23 24 25 27 30 28 25 25 26 26 26 31 31 32 36 42 46 48 50 51 52 53 54 52 53 53 54 53 54 54 54 54 54 54
28 27 26 21 24 26 25 24 21 18 20 28 29 29 28 27 25 26 30 31 30 31 32 33 34 37 44 48 50 51 52 54 54 54 53 53 53 53 53 53 54 54 55 56
28 27 27 24 26 22 20 26 25 24 28 30 32 31 29 28 27 27 26 30 32 32 32 33 36 37 41 46 50 52 52 53 54 53 52 53 53 53 52 53 53 54 52 49
29 27 25 23 18 17 18 20 30 31 27 32 37 32 28 28 28 28 29 31 32 38 35 36 38 43 48 48 50 51 51 52 53 53 53 53 54 53 51 49 48 45 42 38
27 30 27 24 19 15 13 29 35 32 25 39 38 40 39 39 32 27 31 42 45 46 46 46 47 49 50 51 52 51 51 50 49 48 48 47 47 46 43 41 39 37 36 34
30 31 27 25 24 19 20 29 37 28 30 38 40 39 41 40 38 39 47 47 47 48 49 49 50 50 50 51 49 47 46 44 43 42 41 40 40 38 38 36 35 34 32 31
28 29 27 27 27 22 30 38 36 39 40 39 40 40 42 43 42 47 47 47 46 47 47 48 47 47 47 46 44 41 39 38 37 36 36 36 36 34 34 34 33 31 31 29
19 21 24 28 27 29 31 38 40 40 38 36 42 43 43 45 45 46 46 45 45 43 40 38 37 38 39 40 39 36 36 35 35 35 34 33 33 32 33 32 32 31 30 29
21 24 27 29 25 32 35 38 39 36 35 41 41 42 46 47 47 46 44 43 40 38 36 35 34 33 33 34 34 34 35 35 34 33 33 32 31 30 29 29 30 31 30 29
24 24 23 24 24 26 27 31 31 31 38 40 41 44 47 46 45 42 40 38 36 34 34 33 32 32 32 32 33 35 35 34 32 31 31 30 29 28 27 27 28 27 29 30
27 25 24 24 26 27 26 28 32 32 37 39 41 45 45 42 40 37 34 33 33 32 32 31 31 31 31 32 32 33 33 33 31 31 30 31 30 29 27 25 25 27 26 26

GFSCGP_sfc_dewp_099.txt.gz
Dewpoint
20 13 9 12 20 20 21 20 20 20 21 20 20 21 19 19 19 23 25 25 29 37 44 50 52 55 56 58 58 58 59 59 60 59 60 60 60 61 62 63 62 61 60 59
21 15 14 10 14 21 21 22 22 21 21 21 22 21 21 19 18 20 24 25 28 33 44 49 52 54 56 56 58 57 58 59 59 59 59 59 60 61 61 62 61 60 60 59
22 21 18 17 17 15 21 23 24 22 22 21 21 21 22 21 20 18 21 27 27 31 42 48 51 54 56 56 57 57 57 58 58 58 59 59 59 59 59 60 60 60 59 58
18 19 21 20 17 13 15 20 21 21 20 18 21 17 20 18 14 16 25 28 30 31 38 47 50 52 55 56 57 57 57 57 58 58 57 58 57 56 58 59 59 59 59 57
17 20 23 21 19 20 16 19 20 20 21 22 20 17 19 21 18 16 22 25 26 34 39 46 49 51 53 56 56 57 57 56 57 58 58 57 57 57 58 59 59 59 59 58
10 14 24 23 23 21 20 21 21 24 22 20 21 20 18 18 19 23 24 23 29 34 41 45 49 50 52 56 56 55 56 55 57 57 57 57 56 56 58 57 57 57 59 59
16 11 11 19 19 23 22 21 21 20 22 22 21 21 22 21 19 24 23 25 33 37 43 46 48 49 51 55 55 56 55 55 56 56 56 56 56 55 56 57 57 55 56 57
14 11 10 11 16 17 22 22 24 16 19 22 23 18 19 22 22 24 26 28 31 37 43 46 47 49 50 54 55 55 54 54 55 56 56 56 56 54 53 56 57 56 55 57
21 18 18 9 12 18 16 23 23 23 24 24 27 23 23 27 26 25 24 26 29 36 42 45 47 49 49 53 54 55 54 54 55 56 56 56 55 54 53 55 56 56 57 56
25 22 20 17 14 17 18 16 20 22 21 18 16 18 20 24 24 25 25 27 27 32 40 44 46 49 50 52 53 55 54 53 54 55 55 54 54 55 54 56 56 57 57 55
16 26 22 23 22 15 16 18 19 19 18 18 20 20 25 22 26 26 26 29 28 32 38 43 45 48 50 52 52 54 53 52 53 54 55 56 54 54 54 55 56 56 56 55
17 24 24 21 21 25 26 17 18 21 18 18 22 21 25 25 25 27 30 29 31 32 36 41 45 47 49 50 51 53 54 52 53 54 54 55 55 54 54 55 55 56 56 56
26 19 17 18 19 23 25 25 23 21 21 18 22 21 24 24 26 25 29 29 30 33 39 42 44 46 48 50 51 51 53 52 52 52 54 54 55 55 54 55 56 56 56 55
29 22 18 16 17 25 24 25 27 27 26 23 20 17 19 21 22 23 26 28 28 33 34 40 43 45 47 50 51 51 52 53 52 52 52 53 54 55 55 55 55 57 56 54
26 23 18 15 14 14 17 17 17 19 22 25 25 22 23 25 24 25 26 26 27 29 31 37 41 44 46 48 50 51 52 53 53 52 52 53 54 55 55 55 56 55 55 54
22 25 21 17 16 15 15 14 13 12 15 18 21 22 23 24 25 28 28 25 25 25 27 30 36 41 44 46 48 50 51 53 54 53 53 53 54 54 55 55 56 55 55 54
32 27 22 21 16 15 20 17 12 9 8 11 16 21 23 27 26 26 27 27 25 28 28 29 32 36 41 46 48 49 51 52 53 53 52 53 53 53 54 54 54 54 55 55
29 27 28 23 23 19 18 18 20 21 19 13 9 10 23 27 30 27 26 26 26 28 30 31 33 36 38 44 48 50 51 52 53 52 52 52 53 53 53 53 51 47 44 41
27 27 28 23 18 15 13 15 20 23 25 25 27 30 36 37 34 30 27 27 27 33 37 36 39 36 39 42 47 49 50 52 53 52 52 52 53 52 49 45 42 39 37 35
26 29 28 25 19 16 15 27 34 33 30 37 37 38 40 39 38 31 33 31 41 42 43 42 44 47 47 47 49 50 51 52 50 48 47 46 45 42 39 37 36 34 34 33
28 31 27 25 25 22 19 18 30 28 33 39 37 36 38 39 42 44 47 45 46 46 47 48 48 50 51 51 50 47 45 43 42 41 39 38 37 36 35 34 33 32 31 30
30 30 29 26 28 24 23 26 30 38 40 39 36 37 40 42 44 47 46 46 46 47 47 48 48 48 47 46 43 40 38 38 38 36 36 35 35 34 33 32 32 31 30 29
27 26 28 28 27 26 27 35 38 41 39 40 38 39 42 44 44 46 45 45 43 41 40 41 40 40 40 40 38 36 36 36 35 34 33 33 33 32 32 31 31 30 29 29
25 23 23 25 24 26 28 34 32 38 38 39 38 39 45 46 47 45 44 42 40 38 38 37 36 35 35 36 36 36 36 34 33 32 31 31 30 29 29 29 30 31 30 30
25 29 28 25 24 25 24 29 35 37 33 31 37 42 45 48 47 45 41 38 36 36 35 34 34 34 35 35 35 35 35 34 32 31 30 29 28 27 27 27 27 26 28 30
25 25 26 25 28 28 28 28 30 30 31 35 38 45 45 43 42 39 36 36 35 34 34 33 34 34 34 34 34 34 34 33 32 31 30 30 29 27 24 23 24 25 24 23

GFSCGP_sfc_dewp_102.txt.gz
Dewpoint
25 13 7 7 11 11 14 16 21 27 27 25 23 21 20 23 22 23 23 25 27 30 41 52 53 56 57 59 58 58 59 60 60 60 60 60 60 61 63 63 61 61 61 60
23 20 18 14 12 9 9 17 21 24 26 26 24 21 21 23 23 23 21 22 25 30 43 51 53 55 57 57 57 57 59 59 59 59 59 60 60 60 61 63 61 61 60 59
18 16 15 16 18 16 13 12 23 24 26 27 26 22 22 21 23 24 23 23 23 29 43 50 52 55 57 56 56 57 57 59 59 59 59 59 60 60 60 61 61 60 59 58
11 14 14 15 19 18 17 16 16 16 19 22 25 19 22 21 22 23 24 25 23 29 33 49 52 54 56 56 56 56 57 58 59 59 58 58 58 57 59 60 60 60 59 58
7 9 10 13 14 19 19 19 17 19 21 21 19 18 20 21 20 21 23 23 29 32 34 48 50 53 55 56 56 56 57 58 57 58 58 58 57 58 59 59 58 58 58 57
14 11 9 15 18 21 21 20 20 20 20 20 20 19 19 20 21 21 23 22 29 30 36 46 50 52 53 57 56 56 56 56 58 58 58 58 57 57 57 57 57 57 57 57
16 14 12 8 14 21 22 22 20 19 20 18 20 20 21 23 23 25 23 27 34 40 42 45 48 50 52 56 56 56 55 55 57 57 58 57 57 57 57 57 57 57 56 56
13 9 13 14 9 13 18 23 23 20 20 23 29 29 23 24 24 25 26 29 33 37 44 45 48 50 52 55 55 55 55 54 56 57 57 57 56 57 57 56 57 57 56 56
19 12 19 14 11 11 16 20 23 25 25 24 27 27 28 27 26 25 24 28 33 38 42 45 48 51 52 55 55 56 55 53 55 56 56 56 56 55 56 56 56 56 57 57
20 21 20 18 12 11 13 14 18 23 21 21 21 23 29 32 30 29 28 29 32 35 41 45 47 51 52 54 55 56 55 54 54 56 56 56 56 55 54 57 56 56 56 56
12 18 17 18 21 16 13 15 18 20 23 22 22 21 31 30 31 30 32 31 35 34 39 44 46 50 51 54 55 55 55 54 55 56 56 56 55 55 54 54 56 56 56 56
7 12 18 15 24 25 29 20 18 19 18 23 23 21 25 32 33 32 32 32 34 35 37 43 46 50 50 52 54 54 55 54 55 56 55 54 55 55 54 55 53 54 56 56
22 19 14 11 10 14 19 23 24 21 22 21 23 23 25 29 31 31 32 31 31 37 36 40 45 48 49 51 52 54 54 53 54 54 56 55 55 55 55 55 56 56 56 55
27 22 22 16 12 21 24 23 24 24 30 23 19 17 19 29 30 28 28 32 30 32 34 41 43 47 49 51 52 52 54 53 53 54 54 55 55 55 55 55 55 56 56 56
23 18 17 15 13 11 13 16 19 20 22 27 27 24 25 29 32 30 29 30 28 27 29 35 42 45 48 50 52 52 54 53 53 52 54 55 56 56 56 56 56 56 56 55
20 16 15 15 14 12 10 10 15 16 16 15 17 18 20 22 23 23 25 25 26 28 28 27 37 42 46 49 51 52 53 53 53 52 53 54 56 56 56 56 56 56 56 56
29 23 16 16 17 14 14 11 11 13 14 15 14 17 18 20 21 24 27 28 28 27 28 28 34 38 45 48 50 52 53 54 53 53 53 53 54 54 55 56 56 56 53 46
27 31 27 23 22 17 18 13 14 16 14 12 14 12 11 11 18 32 35 28 30 27 28 32 38 40 41 47 49 52 52 54 54 54 53 53 54 54 54 53 45 42 40 38
26 26 26 22 18 17 13 14 23 32 29 38 38 38 37 37 38 37 44 45 44 41 38 42 43 44 42 45 49 50 50 52 53 53 53 53 54 48 43 40 38 37 36 35
23 27 26 25 18 14 14 23 24 25 26 39 37 39 36 35 38 37 44 47 46 47 47 45 46 47 48 51 51 50 51 52 48 47 46 43 42 40 37 36 35 34 33 32
25 27 25 26 25 22 18 20 24 21 30 40 38 36 38 39 38 42 45 47 46 47 48 49 50 50 49 47 46 44 43 42 40 39 38 37 36 35 36 34 32 32 31 30
28 28 27 26 24 21 27 28 29 36 34 37 38 38 39 40 42 44 47 45 45 44 44 46 46 45 45 44 41 39 37 38 37 37 35 34 34 33 32 32 31 30 30 29
30 26 28 26 26 31 31 32 37 36 36 36 37 37 38 40 43 44 46 42 40 39 39 39 39 38 38 39 38 36 36 36 35 34 35 33 32 32 32 31 30 30 29 29
29 33 30 32 31 34 33 30 32 33 33 33 34 36 37 43 46 47 43 40 38 38 37 37 36 36 36 36 36 35 34 33 32 31 30 30 30 29 29 30 30 30 29 29
31 27 26 27 31 31 32 32 33 32 31 34 34 38 45 45 46 44 39 36 36 35 36 36 36 36 35 35 34 33 33 32 29 28 28 27 26 25 24 25 25 25 27 26
25 24 25 30 34 32 34 31 29 31 31 36 37 42 40 41 39 37 35 35 35 34 35 36 36 35 35 35 34 35 33 31 30 28 27 26 25 24 22 21 22 25 24 23

GFSCGP_sfc_dewp_108.txt.gz
Dewpoint
29 15 11 3 8 11 10 7 4 5 7 16 19 23 22 26 27 27 29 30 27 27 37 51 56 56 57 58 58 58 57 58 58 56 59 61 60 61 61 62 62 63 63 62
27 25 22 16 11 7 4 3 2 3 8 13 16 16 15 26 27 28 30 29 27 28 49 53 56 56 57 57 57 57 58 58 57 57 57 58 60 61 61 62 62 63 62 62
25 26 27 22 19 10 6 4 4 7 13 14 18 18 20 25 30 31 31 28 26 27 49 53 56 56 57 56 56 57 58 59 58 57 57 56 58 59 60 61 61 62 61 61
23 24 24 24 22 21 18 18 17 18 17 15 18 13 16 18 22 27 27 26 25 35 49 52 54 56 56 56 56 57 58 58 58 58 57 56 55 56 58 61 60 62 61 60
18 13 18 19 19 20 18 20 20 21 19 17 17 16 14 21 18 20 23 23 23 24 48 52 54 55 56 55 55 56 58 58 58 58 58 57 57 57 56 58 60 60 61 60
18 20 17 14 13 13 17 20 24 23 20 17 18 17 16 17 19 21 21 23 24 25 46 51 53 55 55 55 55 56 57 57 58 58 58 57 57 57 57 58 58 59 60 60
20 18 18 17 15 16 17 20 19 18 18 15 18 19 18 21 21 25 29 30 34 34 43 51 54 54 54 54 55 56 56 56 57 57 58 57 57 58 58 58 59 58 59 59
19 18 18 19 16 14 15 15 16 16 17 16 20 19 26 28 31 39 40 39 37 34 42 51 54 54 54 54 55 55 56 56 56 56 57 57 56 57 57 58 58 58 58 58
21 19 22 23 25 20 16 18 18 20 23 21 21 22 23 24 40 41 41 41 38 47 49 51 53 54 54 54 54 55 55 56 56 57 57 57 57 56 56 57 58 58 58 58
16 17 17 16 20 27 21 19 14 21 17 14 21 22 23 31 38 40 42 42 40 43 49 51 53 54 54 54 55 55 54 55 56 57 57 56 56 56 56 56 56 57 57 57
9 15 16 17 20 19 28 28 29 19 25 17 20 21 37 38 39 41 44 43 41 41 42 50 51 54 54 54 54 54 54 54 54 55 56 56 56 56 56 56 56 55 56 57
17 13 9 11 12 18 29 28 30 27 21 26 23 20 24 40 41 43 44 41 40 37 38 49 49 54 54 54 54 54 53 53 54 54 56 55 55 56 56 56 56 56 55 56
15 15 18 8 13 24 25 24 20 32 33 27 22 19 28 32 41 42 44 45 41 40 39 44 52 52 53 53 54 53 54 53 54 55 55 55 54 54 55 56 56 56 55 55
28 20 16 12 19 18 13 13 15 30 26 27 25 29 26 26 35 41 41 44 41 42 39 43 52 53 54 54 54 54 54 53 54 55 56 55 54 54 54 56 55 55 56 56
23 18 19 18 18 15 14 13 12 11 18 25 23 20 18 25 33 39 42 42 38 38 39 42 49 52 54 55 54 54 54 54 54 54 53 55 54 54 53 54 54 55 55 55
29 21 20 18 19 17 17 16 15 13 12 11 15 17 18 31 29 35 36 42 44 46 47 48 45 49 53 54 55 55 54 54 54 54 54 54 55 55 54 53 53 53 54 55
26 24 22 16 20 20 18 17 15 14 13 13 12 18 38 37 36 42 45 45 45 45 46 48 48 47 48 53 54 55 55 55 54 54 54 54 54 54 54 54 54 53 45 42
25 25 24 20 22 12 13 21 21 17 16 24 31 37 39 37 44 43 45 45 45 45 45 47 47 46 45 45 54 55 56 56 55 54 54 54 54 54 54 51 44 41 40 38
27 25 19 15 18 18 17 21 28 27 24 39 38 39 38 38 42 41 45 46 45 45 45 46 45 44 43 44 49 55 55 56 55 54 54 54 55 49 44 41 38 37 36 35
25 25 22 21 16 16 23 28 29 31 28 38 39 39 38 37 35 36 45 45 43 43 42 43 41 41 42 43 45 53 52 54 49 46 47 49 45 42 39 37 35 35 34 33
27 24 21 20 15 22 25 23 26 27 29 38 37 38 38 35 37 39 45 42 41 40 40 40 40 39 40 42 43 41 42 41 44 43 42 42 40 37 36 34 33 32 31 31
27 24 21 22 16 16 33 35 29 34 36 36 36 36 36 38 43 44 41 39 38 38 37 38 38 37 38 40 42 40 39 41 41 40 38 36 35 34 33 32 31 31 30 29
27 31 25 22 22 32 38 38 40 39 34 34 33 33 38 43 44 41 38 37 36 36 36 37 36 36 35 36 38 38 40 39 38 37 36 34 33 32 32 31 31 29 28 27
33 35 33 30 34 36 39 39 39 37 32 31 33 40 43 42 42 38 36 35 35 36 36 36 35 34 33 34 34 34 35 35 34 33 33 32 32 31 30 30 29 28 26 24
33 35 33 33 35 37 37 40 39 36 35 35 40 41 41 40 37 36 34 33 33 32 35 35 34 32 32 32 32 31 31 30 29 28 28 27 26 25 24 25 25 24 25 24
34 32 29 30 36 36 35 37 38 35 37 41 38 35 34 34 32 31 29 29 29 30 31 31 33 33 32 31 30 30 30 28 27 25 24 24 23 22 22 21 22 26 26 26

GFSCGP_sfc_dewp_111.txt.gz
Dewpoint
26 11 7 5 11 15 14 12 10 9 9 6 5 8 10 14 23 25 25 24 27 28 31 34 55 56 57 58 58 58 58 58 59 59 60 59 59 61 61 62 61 61 62 61
20 23 18 9 7 7 7 7 6 5 4 8 7 8 11 17 17 24 26 27 28 28 31 50 55 56 57 58 58 58 58 58 57 58 59 60 60 61 61 62 62 62 62 61
11 18 26 25 20 13 11 8 8 5 7 11 12 14 16 19 23 28 30 29 29 30 28 48 55 56 56 57 57 57 58 58 57 56 56 58 60 60 60 61 61 62 62 62
17 18 20 26 25 22 20 15 11 9 15 14 17 13 16 17 18 21 23 23 27 28 33 48 55 55 56 56 57 57 57 57 56 56 56 57 58 58 59 60 61 62 62 62
18 16 23 20 21 23 22 23 22 21 18 17 17 17 15 17 17 18 19 21 24 26 38 49 54 55 56 56 56 57 57 57 57 57 56 55 54 56 59 60 60 61 61 61
16 19 18 17 16 19 20 19 21 23 20 17 15 17 13 15 17 20 21 23 37 37 33 44 52 55 56 55 55 56 56 57 58 58 56 55 54 55 55 58 59 60 61 61
21 20 20 19 17 19 16 17 13 13 17 14 16 18 15 20 21 26 38 40 41 41 41 38 50 55 55 55 55 56 56 56 57 57 57 56 56 57 56 56 57 58 60 60
19 16 19 19 18 17 15 17 15 6 11 11 19 18 19 26 32 41 41 43 43 43 42 46 50 54 54 55 55 56 56 56 56 57 57 57 57 57 57 57 57 58 58 60
20 19 21 18 22 22 21 15 17 14 16 20 17 20 20 28 37 39 41 44 43 43 42 44 52 54 54 54 55 55 55 56 56 56 57 57 57 57 57 58 59 59 60 59
22 17 16 15 22 24 26 25 15 20 16 10 14 20 21 26 35 38 39 44 44 42 42 42 53 54 54 54 55 55 55 55 55 56 57 56 56 56 57 57 57 58 59 58
11 15 17 17 17 15 23 27 28 27 22 17 13 14 32 36 39 39 41 43 43 43 45 44 47 54 54 55 55 55 55 55 55 56 57 56 56 56 56 56 57 57 58 58
15 13 9 9 14 18 26 30 31 26 25 26 26 21 29 29 42 42 43 41 44 46 45 43 43 54 54 55 55 54 54 55 55 56 56 56 56 56 56 55 55 57 56 57
19 15 8 5 18 21 23 21 19 30 31 24 25 22 26 27 28 42 43 44 46 47 44 42 42 54 55 55 55 54 54 54 54 55 55 56 56 56 56 56 55 55 56 56
29 17 10 6 15 17 12 13 12 27 22 20 21 20 24 22 22 38 41 43 45 46 45 47 49 54 55 55 55 54 54 53 54 54 54 55 55 56 56 56 55 55 55 55
25 15 17 17 18 17 15 16 16 14 17 18 12 17 18 19 25 30 40 41 42 46 48 48 48 53 55 55 55 55 54 53 54 54 54 53 55 55 55 55 55 55 55 55
28 21 21 18 19 18 18 19 19 17 16 14 13 11 12 22 30 33 38 40 42 45 47 47 47 47 48 51 55 55 54 54 54 54 55 53 55 53 54 54 54 55 55 55
25 24 21 11 20 19 13 14 17 16 15 15 12 12 27 37 37 39 42 43 45 46 46 46 46 45 46 46 48 55 55 55 54 53 54 55 54 53 53 53 53 53 48 45
25 24 23 19 19 8 12 18 17 19 19 25 16 25 38 38 43 44 45 45 45 44 45 45 44 44 44 44 47 52 56 55 55 54 54 54 54 53 53 51 46 42 41 39
28 24 18 12 15 11 11 11 23 30 29 35 27 37 38 39 44 42 46 46 44 43 42 43 42 42 42 43 45 53 56 56 55 55 55 54 54 51 46 42 40 38 37 36
26 27 22 20 14 6 16 27 29 31 27 38 39 38 38 38 37 38 44 42 41 40 39 40 40 40 41 42 47 48 52 54 53 54 54 53 48 45 41 38 37 36 35 33
26 27 22 19 12 18 23 24 31 22 30 37 38 38 37 35 37 40 41 39 38 38 37 38 38 38 38 41 44 45 45 42 42 43 46 45 44 42 38 36 35 34 33 32
26 24 23 23 15 13 31 33 29 35 38 38 38 36 35 41 44 41 38 37 37 36 37 37 37 36 36 39 40 41 42 42 40 38 38 37 37 36 35 34 33 32 31 30
25 30 27 23 21 31 37 38 41 42 36 34 33 32 39 42 41 39 37 36 35 36 36 36 35 35 34 35 37 36 38 40 37 35 34 33 33 33 33 32 31 30 29 28
32 35 32 30 33 35 37 39 41 41 38 33 37 42 42 40 40 37 35 34 34 34 35 34 33 33 33 32 32 34 34 35 33 33 31 31 30 29 29 29 30 29 27 26
32 35 32 34 35 36 37 36 36 35 39 38 37 36 37 37 35 34 31 31 31 32 33 33 32 31 31 31 30 30 30 29 27 26 26 25 24 24 24 24 24 24 25 24
35 28 29 29 33 35 36 37 38 38 37 38 36 33 31 32 31 29 28 29 29 29 31 32 31 30 29 29 29 28 27 27 26 24 23 23 23 24 23 23 23 27 26 27

GFSCGP_sfc_dewp_114.txt.gz
Dewpoint
21 13 7 5 9 13 15 13 12 12 12 8 8 6 5 8 10 15 19 21 23 25 27 30 39 51 56 59 59 59 59 59 59 60 60 60 59 60 61 61 61 61 61 61
17 20 18 8 8 10 10 9 10 7 7 8 5 5 9 11 14 16 17 23 25 27 27 27 40 54 56 58 58 59 59 59 60 60 60 60 59 61 61 61 61 61 61 60
10 12 20 19 13 8 8 6 7 6 9 9 10 14 15 17 18 23 25 27 28 26 25 27 35 53 55 57 57 58 58 59 59 59 59 60 60 60 60 61 60 61 61 59
13 12 10 24 22 18 17 17 16 17 12 15 17 13 14 17 19 19 20 21 21 22 29 29 35 53 54 56 56 57 58 59 57 57 58 59 58 57 59 59 61 60 61 60
12 20 17 10 17 25 24 23 19 18 18 17 16 15 14 14 13 16 19 21 27 40 40 40 39 53 54 56 55 57 58 58 57 57 58 58 57 58 59 60 60 61 61 61
12 18 21 22 23 22 23 20 19 22 19 16 15 14 8 12 16 20 26 37 42 42 42 42 42 50 54 55 55 57 57 57 57 56 55 55 54 57 59 59 59 60 61 61
19 17 20 19 18 18 16 16 12 7 17 11 16 16 12 16 20 36 40 41 44 43 42 42 43 50 55 56 55 56 56 57 57 56 55 54 54 56 57 59 59 59 60 60
19 16 19 19 18 17 16 16 15 5 7 6 18 15 17 23 34 39 42 44 44 44 42 43 44 46 55 55 55 55 55 56 56 56 56 56 54 55 55 55 57 59 59 60
21 19 19 17 22 23 20 17 19 15 15 16 13 16 17 28 34 37 37 42 43 43 43 43 44 44 53 55 54 55 55 55 56 56 57 57 57 57 57 56 56 57 58 59
19 19 16 16 26 17 23 28 17 21 15 10 12 17 17 32 36 38 38 40 40 39 42 43 43 44 45 54 55 55 55 55 56 56 56 56 57 57 57 57 58 57 59 59
15 14 16 16 14 14 21 24 27 26 25 19 18 13 31 28 38 39 40 41 42 41 45 44 44 44 46 55 55 55 55 55 55 55 56 57 57 57 57 57 57 58 59 59
18 17 13 10 18 21 30 30 30 23 25 26 25 23 28 24 28 31 41 43 44 44 44 46 48 48 53 54 55 55 55 55 55 54 56 57 57 56 56 56 57 57 57 58
23 18 8 11 19 19 21 17 26 29 28 23 20 19 25 21 20 22 40 41 45 45 43 44 48 48 54 54 54 55 55 54 54 55 55 56 56 56 56 56 56 57 56 57
29 21 13 6 11 16 10 13 14 25 20 18 20 16 11 16 19 17 23 40 44 46 44 45 48 48 50 55 55 54 55 55 54 55 55 55 56 56 56 56 55 56 56 56
26 16 16 16 17 17 15 15 15 14 17 16 8 7 7 11 11 15 17 39 42 42 43 44 48 48 47 50 55 55 55 54 54 54 54 54 56 56 56 55 55 55 55 55
26 20 21 17 19 18 17 18 19 18 16 15 14 13 14 14 13 14 28 39 42 43 43 45 48 46 46 46 48 55 55 54 54 53 53 53 55 55 55 55 55 55 55 55
23 21 21 11 18 17 12 13 15 16 18 17 14 15 16 16 20 38 41 44 44 45 45 46 46 45 45 45 46 47 55 54 53 54 54 53 54 54 55 55 55 54 49 48
24 24 22 17 18 7 7 17 15 16 16 17 17 17 26 25 41 43 45 45 44 44 43 42 43 42 43 44 45 47 49 54 54 54 54 54 54 53 53 53 46 43 42 41
28 24 17 12 16 11 11 9 19 28 25 29 28 30 29 38 42 41 46 44 42 40 40 39 41 40 41 42 43 47 49 55 54 53 53 54 54 52 48 44 41 39 38 36
28 26 21 19 14 6 11 21 32 32 19 34 36 37 37 37 35 39 43 40 39 38 38 38 38 38 38 39 42 47 53 55 54 54 53 53 51 48 44 41 39 37 35 34
26 26 21 21 19 17 19 20 29 20 23 35 36 38 37 36 38 41 40 38 37 37 37 37 37 36 36 38 41 43 43 42 44 46 47 47 47 43 40 38 36 35 33 32
25 23 22 24 18 11 33 33 27 35 39 38 39 39 37 40 42 39 37 36 36 36 36 36 35 35 34 35 38 39 39 39 39 39 38 38 38 38 36 35 34 33 32 30
23 28 26 26 21 32 35 37 39 39 39 38 33 34 41 40 39 37 35 35 34 34 35 34 34 33 32 32 34 35 36 36 35 35 34 34 34 34 33 32 31 30 30 29
31 34 30 31 33 34 35 37 39 39 39 39 41 41 41 39 38 35 32 32 32 32 34 33 32 31 31 30 30 31 33 33 31 30 30 30 31 30 30 31 30 29 29 28
32 35 30 32 35 35 36 37 36 38 39 34 34 34 35 34 32 31 30 30 30 31 32 32 31 30 30 29 28 29 29 28 27 26 26 26 25 25 25 25 25 25 26 26
32 32 30 29 35 35 37 39 37 35 34 35 32 31 30 31 30 29 28 28 28 29 29 29 29 28 28 27 27 26 27 28 26 26 26 25 25 24 24 24 25 28 28 28

GFSCGP_sfc_dewp_117.txt.gz
Dewpoint
18 14 12 11 13 7 14 15 14 14 14 13 13 12 11 9 9 13 16 19 22 25 28 30 35 38 42 54 56 59 61 62 62 61 60 60 59 59 60 61 61 62 62 62
19 20 20 11 10 9 10 11 13 13 11 13 9 10 13 13 15 16 18 21 24 27 28 34 40 40 48 55 59 60 60 61 61 61 61 61 60 61 60 61 62 62 62 61
11 13 18 16 11 8 9 10 11 7 8 12 12 14 16 17 16 20 24 25 25 26 40 42 44 45 50 55 59 59 60 60 61 61 61 61 61 61 61 61 61 61 61 61
13 14 12 18 18 14 13 11 8 7 15 14 18 9 13 16 18 20 21 25 33 42 43 43 44 45 50 53 58 59 60 60 60 61 60 60 59 58 60 61 61 61 60 59
15 18 12 10 11 17 14 23 15 18 18 17 17 15 14 15 11 17 22 35 42 44 44 43 44 45 49 55 58 60 60 59 59 60 60 59 59 59 61 61 60 61 61 59
15 18 21 13 14 20 26 23 21 22 20 13 15 11 7 9 16 19 35 40 44 45 44 43 45 45 47 57 58 59 59 58 58 59 59 59 59 58 60 60 60 61 61 60
16 9 16 21 18 21 20 18 11 12 14 5 14 14 12 17 26 37 38 40 43 42 41 42 43 44 46 53 56 57 58 57 58 58 58 58 59 60 59 60 60 60 60 61
18 17 17 20 18 16 20 18 10 -2 2 2 16 10 16 33 37 38 38 40 40 40 40 42 44 45 46 48 55 56 56 56 57 58 58 60 60 59 59 60 61 60 60 60
14 19 19 19 22 19 19 16 18 11 15 14 14 15 25 32 32 31 32 38 40 41 41 43 46 47 49 49 50 55 56 56 57 57 59 59 58 58 57 58 59 61 61 61
13 11 17 18 22 23 23 24 18 19 13 9 11 13 19 23 24 23 25 33 40 42 43 45 47 48 50 53 52 56 56 56 57 57 58 58 58 58 58 58 58 58 59 60
16 15 13 16 20 17 21 24 27 24 24 10 9 12 27 25 25 19 19 25 38 43 44 43 45 47 47 52 55 56 56 56 56 57 58 58 57 58 58 58 58 58 59 59
18 18 13 11 22 25 29 30 29 21 22 25 22 18 28 25 21 19 19 20 34 43 44 43 45 45 47 47 55 56 56 56 56 57 57 57 57 57 57 57 58 59 59 60
22 19 12 17 21 19 16 11 27 28 26 23 20 12 27 18 13 14 17 19 24 44 42 42 43 44 47 47 48 56 56 55 55 56 56 56 57 57 57 57 57 58 58 58
28 18 15 12 13 15 11 12 13 23 18 15 15 13 9 9 10 11 14 17 22 43 42 42 43 45 47 48 47 51 56 56 56 56 55 56 56 57 57 57 57 58 57 57
25 14 14 13 14 16 14 12 13 11 10 9 6 5 6 7 8 11 15 18 19 38 42 42 46 47 48 47 46 47 54 56 56 55 55 56 56 57 57 56 56 57 57 56
25 14 18 16 15 13 14 16 17 16 15 14 13 12 15 14 15 16 18 22 35 42 45 46 47 47 45 45 45 45 48 55 55 55 55 56 56 56 56 56 56 56 56 56
23 19 14 7 11 13 11 12 13 13 15 15 9 11 11 15 15 18 25 35 43 44 43 43 43 44 43 43 43 45 47 50 54 54 55 54 56 56 56 56 55 55 52 49
23 22 20 14 15 6 7 14 14 13 14 15 16 17 19 20 23 26 43 44 44 42 41 40 40 41 41 41 43 44 45 49 54 54 54 54 55 55 55 55 49 46 45 44
28 24 20 15 12 9 9 9 8 12 13 25 28 32 34 36 32 36 44 42 40 39 38 38 39 40 39 40 40 43 46 50 54 54 53 53 54 54 52 47 43 41 39 38
26 28 21 19 12 9 9 25 28 28 15 34 35 35 37 38 32 34 42 39 38 37 37 37 38 37 37 37 39 42 42 45 54 54 53 54 54 51 47 43 40 38 36 34
26 26 22 21 20 19 19 28 28 12 23 36 37 36 38 38 40 41 39 38 37 37 36 36 36 35 34 34 36 38 38 37 39 46 52 52 50 47 43 39 37 35 33 33
25 24 24 24 21 16 34 31 26 34 36 37 39 38 37 42 40 38 37 35 34 34 35 34 34 33 33 33 34 34 35 36 38 38 41 40 40 40 38 36 35 34 33 31
24 28 25 27 21 31 34 34 38 40 37 37 39 41 42 40 37 36 34 33 33 33 34 33 32 32 31 31 31 31 32 33 34 34 34 35 35 35 35 34 33 32 31 30
30 34 30 30 33 35 35 37 38 39 38 38 36 37 37 35 34 33 32 31 30 31 32 31 30 29 29 29 29 30 30 31 30 30 31 32 32 32 32 32 32 31 30 29
31 33 31 31 34 34 37 36 36 35 36 34 33 33 33 33 31 30 29 29 29 29 29 29 28 27 27 27 26 28 29 29 29 28 29 29 29 28 27 28 28 28 29 29
32 31 28 28 32 33 33 33 36 34 33 32 32 31 29 29 28 28 27 27 27 26 26 26 26 25 25 25 25 26 27 28 28 26 26 26 27 28 27 26 27 29 28 28

GFSCGP_sfc_dewp_120.txt.gz
Dewpoint
18 11 10 7 12 9 6 4 5 6 12 14 14 13 13 14 13 11 11 16 18 22 22 26 38 44 48 50 49 52 53 57 61 63 64 63 61 61 61 63 63 62 64 64
18 13 4 2 6 10 9 5 3 3 11 16 12 9 7 8 11 12 14 17 21 22 25 35 41 45 48 52 54 55 56 59 60 61 62 62 62 62 61 61 62 62 62 64
12 9 15 16 17 13 12 10 7 4 5 8 7 5 6 9 12 15 20 20 22 29 36 39 43 46 48 51 55 55 56 59 60 60 61 62 62 62 61 61 61 62 62 63
11 12 11 13 17 17 14 12 9 7 9 4 7 4 9 12 13 17 17 22 32 38 40 41 42 44 47 53 57 57 57 58 60 61 61 61 60 60 61 61 63 63 63 63
13 13 13 13 12 13 14 14 17 17 12 10 8 10 5 11 13 14 21 34 39 42 42 39 40 43 44 52 58 58 58 60 60 61 62 61 60 59 60 61 62 62 62 61
20 19 13 13 10 11 13 15 21 20 15 13 12 11 3 8 11 15 31 37 39 38 38 38 40 43 45 50 55 58 58 59 60 61 62 61 61 59 60 61 61 62 60 60
16 18 17 18 14 21 15 18 14 14 13 10 3 5 7 10 22 30 35 36 37 38 39 39 41 43 46 50 51 55 57 57 59 60 60 60 60 60 60 60 60 60 60 58
10 16 20 16 18 17 19 19 12 8 8 7 9 5 14 31 33 33 33 35 37 38 39 39 42 46 48 51 54 53 55 57 58 59 60 60 60 59 60 60 59 60 60 60
11 10 21 22 25 18 20 22 20 15 13 9 8 22 30 30 25 25 26 29 35 38 39 39 40 45 47 50 53 55 53 56 57 58 59 59 60 60 59 60 61 62 61 60
15 13 14 21 29 29 22 21 15 16 11 4 1 11 13 24 17 10 7 11 22 30 35 38 39 43 43 47 49 52 57 55 57 57 59 60 60 59 60 60 61 62 61 61
11 17 13 16 24 28 31 26 25 22 15 9 7 7 22 24 21 15 12 12 14 24 31 37 40 41 41 46 48 50 54 56 56 57 58 60 59 59 60 59 59 59 60 60
13 16 14 13 18 24 27 33 34 28 19 18 15 13 24 28 24 14 15 13 16 17 33 37 39 41 42 45 47 49 50 56 57 57 58 59 59 58 58 58 58 58 57 59
22 14 8 7 18 26 23 19 22 26 29 22 19 14 28 28 21 13 14 13 16 17 30 35 38 41 44 46 47 48 48 50 57 57 58 58 59 57 57 56 58 58 58 58
27 16 13 8 17 19 16 19 17 16 19 18 16 13 15 12 8 8 11 13 17 19 26 34 40 43 44 45 47 47 47 48 56 57 57 58 57 56 56 57 58 58 58 58
21 13 9 7 8 10 14 16 13 12 11 12 12 7 6 7 8 9 12 13 16 21 25 37 42 45 46 46 46 46 46 48 52 56 57 57 56 57 57 58 57 58 58 58
20 15 13 10 9 10 11 10 10 10 11 9 8 9 10 8 7 11 13 13 20 27 37 42 44 44 44 44 44 44 45 47 48 56 56 56 56 56 57 57 57 57 57 57
25 19 14 9 6 6 7 8 7 8 7 10 9 9 8 8 10 15 17 18 30 37 42 42 42 42 43 43 43 43 44 46 47 53 56 55 55 55 57 56 56 56 55 52
26 22 19 15 12 8 5 6 9 9 8 6 7 9 10 14 21 27 28 27 37 41 40 40 40 40 41 42 43 42 43 45 47 49 56 55 55 55 55 56 55 51 49 46
23 24 20 17 10 7 6 8 9 8 8 9 11 20 24 32 36 33 36 41 40 40 39 39 39 39 39 39 39 40 42 43 44 48 55 55 55 54 55 52 49 45 42 40
27 27 22 17 14 9 11 16 19 21 16 31 33 35 35 37 35 39 40 39 38 38 37 37 37 37 36 36 36 39 38 39 38 41 50 55 54 55 51 46 42 41 38 36
25 29 24 20 22 18 19 24 25 18 26 35 37 36 33 37 39 39 38 37 35 36 35 35 35 35 34 33 34 35 35 35 37 39 41 53 53 50 45 41 39 37 35 34
26 26 26 25 23 18 29 26 28 33 37 37 37 38 40 40 39 38 35 34 34 34 33 33 33 32 31 31 31 31 31 33 36 37 37 45 46 42 40 38 36 35 33 32
25 29 26 29 27 35 35 36 36 37 38 38 38 37 38 37 35 34 33 32 32 32 31 31 30 29 29 29 29 29 30 31 34 34 35 34 38 38 37 36 34 33 33 31
29 33 31 30 32 32 35 35 37 37 36 34 35 35 34 33 33 32 30 30 29 29 28 28 28 27 26 27 27 28 29 30 32 32 32 33 32 32 33 33 34 33 32 31
32 34 30 31 32 33 34 35 33 35 36 35 32 32 31 31 31 30 28 27 27 27 26 26 26 26 25 25 26 27 28 30 29 30 31 31 32 30 29 31 30 30 30 29
31 30 28 27 31 32 33 33 36 35 35 34 32 31 30 29 28 28 27 27 26 26 25 25 25 25 24 23 24 26 28 28 28 28 28 29 30 29 28 27 27 30 29 29

GFSCGP_sfc_dewp_123.txt.gz
Dewpoint
21 10 8 8 12 9 8 7 6 8 6 8 11 13 15 16 17 20 18 18 15 14 16 21 27 35 41 46 49 49 50 55 51 54 59 63 65 66 64 65 66 67 67 67
12 15 13 8 7 8 8 9 8 7 3 5 10 11 11 11 13 15 15 12 12 16 20 24 33 40 44 47 50 53 52 54 54 53 58 62 65 62 62 63 65 65 65 65
11 9 11 12 12 5 4 8 10 7 5 6 8 8 9 5 4 7 11 11 13 19 23 31 37 41 46 48 55 54 53 54 57 57 59 63 63 62 62 62 62 63 63 64
15 12 10 10 11 12 13 12 9 9 10 8 10 2 5 5 5 8 11 16 21 26 34 35 35 38 43 49 55 57 56 55 57 60 61 62 61 60 60 61 62 62 62 62
14 16 14 14 13 12 13 15 14 13 14 12 6 3 5 9 10 11 15 20 28 35 36 34 35 38 41 49 52 57 58 57 58 60 61 61 61 61 62 62 62 62 62 62
9 13 17 19 14 14 17 18 14 16 17 12 13 8 5 9 13 12 17 28 34 35 35 35 37 39 41 51 54 53 56 57 59 61 62 62 62 61 61 60 61 61 63 63
1 5 13 15 18 17 14 16 17 13 16 18 12 8 9 11 10 13 23 33 34 36 37 36 37 40 43 48 52 53 51 55 58 60 61 62 62 62 61 60 60 62 61 60
5 1 13 25 19 18 16 17 16 14 15 14 13 11 10 11 27 30 32 33 35 35 37 36 36 40 42 46 48 53 52 52 56 59 60 61 62 62 60 60 60 61 61 60
8 5 8 21 26 26 20 23 20 19 18 16 14 15 25 27 29 30 29 30 34 35 35 34 35 39 41 41 45 51 55 53 55 57 59 60 61 62 60 59 61 60 62 61
12 10 8 8 26 24 32 26 24 26 22 16 11 12 18 25 24 24 21 19 20 23 26 30 34 37 38 41 45 50 52 54 55 57 58 59 60 61 60 60 61 62 61 62
12 9 4 7 15 23 28 29 22 24 25 15 12 9 18 26 21 16 14 14 14 14 14 25 33 37 39 42 45 48 50 52 56 57 58 59 60 61 61 60 61 61 62 61
13 19 9 5 12 24 26 28 34 31 20 20 17 16 28 26 20 21 18 15 14 15 14 17 31 35 39 43 45 46 49 50 53 57 57 58 59 61 59 59 59 61 60 61
23 16 14 7 3 25 26 26 26 29 32 27 23 24 29 29 24 18 12 11 12 15 15 13 25 31 37 42 45 46 47 49 51 54 57 58 58 60 59 59 59 59 59 59
26 19 15 10 8 25 17 26 22 20 22 22 28 30 34 35 22 8 8 10 12 13 15 16 21 32 38 44 46 46 47 49 50 51 57 57 58 59 59 59 58 59 59 58
23 17 17 12 6 3 4 7 15 18 20 18 15 17 27 18 10 10 9 10 11 12 17 23 30 39 43 44 45 45 46 48 49 48 51 57 58 59 57 58 58 58 58 57
20 24 18 12 9 6 2 3 9 12 13 13 13 12 11 11 8 6 8 10 14 15 20 30 38 40 42 43 44 44 45 45 48 48 49 55 58 57 57 58 58 58 58 57
25 22 17 13 10 11 6 4 2 5 8 12 8 11 10 6 6 10 17 19 21 19 37 38 40 41 42 42 42 43 44 45 45 47 48 50 57 57 57 57 57 57 57 55
24 22 20 18 16 10 7 4 3 6 6 7 6 5 4 9 22 26 26 25 26 36 39 39 40 40 40 41 41 41 42 43 44 44 45 48 56 57 56 57 56 55 52 47
18 20 19 18 15 16 11 20 15 15 13 10 11 12 18 29 33 28 39 40 40 39 39 39 38 38 38 37 38 39 40 41 41 41 42 43 55 56 55 55 51 47 44 42
29 31 26 19 19 12 19 16 19 21 18 30 33 32 33 34 32 35 38 37 36 36 36 35 36 36 35 35 35 36 37 37 36 36 38 40 43 55 54 49 45 43 40 38
25 28 26 22 23 17 30 26 25 21 28 36 36 37 36 33 37 39 39 37 36 34 34 33 34 33 32 32 32 33 33 33 33 36 38 39 42 53 48 44 41 38 36 35
26 25 24 26 25 21 35 30 32 35 35 37 38 36 34 38 38 36 34 34 32 31 31 31 31 31 30 29 29 29 30 32 33 35 36 36 43 46 43 40 37 36 35 33
26 29 27 29 28 35 35 34 36 37 38 37 36 36 35 33 32 32 31 30 29 29 28 28 28 29 29 27 26 27 28 30 32 34 34 34 35 40 40 37 35 34 34 32
31 34 31 31 31 32 35 35 35 35 34 36 37 33 33 32 31 31 29 28 28 27 26 27 27 26 26 26 25 26 28 30 31 32 33 33 33 32 34 35 35 34 32 31
32 33 29 33 32 30 32 35 35 36 36 36 37 32 30 30 29 29 28 27 27 26 25 26 25 25 25 25 24 24 27 29 30 30 31 32 31 30 29 29 30 31 32 31
28 30 28 28 33 31 34 35 33 34 32 31 30 30 30 28 28 28 27 26 26 25 24 24 24 24 23 24 23 24 26 29 29 29 29 30 30 29 28 27 27 30 28 28

GFSCGP_sfc_dewp_126.txt.gz
Dewpoint
15 18 14 7 11 11 11 10 9 10 10 10 17 17 18 16 18 20 23 26 23 24 22 22 34 37 43 49 50 52 54 56 56 59 61 63 66 66 66 65 66 68 66 67
11 12 14 16 13 9 9 10 10 12 11 12 11 16 16 14 15 16 14 22 22 23 19 21 32 44 46 49 53 53 55 57 57 53 54 60 63 67 66 65 65 66 67 67
13 13 12 10 10 12 13 10 10 7 8 10 13 14 14 11 10 14 13 12 20 19 17 27 39 44 50 51 56 55 56 57 58 57 55 62 65 64 63 63 64 65 66 66
8 14 12 11 10 9 9 10 12 10 9 7 11 8 12 11 10 12 12 11 17 24 29 34 39 42 48 53 55 57 58 59 58 60 59 63 62 61 61 62 62 63 64 64
0 1 5 8 12 13 13 14 12 15 15 14 13 13 14 12 11 11 12 13 20 28 35 36 37 41 46 53 55 57 58 59 60 61 62 63 62 62 62 61 61 62 62 62
-4 2 4 4 7 12 16 14 15 17 18 14 15 13 12 11 9 15 16 22 28 37 37 37 40 44 45 55 56 58 56 56 59 60 61 63 62 61 60 61 61 61 61 62
-6 1 3 3 7 18 16 15 13 19 18 17 16 15 16 16 16 20 17 25 36 37 39 39 39 41 44 49 53 53 53 53 59 60 61 62 62 62 61 62 61 61 61 62
-8 -1 3 21 23 24 22 24 18 9 12 15 17 17 16 18 17 27 23 34 35 37 39 39 39 41 44 46 49 52 51 53 57 59 60 61 62 62 62 62 61 60 61 61
4 3 5 5 12 19 27 24 26 24 20 16 20 19 21 22 20 30 32 34 35 37 38 37 39 41 43 44 49 52 51 51 55 57 59 59 61 62 62 62 61 61 62 60
7 7 6 5 5 13 23 26 26 27 20 14 14 16 22 25 24 30 31 32 34 34 33 33 35 39 41 44 48 52 51 51 52 55 58 59 60 61 62 62 61 61 62 61
9 12 12 12 3 4 23 24 23 27 31 17 16 14 26 32 36 30 28 24 22 22 23 24 31 37 40 45 47 49 50 50 51 53 56 59 59 60 61 61 61 61 62 61
10 18 14 10 8 16 16 32 34 24 25 24 22 19 28 31 37 36 18 17 21 23 22 22 21 34 37 42 45 47 50 49 50 51 53 57 59 60 60 61 61 61 61 61
20 24 19 15 13 17 24 23 24 30 31 25 25 23 34 34 34 27 21 18 17 21 18 20 21 19 34 40 47 46 48 48 49 49 51 55 58 59 59 60 60 61 61 61
31 18 13 11 11 23 15 15 14 25 23 21 20 26 36 38 37 35 29 15 16 18 13 18 23 24 43 46 46 46 48 48 48 48 49 51 57 58 58 60 60 60 60 59
30 18 13 12 14 8 3 3 4 8 21 19 19 21 29 34 34 36 34 9 8 11 14 16 23 41 42 43 45 45 46 47 46 46 48 49 52 58 59 60 59 59 59 58
28 26 28 25 18 10 10 11 5 1 8 13 14 17 19 26 25 20 11 10 14 18 18 21 38 40 41 42 42 43 44 44 45 46 46 48 49 55 58 59 58 58 58 57
22 21 19 16 13 13 11 7 5 -1 2 6 10 14 17 13 20 27 27 26 25 23 32 38 40 40 41 41 41 41 41 42 43 43 44 45 46 51 57 58 58 57 57 55
23 24 21 18 17 11 12 21 17 5 5 6 5 7 20 30 30 32 38 38 39 39 39 39 38 38 39 39 39 39 39 40 40 41 42 41 42 45 54 58 57 55 51 48
24 26 22 19 13 12 12 26 19 16 13 29 30 31 32 32 31 34 38 37 36 36 36 35 35 36 36 35 35 36 37 38 38 37 37 38 39 41 46 52 53 49 45 42
22 27 29 20 19 12 28 29 29 24 17 37 34 34 34 34 30 34 38 38 37 35 34 33 33 34 33 32 32 32 34 35 34 34 35 37 38 39 43 50 48 45 41 38
24 25 24 25 22 25 31 31 28 23 27 37 35 35 35 33 35 37 36 34 35 34 31 31 31 31 31 30 29 30 30 32 32 33 34 36 37 39 42 47 43 40 37 35
25 23 22 23 20 17 33 28 26 30 35 35 35 36 37 36 34 32 31 30 30 29 28 28 28 28 29 28 28 26 28 30 31 32 33 35 36 38 46 42 40 37 35 33
24 29 27 28 26 34 34 33 35 35 34 34 36 37 33 31 30 30 28 28 28 27 26 26 26 27 27 26 25 25 26 28 30 31 32 34 35 35 37 38 37 35 34 33
29 35 30 29 30 28 34 35 36 36 35 36 37 34 32 30 29 28 27 27 26 26 25 25 25 24 25 25 24 25 25 28 30 31 31 33 33 32 32 33 35 35 33 32
32 33 28 30 32 28 30 36 35 36 35 32 30 31 29 29 28 28 27 26 25 25 24 23 23 23 23 23 24 24 25 28 29 30 29 30 30 30 28 28 29 32 32 32
28 29 28 27 33 32 32 35 31 30 29 29 27 28 28 28 27 26 26 25 25 25 24 23 22 22 24 24 23 24 25 28 28 28 28 28 28 28 28 26 26 29 29 30